     2.10           OBSERVATION DATA    G (GPS)             RINEX VERSION / TYPE
teqc 2005Sep1 20060522 11:01:45UTC                          PGM / RUN BY / DATE
MSXP|IAx86-PII|bcc32 5.0|MSWin95->XP|486/DX+                COMMENT
teqc 2005Sep1 20060522 10:58:06UTC                          COMMENT
BIT 2 OF LLI FLAGS DATA COLLECTED UNDER A/S CONDITION       COMMENT
SNR is mapped to RINEX snr flag value [1-9]                 COMMENT
L1: 3 -> 1; 8 -> 5; 40 -> 9                                 COMMENT
L2: 1 -> 1; 5 -> 5; 60 -> 9                                 COMMENT
SFJ1                                                        MARKER NAME
SFJ1                                                        MARKER NUMBER
-Unknown- -Unknown-                                         OBSERVER / AGENCY
2058 TRIMBLE 4000SSI NP 7.19 / SP 3.04                      REC # / TYPE / VERS
0 -Unknown-                                                 ANT # / TYPE
  1582775.7324 -1932980.3401  5848891.4331                  APPROX POSITION XYZ
        0.0000        0.0000        0.0000                  ANTENNA: DELTA H/E/N
     1     1                                                WAVELENGTH FACT L1/2
     6    L1    L2    C1    P2    P1    D1                  # / TYPES OF OBSERV
    30.0000                                                 INTERVAL
Forced Modulo Decimation to 30 seconds                      COMMENT
teqc windowed: start @ 2006 Apr 20 13:50:30.000             COMMENT
  2006     4    20    13    50   30.0000000     GPS         TIME OF FIRST OBS
                                                            END OF HEADER
 06  4 20 13 50 30.0000000  0 10G 2G 4G 5G13G17G20G23G24G25G30
  -1875052.15148  -1414682.59047  21177218.3204   21177218.8134
      1251.5004
   1399644.39648   1064473.94747  20397626.0554   20397628.3054
     -1411.0474
   3493287.88446   2644673.20246  23278279.6254   23278283.4344
     -3071.2974
  -2415863.93847  -1828167.11946  22527022.5704   22527024.5394
      1667.7504
   6249908.75045   4723680.58245  24245168.3134   24245170.9494
     -4948.1414
   5655113.29946   4275907.77646  23697580.5234   23697582.7734
     -4546.9844
    326307.80447    254092.91146  21972736.5944   21972736.0434
      -635.7664
   4373454.64347   3310844.02646  21990331.8204   21990334.9144
     -3614.5004
   1315291.07646   1000302.07646  24144350.6174   24144353.9924
     -1356.5164
    753308.09047    577104.36046  22832613.5554   22832616.1094
      -983.3124
 06  4 20 13 51  0.0000000  0 10G 2G 4G 5G13G17G20G23G24G25G30
  -1912402.59048  -1443786.83747  21170110.7734   21170111.2074
      1238.2504
   1442215.80048   1097646.45747  20405727.1094   20405729.3954
     -1427.3124
   3585652.71646   2716645.72946  23295855.9454   23295859.7774
     -3086.6414
  -2465691.99347  -1866994.14646  22517539.7504   22517541.7304
      1653.7974
   6398390.60845   4839380.65945  24273423.1564   24273427.2114
     -4950.8914
   5791606.01346   4382265.66546  23723554.3204   23723556.9224
     -4552.8284
    345676.40747    269185.32746  21976422.3284   21976422.0474
      -655.7504
   4482023.77147   3395443.32046  22010991.3754   22010994.7274
     -3623.6724
   1356235.38546   1032206.56246  24152142.5784   24152147.2074
     -1373.3914
    783108.52747    600325.45146  22838283.8754   22838286.6764
     -1003.6254
 06  4 20 13 51 30.0000000  0 10G 2G 4G 5G13G17G20G23G24G25G30
  -1949351.66148  -1472578.33147  21163079.4384   21163080.0124
      1224.9694
   1485278.32448   1131201.66647  20413921.5634   20413923.8364
     -1443.5474
   3678480.14046   2788978.80246  23313520.3594   23313525.0594
     -3101.8914
  -2515093.11347  -1905488.50546  22508139.3524   22508141.3914
      1639.6254
   6546957.66945   4955147.12145  24301695.6174   24301698.4654
     -4953.5624
   5928276.06446   4488761.73446  23749561.8524   23749565.8714
     -4558.5314
    365648.05547    284747.63346  21980222.6254   21980222.3794
      -675.7344
   4590870.95547   3480259.28446  22031703.9454   22031707.5314
     -3632.7974
   1397688.84146   1064507.87345  24160031.6254   24160035.3634
     -1390.2034
    813520.86746    624023.34746  22844070.8914   22844073.3524
     -1023.9374
 06  4 20 13 52  0.0000000  0 10G 2G 4G 5G13G17G20G23G24G25G30
  -1985891.14748  -1501050.65847  21156126.5084   21156126.9654
      1211.1414
   1528837.89748   1165144.18747  20422210.5784   20422212.7464
     -1460.2814
   3771773.91946   2861675.23946  23331273.9534   23331277.8674
     -3117.5314
  -2564056.87847  -1943642.06346  22498821.7344   22498823.1294
      1624.7194
   6695614.01545   5070983.15245  24329983.8834   24329986.4614
     -4956.6724
   6065127.03446   4595398.75845  23775603.6094   23775606.4224
     -4564.6874
    386229.11947    300784.81547  21984139.1564   21984138.8164
      -696.1874
   4700001.05647   3565295.69746  22052470.6484   22052474.7854
     -3642.3754
   1439657.45646   1097210.71046  24168017.5394   24168021.9224
     -1407.5164
    844551.50047    648203.01346  22849976.4614   22849979.2384
     -1044.6564
 06  4 20 13 52 30.0000000  0 10G 2G 4G 5G13G17G20G23G24G25G30
  -2022019.48848  -1529202.60747  21149251.4384   21149251.9534
      1197.1414
   1572893.73748   1199473.37447  20430594.1954   20430596.2114
     -1477.0474
   3865531.25346   2934732.77146  23349115.1174   23349119.8984
     -3133.2034
  -2612582.64947  -1981454.32246  22489587.8204   22489589.2034
      1609.9694
   6844356.82045   5186886.56845  24358288.5314   24358292.0704
     -4959.7504
   6202156.33746   4702174.77145  23801678.6884   23801681.4654
     -4570.8444
    407419.71547    317296.95646  21988171.7344   21988171.0084
      -716.7814
   4809412.06547   3650550.99446  22073290.8674   22073294.9804
     -3651.9694
   1482140.36946   1130314.25646  24176100.4694   24176103.7974
     -1424.9374
    876200.12247    672864.49046  22855998.3754   22856001.3754
     -1065.4844
 06  4 20 13 53  0.0000000  0 10G 2G 4G 5G13G17G20G23G24G25G30
  -2057723.33248  -1557023.77447  21142456.8364   21142457.6094
      1183.1564
   1617457.12748   1234198.08947  20439074.1254   20439076.2934
     -1493.7814
   3959761.38346   3008158.80646  23367046.1414   23367049.4924
     -3148.7194
  -2660654.44047  -2018912.83346  22480440.0704   22480441.6414
      1594.9844
   6993195.29445   5302864.46845  24386612.2504   24386614.0434
     -4962.7034
   6339373.20246   4809096.93845  23827790.2424   23827792.6454
     -4576.8754
    429231.85947    334293.41146  21992322.4844   21992321.9344
      -737.2974
   4919114.28047   3736033.20846  22094166.9774   22094170.7974
     -3661.4374
   1525148.82646   1163827.32346  24184286.0004   24184290.6414
     -1442.2664
    908477.70847    698016.04246  22862141.1724   22862143.7274
     -1086.2344
 06  4 20 13 53 30.0000000  0 10G 2G 4G 5G13G17G20G23G24G25G30
  -2093007.37448  -1584517.83147  21135742.7344   21135743.4144
      1168.9694
   1662521.12848   1269312.88247  20447649.4924   20447651.8134
     -1510.6094
   4054455.59446   3081946.52146  23385065.4844   23385069.8204
     -3164.3284
  -2708277.16647  -2056021.43246  22471377.8054   22471379.4224
      1579.7664
   7142121.19545   5418910.53245  24414950.4844   24414953.4494
     -4965.7814
   6476768.94146   4916158.48145  23853936.9694   23853939.6414
     -4582.9534
    451659.36947    351769.38446  21996589.9304   21996589.5784
      -757.9844
   5029099.50147   3821735.94546  22115096.0704   22115100.1134
     -3671.0164
   1568675.85846   1197744.51445  24192568.4454   24192573.0744
     -1459.7194
    941377.66747    723652.29346  22868401.0864   22868403.8754
     -1107.1724
 06  4 20 13 54  0.0000000  0 10G 2G 4G 5G13G17G20G23G24G25G30
  -2127869.29248  -1611682.94747  21129108.8914   21129109.6174
      1155.0314
   1708085.75648   1304817.77047  20456320.5944   20456322.8674
     -1527.1254
   4149611.72446   3156094.14046  23403173.4144   23403177.4574
     -3179.5164
  -2755447.34247  -2092777.39246  22462401.5784   22462403.4534
      1564.6094
   7291132.09245   5535022.85945  24443307.3524   24443309.3554
     -4968.4064
   6614341.51746   5023357.80145  23880116.5004   23880119.2424
     -4588.6414
    474703.04847    369725.48346  22000974.8364   22000974.5664
      -778.3594
   5139366.66747   3907658.37846  22136079.3594   22136083.6844
     -3680.2344
   1612721.40046   1232065.67546  24200950.0944   24200953.4924
     -1476.7974
    974900.61247    749774.11346  22874780.2894   22874782.6214
     -1127.8124
 06  4 20 13 54 30.0000000  0 10G 2G 4G 5G13G17G20G23G24G25G30
  -2162311.00948  -1638520.64547  21122554.4774   21122555.2854
      1141.0164
   1754146.66948   1340709.38947  20465085.4774   20465087.8094
     -1543.6564
   4245223.45546   3230596.72146  23421368.4064   23421372.4494
     -3194.6414
  -2802166.26247  -2129181.71246  22453511.1174   22453513.0044
      1549.6564
   7440221.67045   5651196.47745  24471677.8134   24471681.0824
     -4970.9694
   6752084.82946   5130690.16745  23906326.7424   23906329.8954
     -4594.2814
    498359.08947    388158.75847  22005476.7274   22005476.7504
      -798.7664
   5249910.22847   3993796.17546  22157115.5234   22157119.2624
     -3689.3914
   1657281.09846   1266787.52245  24209429.4144   24209433.8094
     -1493.9224
   1009042.01847    776377.81546  22881277.8284   22881279.8554
     -1148.3754
 06  4 20 13 55  0.0000000  0 10G 2G 4G 5G13G17G20G23G24G25G30
  -2196326.10548  -1665025.90447  21116081.5084   21116082.2934
      1126.7194
   1800707.94148   1376990.88647  20473945.8204   20473948.2344
     -1560.3914
   4341292.87046   3305456.02446  23439650.1804   23439653.3324
     -3209.9064
  -2848427.45747  -2165229.37746  22444707.7504   22444709.9654
      1534.4384
   7589392.47145   5767433.35645  24500065.1724   24500067.6094
     -4973.6874
   6890000.79845   5238157.09545  23932571.7814   23932573.7734
     -4600.0624
    522632.24047    407072.88346  22010095.7114   22010095.4774
      -819.4064
   5360733.20647   4080151.71346  22178204.6024   22178208.4694
     -3698.7344
   1702358.98346   1301913.06746  24218008.3834   24218012.1094
     -1511.2504
   1043806.37247    803466.89346  22887893.4144   22887895.4884
     -1169.1724
 06  4 20 13 55 30.0000000  0 10G 2G 4G 5G13G17G20G23G24G25G30
  -2229915.47648  -1691199.43347  21109689.8834   21109690.5984
      1112.5784
   1847766.93948   1413660.21147  20482900.9304   20482903.0744
     -1576.8594
   4437815.03446   3380668.02146  23458016.6954   23458020.1054
     -3224.8914
  -2894229.25347  -2200919.06746  22435991.7894   22435994.0514
      1519.0004
   7738639.72445   5883729.81945  24528464.9844   24528468.1024
     -4976.1254
   7028085.12645   5345755.17745  23958848.2894   23958850.9264
     -4605.5624
    547520.78747    426466.54947  22014832.1954   22014832.0434
      -839.8284
   5471831.63447   4166721.88246  22199345.8674   22199349.6764
     -3707.8124
   1747952.41546   1337440.49945  24226684.9224   24226688.9064
     -1528.3124
   1079191.17047    831039.39846  22894626.6954   22894628.8054
     -1189.7974
 06  4 20 13 56  0.0000000  0 10G 2G 4G 5G13G17G20G23G24G25G30
  -2263076.29748  -1717039.02547  21103379.7734   21103380.2544
      1098.1564
   1895323.88848   1450717.54147  20491950.8364   20491953.0394
     -1593.5624
   4534788.73846   3456232.00046  23476470.0084   23476473.3714
     -3240.0004
  -2939569.13847  -2236248.83146  22427364.3984   22427366.2854
      1503.5474
   7887961.87445   6000084.62045  24556881.8134   24556885.4104
     -4978.6414
   7166336.08645   5453483.12545  23985156.9064   23985159.8484
     -4611.1724
    573025.76947    446340.55247  22019685.9534   22019685.5784
      -860.4694
   5583204.94447   4253506.24646  22220539.8054   22220543.5664
     -3717.0474
   1794061.56946   1373369.71446  24235457.6094   24235460.5864
     -1545.6254
   1115196.73247    859095.70446  22901477.6414   22901480.5234
     -1210.5944
 06  4 20 13 56 30.0000000  0 10G 2G 4G 5G13G17G20G23G24G25G30
  -2295806.99648  -1742543.46347  21097151.1644   21097151.6914
      1084.0784
   1943377.98148   1488162.26847  20501095.2894   20501097.3524
     -1609.8444
   4632210.76646   3532145.24746  23495009.9224   23495013.5434
     -3254.5944
  -2984444.63547  -2271216.73246  22418824.6024   22418826.1724
      1488.2814
   8037356.09245   6116495.63045  24585309.9384   24585314.4494
     -4980.7504
   7304751.34646   5561339.10345  24011496.8594   24011499.6134
     -4616.3124
    599146.74547    466694.54647  22024656.3674   22024655.7934
      -880.7344
   5694851.30347   4340503.37346  22241785.3444   22241788.9774
     -3725.8284
   1840685.73546   1409700.26445  24244330.0394   24244334.0234
     -1562.4694
   1151822.84547    887635.55946  22908448.0634   22908450.4884
     -1230.9374
 06  4 20 13 57  0.0000000  0 10G 2G 4G 5G13G17G20G23G24G25G30
  -2328108.57348  -1767713.52947  21091004.5784   21091005.0354
      1069.4534
   1991926.13948   1525991.99747  20510333.3914   20510335.5594
     -1626.5944
   4730075.79846   3608403.68446  23513633.0004   23513637.0554
     -3269.6094
  -3028855.54747  -2305822.61846  22410373.7034   22410375.1804
      1472.6254
   8186817.38745   6232958.87245  24613750.8444   24613753.8444
     -4983.2194
   7443325.47546   5669318.87845  24037866.9064   24037869.8484
     -4621.8594
    625881.27047    487526.63447  22029743.8524   22029743.3014
      -901.4694
   5806766.19347   4427709.74546  22263081.8134   22263085.7854
     -3735.0314
   1887821.31746   1446429.29746  24253300.5164   24253303.8094
     -1579.7664
   1189065.80547    916656.11346  22915535.0474   22915537.5084
     -1251.8124
 06  4 20 13 57 30.0000000  0 10G 2G 4G 5G13G17G20G23G24G25G30
  -2359980.84248  -1792549.06947  21084939.3204   21084940.0824
      1055.2194
   2040965.87548   1564204.73547  20519665.6024   20519667.6884
     -1642.8444
   4828379.82146   3685004.29346  23532338.9144   23532342.8284
     -3284.0944
  -3072802.98147  -2340067.35246  22402010.5234   22402012.1414
      1457.2504
   8336341.75445   6349471.25345  24642205.1804   24642209.8324
     -4985.1874
   7582054.60645   5777419.39645  24064265.5394   24064268.9384
     -4626.8754
    653227.68947    508835.51746  22034948.2664   22034947.6804
      -921.7504
   5918946.17547   4515122.68246  22284429.0394   22284433.0594
     -3743.7344
   1935465.94746   1483554.94146  24262366.4144   24262370.0824
     -1596.6564
   1226923.89947    946155.88846  22922739.0944   22922741.3094
     -1272.1724
 06  4 20 13 58  0.0000000  0 10G 2G 4G 5G13G17G20G23G24G25G30
  -2391420.24248  -1817047.30447  21078956.7274   21078957.4534
      1040.9384
   2090498.51648   1602801.61347  20529091.2034   20529093.4184
     -1659.0944
   4927121.83446   3761946.11946  23551129.3594   23551133.4844
     -3298.5004
  -3116279.90747  -2373945.46646  22393737.1334   22393739.2074
      1441.5474
   8485928.60643   6466032.36445  24670669.1484   24670672.8754
     -4987.0624
   7720938.18345   5885640.29745  24090693.8134   24090696.8954
     -4631.8124
    681187.86347    530622.65646  22040268.2424   22040267.9494
      -942.0624
   6031391.42847   4602742.31846  22305826.6254   22305830.7854
     -3752.4064
   1983620.86546   1521078.17046  24271530.3834   24271534.8484
     -1613.4694
   1265397.67147    976135.15346  22930060.5474   22930062.7974
     -1292.5784
 06  4 20 13 58 30.0000000  0 10G 2G 4G 5G13G17G20G23G24G25G30
  -2422432.96248  -1841213.05547  21073054.8754   21073055.4614
      1026.3594
   2140515.78948   1641776.08747  20538609.2114   20538611.5554
     -1675.5624
   5026291.64746   3839221.22746  23570000.2664   23570004.1214
     -3313.0164
  -3159293.60247  -2407462.61346  22385552.0634   22385554.0554
      1425.7344
   8635567.91543   6582634.31545  24699143.7194   24699147.2234
     -4989.0784
   7859966.18445   5993973.71745  24117149.4224   24117151.8244
     -4636.9064
    709754.37647    552882.25946  22045704.4614   22045704.3674
      -962.5784
   6144092.98247   4690561.67946  22327273.1954   22327276.8984
     -3761.2344
   2032277.96846   1558992.75346  24280790.1804   24280793.8484
     -1630.5164
   1304480.58647   1006589.63346  22937498.1484   22937500.6094
     -1313.1254
 06  4 20 13 59  0.0000000  0 10G 2G 4G 5G13G17G20G23G24G25G30
  -2453008.91548  -1865038.47947  21067236.6484   21067237.2344
      1012.0164
   2191025.42848   1681134.22947  20548220.7114   20548223.0664
     -1691.7194
   5125894.62646   3916833.79246  23588954.2734   23588957.8484
     -3327.1724
  -3201830.91947  -2440608.56246  22377456.9144   22377458.8134
      1410.1094
   8785265.45443   6699281.63845  24727631.4384   24727634.2384
     -4990.7504
   7999144.28845   6102424.09045  24143635.8524   24143639.5554
     -4641.6094
    738935.06647    575620.44447  22051257.0944   22051257.1524
      -982.7974
   6257057.41247   4778585.88246  22348769.1024   22348772.7934
     -3769.7194
   2081444.60046   1597304.40846  24290144.6484   24290148.7974
     -1647.2504
   1344179.15247   1037523.69846  22945052.1334   22945054.3594
     -1333.3754
 06  4 20 13 59 30.0000000  0 10G 2G 4G 5G13G17G20G23G24G25G30
  -2483151.18748  -1888525.97047  21061500.9064   21061501.5634
       997.4384
   2242022.01848   1720871.81547  20557925.3444   20557927.6764
     -1708.0784
   5225923.82046   3994778.54846  23607989.2734   23607993.7974
     -3341.4534
  -3243896.87247  -2473387.21546  22369452.5944   22369454.5044
      1394.2504
   8935014.15743   6815968.80445  24756128.3834   24756132.3444
     -4992.4844
   8138465.78345   6210986.22445  24170148.1564   24170152.3524
     -4646.4694
    768725.43047    598833.70446  22056926.1644   22056925.8364
     -1003.2344
   6370278.15347   4866809.80046  22370314.3834   22370318.2154
     -3778.3444
   2131115.23746   1636008.69746  24299599.5704   24299603.5434
     -1664.1094
   1384487.86946   1068932.81546  22952722.4224   22952724.4494
     -1353.8754
 06  4 20 14  0  0.0000000  0 10G 2G 4G 5G13G17G20G23G24G25G30
  -2512854.88048  -1911671.71847  21055848.3594   21055848.8984
       982.9534
   2293508.23548   1760990.94247  20567722.7894   20567724.9104
     -1724.1724
   5326379.94746   4073056.11946  23627105.9534   23627109.6564
     -3355.4694
  -3285484.77947  -2505793.37746  22361538.4384   22361540.2424
      1378.4384
   9084814.94443   6932696.58945  24784634.6094   24784637.5744
     -4994.0164
   8277931.47545   6319660.68945  24196686.4144   24196690.5274
     -4651.0624
    799128.73747    622524.58246  22062711.4224   22062711.0234
     -1023.5004
   6483756.85947   4955234.72746  22391909.0084   22391912.8634
     -3786.7344
   2181292.51946   1675107.78546  24309146.4384   24309150.8794
     -1680.8754
   1425410.48046   1100820.66046  22960509.2974   22960511.1484
     -1374.0474
 06  4 20 14  0 30.0000000  0 10G 2G 4G 5G13G17G20G23G24G25G30
  -2542120.59748  -1934476.16247  21050279.5474   21050280.1214
       968.0314
   2345480.67048   1801488.93347  20577612.8204   20577614.9884
     -1740.6874
   5427257.27446   4151661.74246  23646301.8134   23646305.5634
     -3369.7344
  -3326594.66647  -2537827.04346  22353715.8204   22353717.6254
      1362.1724
   9234662.95243   7049461.18545  24813149.7034   24813154.7664
     -4995.8594
   8417536.54645   6428443.79845  24223252.9774   24223256.7734
     -4655.9534
    830142.13247    646690.85246  22068613.0164   22068612.6414
     -1044.1254
   6597489.34747   5043857.39946  22413551.7344   22413555.6604
     -3795.4694
   2231973.29646   1714599.34246  24318789.7114   24318794.6454
     -1697.9064
   1466942.69747   1133183.18946  22968413.5234   22968416.1254
     -1394.7664
 06  4 20 14  1  0.0000000  0 10G 2G 4G 5G13G17G20G23G24G25G30
  -2570947.30948  -1956938.55747  21044793.7664   21044794.3284
       953.6094
   2397938.44748   1842365.11647  20587595.0474   20587597.2624
     -1756.6094
   5528552.98746   4230593.41746  23665577.7424   23665582.2664
     -3383.4224
  -3367224.59347  -2569486.71846  22345983.8754   22345985.4804
      1346.3444
   9384555.44742   7166260.40145  24841673.2344   24841677.0554
     -4997.0784
   8557277.95845   6537333.11345  24249845.7734   24249849.1604
     -4660.2504
    861765.13347    671332.13346  22074630.5634   22074630.4344
     -1064.2034
   6711473.78847   5132676.40546  22435241.9614   22435246.1094
     -3803.5944
   2283156.30746   1754482.28146  24328529.3984   24328533.8754
     -1714.4224
   1509084.18147   1166020.63346  22976432.6724   22976435.2624
     -1414.7814
 06  4 20 14  1 30.0000000  0  9G 2G 4G 5G13G20G23G24G25G30
  -2599335.53648  -1979059.26547  21039391.7734   21039392.3364
       938.8444
   2450878.62548   1883617.18747  20597669.3054   20597671.8244
     -1772.8124
   5630262.10646   4309847.19746  23684932.6414   23684936.7664
     -3397.2814
  -3407374.34647  -2600772.23146  22338343.8444   22338345.5204
      1330.1884
   8697151.29545   6646325.20645  24276462.1724   24276466.9414
     -4664.7194
    893995.27847    696446.50546  22080764.1094   22080763.6764
     -1084.5784
   6825706.24947   5221688.67346  22456979.5314   22456983.5634
     -3811.9534
   2334838.21646   1794753.92245  24338364.5234   24338368.6954
     -1731.1094
   1551832.08847   1199330.77146  22984567.5784   22984570.3324
     -1435.1414
 06  4 20 14  2  0.0000000  0  9G 2G 4G 5G13G20G23G24G25G30
  -2627280.78448  -2000834.80047  21034073.8914   21034074.3834
       924.3444
   2504303.26048   1925246.77347  20607835.7114   20607838.2664
     -1788.6564
   5732384.71146   4389423.19846  23704366.7344   23704369.8164
     -3410.7194
  -3447039.16847  -2631679.86846  22330795.9844   22330797.4264
      1314.2814
   8837156.93945   6755420.42145  24303103.1254   24303106.7814
     -4668.7974
    926835.37147    722036.16346  22087013.4224   22087012.8954
     -1104.5944
   6940187.57047   5310894.85246  22478764.6024   22478768.5634
     -3819.9374
   2387021.00646   1835415.79045  24348295.3834   24348298.0664
     -1747.5314
   1595188.24746   1233114.66446  22992817.4534   22992820.1604
     -1455.1724
 06  4 20 14  2 30.0000000  0  9G 2G 4G 5G13G20G23G24G25G30
  -2654785.72348  -2022267.20447  21028840.1414   21028840.6804
       909.6254
   2558207.19748   1967249.81647  20618093.0004   20618095.5434
     -1804.6564
   5834913.74446   4469315.91446  23723876.7344   23723880.6484
     -3424.2344
  -3486220.71347  -2662210.93846  22323339.5474   22323341.4574
      1298.1254
   8977288.73245   6864613.92345  24329770.9064   24329775.0314
     -4672.9694
    960280.72647    748097.46546  22093378.1414   22093377.6254
     -1124.7814
   7054911.79747   5400290.31346  22500596.7734   22500600.8284
     -3828.0164
   2439699.42146   1876463.89345  24358319.3364   24358324.0474
     -1764.0624
   1639147.69846   1267368.82346  23001182.5864   23001185.8094
     -1475.2194
 06  4 20 14  3  0.0000000  0  9G 2G 4G 5G13G20G23G24G25G30
  -2681843.37548  -2043351.08647  21023690.8054   21023691.4964
       894.4224
   2612595.08248   2009629.96247  20628442.7734   20628445.4104
     -1821.0164
   5937852.01246   4549527.54446  23743465.4384   23743468.8714
     -3438.0944
  -3524911.33747  -2692359.46546  22315977.2814   22315979.2384
      1281.4534
   9117549.11245   6973907.60745  24356462.2194   24356466.2154
     -4677.5004
    994336.67347    774634.53546  22099858.4304   22099857.7854
     -1145.3914
   7169882.86947   5489878.12646  22522474.4694   22522478.3364
     -3836.5004
   2492878.23046   1917901.91146  24368438.4454   24368442.3594
     -1780.9534
   1683715.25946   1302096.87746  23009662.9614   23009665.9494
     -1495.7194
 06  4 20 14  3 30.0000000  0  9G 2G 4G 5G13G20G23G24G25G30
  -2708455.31848  -2064087.66747  21018626.9614   21018627.5474
       879.7504
   2667463.29348   2052384.40047  20638884.0314   20638886.6804
     -1836.7814
   6041193.70546   4630053.58746  23763129.4454   23763134.0164
     -3451.2664
  -3563111.64947  -2722125.94046  22308707.7344   22308709.6454
      1265.2974
   9257932.87145   7083297.46845  24383174.6724   24383179.4534
     -4681.3594
   1028999.74547    801644.70246  22106454.6414   22106454.3134
     -1165.4064
   7285096.21247   5579654.71046  22544398.9614   22544402.9224
     -3844.3124
   2546553.46445   1959726.74845  24378651.9224   24378656.1414
     -1797.2974
   1728886.01946   1337294.53946  23018259.3444   23018262.6254
     -1515.6874
 06  4 20 14  4  0.0000000  0  9G 2G 4G 5G13G20G23G24G25G30
  -2734622.17948  -2084477.42747  21013647.6644   21013647.9804
       864.7034
   2722808.37648   2095510.43147  20649415.8524   20649418.2774
     -1852.8594
   6144933.05446   4710889.32746  23782871.3914   23782874.9654
     -3464.6874
  -3600821.97447  -2751510.58846  22301532.1414   22301534.0864
      1248.7194
   9398434.87245   7192779.47345  24409910.4924   24409914.3594
     -4685.4534
   1064267.30947    829125.89446  22113165.9064   22113165.7544
     -1185.7504
   7400547.20347   5669616.48746  22566368.2424   22566372.1094
     -3852.4064
   2600721.56846   2001935.68245  24388960.2584   24388964.7704
     -1813.9064
   1774658.68146   1372961.91446  23026969.2974   23026972.0984
     -1535.8124
 06  4 20 14  4 30.0000000  0  9G 2G 4G 5G13G20G23G24G25G30
  -2760338.68948  -2104516.27147  21008753.8984   21008754.2854
       849.7034
   2778633.48748   2139010.49347  20660039.0314   20660041.3524
     -1868.8284
   6249071.56446   4792036.12646  23802687.7194   23802690.9534
     -3477.9064
  -3638036.12447  -2780508.61446  22294450.2814   22294451.9804
      1232.1884
   9539057.26145   7302355.26545  24436672.3914   24436676.7154
     -4689.3754
   1100142.72247    857080.74546  22119992.8914   22119992.9614
     -1205.9694
   7516238.12647   5759765.23046  22588384.2504   22588387.8134
     -3860.3284
   2655385.19846   2044530.69345  24399362.8284   24399366.3094
     -1830.3594
   1821034.33846   1409098.67446  23035794.2274   23035796.9694
     -1555.9064
 06  4 20 14  5  0.0000000  0  9G 2G 4G 5G13G20G23G24G25G30
  -2785605.35648  -2124204.58247  21003945.8284   21003946.1214
       834.7194
   2834936.00948   2182882.58247  20670752.9844   20670755.1884
     -1884.6724
   6353604.56246   4873490.39846  23822579.9694   23822584.6564
     -3490.9534
  -3674754.02547  -2809119.95446  22287463.1024   22287464.7424
      1215.6564
   9679795.07345   7412021.00645  24463454.0004   24463457.3524
     -4693.1254
   1136624.29547    885507.92347  22126935.1644   22126935.0234
     -1226.1094
   7632165.34147   5850098.07946  22610444.3134   22610448.0514
     -3868.1414
   2710541.87046   2087509.90346  24409859.6564   24409863.7234
     -1846.7194
   1868010.39546   1445703.30746  23044733.2424   23044736.9454
     -1575.7974
 06  4 20 14  5 30.0000000  0  9G 2G 4G 5G13G20G23G24G25G30
  -2810418.42648  -2143539.44447  20999223.8444   20999224.3594
       819.5164
   2891716.70748   2227127.27047  20681558.3284   20681560.6374
     -1900.6724
   6458530.91446   4955251.17946  23842546.7504   23842551.5314
     -3504.0944
  -3710971.57947  -2837341.41646  22280571.0234   22280572.6644
      1198.8594
   9820648.49945   7521776.82345  24490256.5394   24490260.4534
     -4697.0164
   1173712.47447    914407.78647  22133992.6564   22133992.3404
     -1246.4064
   7748329.11347   5940615.26046  22632549.2194   22632553.1914
     -3876.0624
   2766192.04846   2130873.57845  24420448.6334   24420453.7424
     -1863.2504
   1915589.09246   1482777.65946  23053787.1414   23053789.9414
     -1595.9844
 06  4 20 14  6  0.0000000  0  9G 2G 4G 5G13G20G23G24G25G30
  -2834774.41748  -2162518.13547  20994589.1024   20994589.6054
       804.2664
   2948976.71848   2271745.44947  20692454.2584   20692456.6724
     -1916.6094
   6563849.69746   5037317.73046  23862588.8054   23862592.7894
     -3517.0784
  -3746684.72947  -2865169.83446  22273775.0554   22273777.3874
      1182.0314
   9961616.78645   7631622.18845  24517082.7424   24517086.3634
     -4700.7974
   1211409.22447    943781.84646  22141166.1954   22141165.9734
     -1266.6874
   7864729.50347   6031316.81646  22654699.7344   22654703.6024
     -3883.9064
   2822336.94046   2174622.90145  24431132.6254   24431136.5044
     -1879.7034
   1963770.33246   1520321.47946  23062955.9534   23062958.6604
     -1616.0164
 06  4 20 14  6 30.0000000  0  9G 2G 4G 5G13G20G23G24G25G30
  -2858669.46148  -2181137.65447  20990042.1644   20990042.5274
       788.7194
   3006717.90448   2316738.56747  20703442.2194   20703444.7974
     -1932.7974
   6669560.45146   5119689.63346  23882705.2034   23882710.1374
     -3530.2504
  -3781888.55247  -2892601.37646  22267075.7974   22267077.8834
      1164.8594
  10102700.41445   7741557.38845  24543930.5554   24543933.1914
     -4704.7664
   1249716.83447    973631.89946  22148455.8364   22148455.4144
     -1287.1874
   7981367.39947   6122203.44946  22676895.0084   22676898.9574
     -3891.9374
   2878977.79146   2218758.50345  24441911.2194   24441915.3204
     -1896.4064
   2012556.10446   1558336.47646  23072239.4064   23072242.8754
     -1636.3124
 06  4 20 14  7  0.0000000  0  9G 2G 4G 5G13G20G23G24G25G30
  -2882103.77248  -2199398.16347  20985582.7974   20985583.3364
       773.3284
   3064938.03748   2362104.89047  20714521.0864   20714523.6994
     -1948.7504
   6775659.28346   5202364.01745  23902894.8134   23902899.3714
     -3543.1564
  -3816582.46747  -2919635.58646  22260473.4844   22260475.4774
      1147.8444
  10243895.06645   7851579.10145  24570797.8594   24570802.8054
     -4708.4224
   1288633.28347   1003956.38846  22155861.3984   22155861.1054
     -1307.4694
   8098239.74547   6213272.77346  22699135.6174   22699139.8244
     -3899.7344
   2936112.40746   2263278.99446  24452783.5394   24452787.4654
     -1912.7974
   2061943.77146   1596820.28946  23081637.7734   23081640.8914
     -1656.4224
 06  4 20 14  7 30.0000000  0  9G 2G 4G 5G13G20G23G24G25G30
  -2905069.59748  -2217293.61847  20981212.5234   20981212.9454
       757.6414
   3123641.74648   2407848.02547  20725692.0084   20725694.6094
     -1964.9064
   6882148.95845   5285342.96545  23923158.9454   23923163.2814
     -3556.2034
  -3850758.47447  -2946266.23546  22253970.4614   22253972.3834
      1130.4844
  10385204.72045   7961690.45745  24597688.3594   24597694.3484
     -4712.2814
   1328163.75847   1034759.33046  22163383.7274   22163383.5984
     -1327.9844
   8215350.64047   6304527.97646  22721420.7974   22721425.0164
     -3907.7194
   2993745.32746   2308187.75245  24463750.9614   24463756.5044
     -1929.4534
   2111938.70746   1635777.66946  23091150.5784   23091154.1054
     -1676.6414
 06  4 20 14  8  0.0000000  0  9G 2G 4G 5G13G20G23G24G25G30
  -2927573.18948  -2234828.88947  20976930.1564   20976930.7074
       742.4064
   3182820.89448   2453961.65147  20736953.3364   20736955.9264
     -1980.5314
   6989019.18646   5368618.49845  23943495.1724   23943498.8284
     -3568.6094
  -3884421.85247  -2972497.43946  22247564.8204   22247566.4024
      1113.5634
  10526619.66645   8071883.84145  24624599.5234   24624603.7774
     -4715.5314
   1368300.39047   1066034.59446  22171021.5004   22171021.3244
     -1347.9694
   8332691.09247   6395962.05346  22743749.7424   22743753.9024
     -3915.1414
   3051867.75646   2353477.84746  24474810.9774   24474814.3754
     -1945.5784
   2162531.34346   1675200.33546  23100778.2274   23100781.2274
     -1696.4064
 06  4 20 14  8 30.0000000  0  9G 2G 4G 5G13G20G23G24G25G30
  -2949611.88848  -2252001.91247  20972736.7894   20972737.2344
       726.8284
   3242475.49748   2500445.73447  20748305.4614   20748307.9104
     -1996.4224
   7096268.15945   5452189.17245  23963904.8524   23963908.1564
     -3581.2814
  -3917569.44347  -2998326.72746  22241256.8284   22241258.7624
      1096.2664
  10668138.64745   8182158.28845  24651530.5784   24651535.6054
     -4719.0164
   1409043.71247   1097782.61246  22178774.7664   22178774.7194
     -1368.2504
   8450260.16147   6487574.26946  22766122.5084   22766126.7034
     -3922.7974
   3110480.19246   2399150.03045  24485964.8984   24485968.9654
     -1961.9224
   2213722.53446   1715089.86346  23110519.9614   23110523.6764
     -1716.3124
 06  4 20 14  9  0.0000000  0  9G 2G 4G 5G13G20G23G24G25G30
  -2971184.26348  -2268811.57347  20968631.3984   20968631.8554
       711.2504
   3302604.43648   2547299.43947  20759747.5084   20759750.0514
     -2012.2344
   7203892.46645   5536052.24945  23984384.5084   23984388.7384
     -3593.7664
  -3950199.76347  -3023752.95946  22235047.2194   22235048.9414
      1078.9844
  10809758.85345   8292511.58045  24678478.8284   24678483.1054
     -4722.3594
   1450392.97047   1130002.78846  22186643.5314   22186643.5664
     -1388.4374
   8568056.11747   6579363.28246  22788538.4774   22788542.4614
     -3930.3284
   3169580.60346   2445202.23145  24497210.8524   24497215.0704
     -1978.1724
   2265509.90646   1755443.49446  23120375.4454   23120378.5514
     -1736.2504
 06  4 20 14  9 30.0000000  0  9G 2G 4G 5G13G20G23G24G25G30
  -2992282.04448  -2285251.40747  20964616.6334   20964617.0554
       695.2814
   3363213.71748   2594527.43747  20771281.2664   20771283.6564
     -2028.3754
   7311896.30045   5620211.07445  24004937.7504   24004942.3674
     -3606.4844
  -3982303.64147  -3048768.97946  22228937.8444   22228939.8484
      1061.2664
  10951484.92245   8402947.41645  24705447.9924   24705452.0594
     -4725.9694
   1492354.30147   1162699.91047  22194628.2664   22194627.9264
     -1408.9694
   8686083.90347   6671332.94446  22810998.5474   22811002.4614
     -3938.1564
   3229174.96946   2491639.36445  24508552.0704   24508556.9454
     -1994.7504
   2317900.54046   1796267.53646  23130345.2274   23130349.1644
     -1756.4064
 06  4 20 14 10  0.0000000  0  9G 2G 4G 5G13G20G23G24G25G30
  -3012907.40348  -2301323.12747  20960691.8754   20960692.2154
       679.8284
   3424298.68048   2642126.09647  20782905.2114   20782907.4384
     -2043.8594
   7420273.23345   5704660.67645  24025560.3364   24025564.7424
     -3618.5314
  -4013882.35047  -3073375.77046  22222929.0084   22222930.6604
      1044.0784
  11093310.87545   8513461.11445  24732437.0784   24732441.4264
     -4728.9534
   1534923.60947   1195870.77646  22202728.7344   22202728.5124
     -1428.8914
   8804338.22147   6763479.12846  22833501.5394   22833505.5354
     -3945.3444
   3289258.54346   2538457.74345  24519985.6644   24519989.0744
     -2010.7194
   2370888.48346   1837556.63946  23140428.1954   23140430.8794
     -1776.0164
 06  4 20 14 10 30.0000000  0  9G 2G 4G 5G13G20G23G24G25G30
  -3033061.56248  -2317027.68147  20956856.5004   20956856.8054
       663.8914
   3485855.58148   2690092.48947  20794619.1094   20794621.4774
     -2059.7974
   7529017.34945   5789396.31345  24046254.2734   24046257.9064
     -3630.9534
  -4044937.07847  -3097574.25546  22217019.6414   22217021.2464
      1026.3444
  11235231.77745   8624048.68945  24759444.2194   24759449.9844
     -4732.2974
   1578097.44447   1229512.69846  22210944.6724   22210944.6134
     -1449.2664
   8922814.78947   6855798.47546  22856046.9064   22856050.8674
     -3952.9534
   3349827.33746   2585654.24145  24531510.3594   24531513.4064
     -2027.1094
   2424470.68346   1879309.07046  23150623.5394   23150626.7624
     -1796.0164
 06  4 20 14 11  0.0010000  0  9G 2G 4G 5G13G20G23G24G25G30
  -3052739.05748  -2332360.81547  20953111.7554   20953112.2714
       647.9694
   3547890.29848   2738431.20947  20806424.0214   20806426.4114
     -2075.6254
   7638134.21845   5874422.43145  24067019.4894   24067023.0404
     -3643.1724
  -4075461.82147  -3121359.77746  22211210.7474   22211212.6814
      1008.6414
  11377255.01745   8734716.05745  24786470.6064   24786475.0954
     -4735.4844
   1621881.46947   1263630.10546  22219276.5134   22219276.6884
     -1469.5004
   9041520.51347   6948296.39446  22878635.9194   22878639.8924
     -3960.3914
   3410886.94245   2633233.15145  24543129.3024   24543134.2474
     -2043.3284
   2478652.17146   1921528.41346  23160935.4194   23160939.0054
     -1815.9064
 06  4 20 14 11 30.0010000  0  9G 2G 4G 5G13G20G23G24G25G30
  -3071938.52848  -2347321.48647  20949458.5134   20949458.9234
       631.8134
   3610396.54948   2787137.35747  20818318.4664   20818320.9384
     -2091.6414
   7747612.11045   5959729.77445  24087852.0054   24087855.9894
     -3655.5004
  -4105453.87447  -3144730.21246  22205503.6774   22205505.4114
       990.6564
  11519367.32544   8845452.82845  24813511.5604   24813518.4894
     -4738.8124
   1666270.36547   1298218.81147  22227723.4274   22227723.5914
     -1489.9224
   9160444.42647   7040964.34346  22901267.0054   22901271.0604
     -3968.0004
   3472430.50846   2681189.09346  24554842.4114   24554846.6884
     -2059.7344
   2533426.64647   1964209.79846  23171358.6304   23171361.9814
     -1835.9374
 06  4 20 14 12  0.0010000  0  9G 2G 4G 5G13G20G23G24G25G30
  -3090653.18748  -2361904.36147  20945897.4114   20945897.6924
       615.6564
   3673381.30248   2836216.37447  20830303.9424   20830306.2514
     -2107.5314
   7857458.01245   6045324.01445  24108753.7714   24108756.8644
     -3667.6724
  -4134906.57147  -3167680.36846  22199898.8414   22199900.6464
       972.6724
  11661577.12445   8956265.58245  24840574.2784   24840579.7744
     -4741.9534
   1711271.03247   1333284.25247  22236287.1384   22236287.2674
     -1510.2664
   9279594.52247   7133808.52646  22923939.6694   22923943.4194
     -3975.5004
   3534464.71846   2729527.34545  24566646.2784   24566650.9784
     -2076.0004
   2588800.82746   2007358.63546  23181895.4274   23181898.6734
     -1855.8444
 06  4 20 14 12 30.0010000  0  9G 2G 4G 5G13G20G23G24G25G30
  -3108881.45448  -2376108.22847  20942428.3564   20942428.7554
       599.5164
   3736843.52948   2885667.44447  20842380.2634   20842382.7944
     -2123.3284
   7967668.86845   6131202.55345  24129727.5914   24129731.5054
     -3679.7194
  -4163817.49147  -3190208.35646  22194396.8564   22194398.7674
       954.6884
  11803882.41845   9067152.75745  24867654.3494   24867660.5954
     -4745.0474
   1756883.00147   1368826.01847  22244966.7244   22244966.8174
     -1530.5474
   9398969.50647   7226827.96346  22946656.5134   22946660.6264
     -3982.8594
   3596988.86746   2778247.43745  24578544.3104   24578548.3644
     -2092.2504
   2644773.46347   2050973.72646  23192547.0444   23192549.8564
     -1875.6564
 06  4 20 14 13  0.0010000  0  9G 2G 4G 5G13G20G23G24G25G30
  -3126626.21748  -2389935.33547  20939051.6774   20939052.2634
       583.4694
   3800778.41248   2935486.82147  20854546.7164   20854549.5054
     -2138.9694
   8078237.91745   6217360.19845  24150768.5914   24150772.9384
     -3691.4844
  -4192188.75547  -3212315.84146  22188998.6694   22189000.4504
       936.7504
  11946276.81045   9178109.33945  24894751.0994   24894755.8804
     -4747.8754
   1803101.50347   1404840.41446  22253761.3804   22253761.5914
     -1550.6564
   9518563.67147   7320018.17946  22969414.4114   22969418.2904
     -3990.0314
   3659997.56246   2827345.15345  24590534.3494   24590539.2824
     -2108.2814
   2701338.82047   2095050.41146  23203311.4504   23203314.4504
     -1895.2974
 06  4 20 14 13 30.0010000  0  9G 2G 4G 5G13G20G23G24G25G30
  -3143886.05648  -2403384.58147  20935767.3884   20935767.9854
       567.1414
   3865184.73348   2985673.54647  20866803.0834   20866805.8024
     -2154.7974
   8189161.78145   6303794.27745  24171877.0604   24171881.7594
     -3703.4064
  -4220018.66647  -3234001.49246  22183702.8644   22183704.5994
       918.5634
  12088758.01445   9289133.57745  24921865.1304   24921869.4664
     -4750.8754
   1849925.48247   1441326.60646  22262672.0214   22262672.0794
     -1570.9534
   9638374.87847   7413377.50946  22992214.2864   22992218.3884
     -3997.3754
   3723489.17046   2876819.15145  24602617.2864   24602621.0834
     -2124.4534
   2758496.48846   2139589.03846  23214187.8724   23214190.6614
     -1915.1724
 06  4 20 14 14  0.0010000  0  9G 2G 4G 5G13G20G23G24G25G30
  -3160657.71148  -2416453.41147  20932575.9814   20932576.3334
       550.8754
   3930063.30048   3036228.26047  20879148.9504   20879151.5634
     -2170.5004
   8300439.59045   6390504.23845  24193051.6924   24193055.8884
     -3715.1414
  -4247303.63547  -3255262.50546  22178510.8104   22178512.4034
       900.3594
  12231325.83045   9400225.27145  24948995.1614   24949000.3884
     -4753.6874
   1897356.06947   1478285.48246  22271697.8174   22271697.5014
     -1591.1414
   9758403.43847   7506906.21146  23015054.4354   23015058.5604
     -4004.5784
   3787464.23546   2926669.82645  24614790.5754   24614794.5244
     -2140.5784
   2816246.14246   2184588.66846  23225176.0284   23225178.5714
     -1934.8914
 06  4 20 14 14 30.0010000  0  9G 2G 4G 5G13G20G23G24G25G30
  -3176937.94948  -2429139.32647  20929478.0524   20929478.3454
       534.4534
   3995414.65648   3087151.38347  20891585.0524   20891587.4424
     -2186.2664
   8412070.07245   6477488.99445  24214291.7714   24214296.4704
     -3726.8754
  -4274039.81047  -3276095.89246  22173422.9114   22173424.5284
       882.0164
  12373979.54745   9511383.92645  24976141.1534   24976147.7984
     -4756.5314
   1945394.24447   1515717.78446  22280839.3174   22280838.8724
     -1611.4224
   9878649.48547   7600604.37846  23037936.8644   23037941.0834
     -4011.8124
   3851923.13746   2976897.52345  24627056.7244   24627061.3174
     -2156.7194
   2874588.64446   2230050.54546  23236279.5214   23236281.9934
     -1954.5944
 06  4 20 14 15  0.0010000  0  9G 2G 4G 5G13G20G23G24G25G30
  -3192725.30648  -2441441.16247  20926473.7634   20926474.2314
       517.8444
   4061238.12548   3138442.39047  20904111.1924   20904113.6534
     -2202.1724
   8524050.25245   6564746.17945  24235603.2864   24235608.0794
     -3738.6414
  -4300225.24447  -3296500.13846  22168440.1464   22168441.7164
       863.4694
  12516716.94444   9622607.72845  25003302.5754   25003305.9154
     -4759.4694
   1994039.09947   1553622.83846  22290095.9354   22290095.9354
     -1631.7664
   9999111.32047   7694470.69146  23060859.6694   23060863.9354
     -4019.1414
   3916864.72545   3027501.32045  24639414.9974   24639418.5954
     -2172.9224
   2933521.77346   2275972.16946  23247493.8564   23247496.7634
     -1974.4844
 06  4 20 14 15 30.0010000  0  9G 2G 4G 5G13G20G23G24G25G30
  -3208017.81548  -2453357.39147  20923563.7474   20923564.2864
       501.4384
   4127532.99548   3190100.71547  20916726.3804   20916728.7824
     -2217.7344
   8636377.69145   6652274.01445  24256978.4664   24256982.2044
     -3750.0474
  -4325857.45047  -3316473.28346  22163562.0054   22163563.8214
       845.1094
  12659536.54144   9733895.68945  25030481.4584   25030483.4624
     -4762.0314
   2043290.32347   1592000.38146  22299468.1854   22299468.2084
     -1651.8594
  10119787.63846   7788504.12446  23083823.1224   23083827.1774
     -4026.1564
   3982288.08746   3078480.58645  24651865.0524   24651869.4464
     -2188.8444
   2993045.57846   2322354.42746  23258821.4504   23258823.9704
     -1994.0004
 06  4 20 14 16  0.0010000  0  9G 2G 4G 5G13G20G23G24G25G30
  -3222815.09848  -2464887.73847  20920748.2244   20920748.6224
       484.8284
   4194297.55748   3242125.03147  20929431.2864   20929433.7474
     -2233.4374
   8749048.98945   6740069.81245  24278417.0364   24278421.7474
     -3761.5474
  -4350935.45347  -3336014.59346  22158789.9114   22158791.8214
       826.5314
  12802435.67544   9845245.59945  25057671.9974   25057675.9464
     -4764.7664
   2093146.54747   1630849.36446  22308955.8414   22308955.8414
     -1672.0784
  10240676.21346   7882702.96646  23106827.8884   23106831.6614
     -4033.2664
   4048191.46346   3129833.87145  24664405.4114   24664408.9624
     -2204.8754
   3053157.86846   2369195.27946  23270259.8174   23270262.4784
     -2013.6874
 06  4 20 14 16 30.0010000  0  9G 2G 4G 5G13G20G23G24G25G30
  -3237112.30748  -2476028.43247  20918027.1774   20918027.6694
       468.1254
   4261534.02948   3294517.06847  20942226.0524   20942228.3964
     -2249.1724
   8862064.12045   6828133.47645  24299923.6304   24299927.3454
     -3772.9844
  -4375454.04847  -3355119.98946  22154124.1924   22154125.8804
       807.8284
  12945415.08843   9956658.02445  25084879.8964   25084884.5244
     -4767.4224
   2143609.69247   1670171.26346  22318558.2714   22318558.2244
     -1692.3284
  10361778.54147   7977068.36346  23129873.4504   23129877.3174
     -4040.4064
   4114576.18445   3181562.17345  24677037.5134   24677042.1424
     -2220.9534
   3113860.34646   2416495.96346  23281810.8804   23281813.2594
     -2033.3444
 06  4 20 14 17  0.0010000  0  9G10G 2G 4G 5G13G23G24G25G30
    -69258.27643                  24852810.0284
      3010.4224
  -3250905.98248  -2486776.74347  20915402.1464   20915402.9194
       451.4844
   4329243.68148   3347277.82447  20955110.5834   20955113.0564
     -2264.7344
   8975422.65145   6916464.73945  24321496.6924   24321500.5714
     -3784.1724
  -4399409.24747  -3373786.38346  22149565.7314   22149567.7824
       789.2194
   2194681.58147   1709967.50146  22328277.2394   22328277.2864
     -1712.4224
  10483095.19446   8071600.76646  23152958.8494   23152962.5284
     -4047.3444
   4181443.53146   3233666.57845  24689762.5054   24689766.1034
     -2236.8124
   3175153.86946   2464257.28546  23293474.4584   23293477.4584
     -2052.7974
 06  4 20 14 17 30.0010000  0 10G10G 2G 4G 5G13G 6G23G24G25G30
   -159532.48743                  24835632.2944
      3007.9064
  -3264198.47548  -2497134.53347  20912872.6224   20912873.1854
       434.7504
   4397421.44748   3400403.34847  20968084.2554   20968086.9034
     -2280.3444
   9089117.30645   7005057.96645  24343133.1774   24343137.8884
     -3795.3594
  -4422803.12847  -3392015.38246  22145114.2314   22145116.1184
       770.4534
                                  25027142.1534
      2379.3754
   2246357.05647   1750234.06246  22338110.9354   22338110.7004
     -1732.5314
  10604620.60047   8166295.84146  23176084.4974   23176088.2714
     -4054.2814
   4248787.99146   3286142.81345  24702577.3174   24702579.9194
     -2252.7194
   3237032.07146   2512473.54046  23305250.2634   23305252.4194
     -2072.3754
 06  4 20 14 18  0.0010000  0 10G10G 2G 4G 5G13G 6G23G24G25G30
   -249727.55343    -16391.42345  24818469.6924   24818477.2554
      3004.9384
  -3276985.91848  -2507098.77247  20910439.4034   20910440.0364
       417.6094
   4466069.13648   3453895.04447  20981147.4504   20981150.0874
     -2296.2664
   9203148.23245   7093913.18845  24364833.0444   24364837.2864
     -3806.7974
  -4445631.15247  -3409803.44646  22140770.0214   22140771.7554
       751.2664
    -68911.42645                  25013575.8724
      2373.3134
   2298638.34447   1790972.69846  22348059.6534   22348059.3254
     -1753.0004
  10726356.11946   8261154.62146  23199249.7634   23199253.6774
     -4061.5474
   4316611.06745   3338991.96045  24715484.2084   24715488.1104
     -2268.9224
   3299498.02546   2561148.54646  23317136.7944   23317139.7354
     -2092.1874
 06  4 20 14 18 30.0010000  0 10G10G 2G 4G 5G13G 6G23G24G25G30
   -339840.03643    -86608.92445  24801320.6384   24801326.0874
      3002.3594
  -3289265.55248  -2516667.31947  20908102.6854   20908103.4464
       400.8444
   4535186.81048   3507752.97247  20994300.2474   20994303.1064
     -2311.7504
   9317513.55345   7183028.94945  24386594.6534   24386598.8024
     -3817.7034
  -4467890.11047  -3427148.08746  22136534.1144   22136535.6144
       732.4694
   -140028.91645     -1843.48945  25000042.1384   25000045.2204
      2367.6564
   2351525.14747   1832183.16446  22358123.4974   22358123.4504
     -1772.9844
  10848300.97946   8356176.53346  23222455.6144   23222459.6104
     -4068.2974
   4384912.47745   3392213.82045  24728481.4744   24728486.9704
     -2284.6874
   3362550.51546   2610280.49546  23329135.7394   23329138.7634
     -2111.4534
 06  4 20 14 19  0.0010000  0 10G10G 2G 4G 5G13G 6G23G24G25G30
   -429870.80543   -156762.64145  24784188.1384   24784190.3174
      2999.4384
  -3301039.11448  -2525841.52347  20905862.2164   20905862.8844
       383.7974
   4604770.59248   3561974.09547  21007541.7164   21007544.4354
     -2327.4224
   9432207.49345   7272400.79045  24408420.2084   24408424.6494
     -3828.7664
  -4489581.21247  -3444050.24146  22132406.5284   22132408.2744
       713.3594
   -210971.42145    -57123.42045  24986542.7554   24986546.6344
      2361.5944
   2405013.99647   1873862.75246  22368301.7164   22368301.8214
     -1793.1874
  10970451.12346   8451358.41846  23245699.3884   23245703.9114
     -4075.2814
   4453687.94745   3445805.05545  24741569.2084   24741573.0994
     -2300.6094
   3426184.95646   2659865.69246  23341244.0604   23341247.4114
     -2131.0004
 06  4 20 14 19 30.0010000  0 10G10G 2G 4G 5G13G 6G23G24G25G30
   -519811.83243   -226846.50745  24767072.8964   24767076.8454
      2996.4384
  -3312299.01848  -2534615.48147  20903719.6534   20903720.1464
       366.6724
   4674825.31848   3616562.18447  21020872.4894   21020875.3374
     -2343.0784
   9547233.08545   7362031.07945  24430308.4034   24430311.3924
     -3839.7664
  -4510696.75548  -3460503.90646  22128388.5054   22128390.2164
       694.1564
   -281730.49945   -112260.27245  24973077.2164   24973083.0284
      2355.4694
   2459109.86547   1916015.34746  22378596.1464   22378596.3334
     -1813.3754
  11092810.80646   8546703.56946  23268983.6854   23268988.0324
     -4082.2034
   4522942.13245   3499769.31445  24754747.7164   24754752.3454
     -2316.5164
   3490405.44446   2709907.22746  23353464.6384   23353467.6854
     -2150.5474
 06  4 20 14 20  0.0010000  0 10G10G 2G 4G 5G13G 6G23G24G25G30
   -609669.87643   -296865.75845  24749973.6774   24749980.6184
      2994.0634
  -3323052.56748  -2542994.87047  20901673.2394   20901673.8494
       350.1884
   4745341.32748   3671509.71047  21034291.4274   21034294.4384
     -2358.0314
   9662578.85145   7451910.85245  24452256.5284   24452262.7044
     -3849.9694
  -4531243.32647  -3476514.21846  22124478.4584   22124480.5674
       675.5784
   -352312.79645   -167259.48145  24959645.7634   24959650.7784
      2349.9844
   2513803.09247   1958633.40546  22389004.0524   22389004.0174
     -1832.8594
  11215369.36946   8642203.69346  23292306.2634   23292310.8454
     -4088.3914
   4592664.92545   3554098.78145  24768014.5054   24768018.7124
     -2331.6724
   3555203.08746   2760399.07146  23365795.3334   23365798.6964
     -2169.2974
 06  4 20 14 20 30.0010000  0 10G10G 2G 4G 5G13G 6G23G24G25G30
   -699442.53743   -366818.37645  24732889.1924   24732894.2314
      2990.8444
  -3333298.21948  -2550978.49647  20899723.5444   20899724.1424
       332.9224
   4816318.07248   3726816.25447  21047797.6774   21047800.2784
     -2373.6724
   9778242.00645   7542037.92045  24474267.1694   24474271.5524
     -3860.8594
  -4551219.04148  -3492079.70846  22120677.3334   22120679.3844
       656.2034
   -422715.56745   -222118.80545  24946248.5134   24946254.7124
      2343.6414
   2569093.07747   2001716.48346  22399525.2634   22399525.6614
     -1853.0474
  11338126.04846   8737858.19846  23315665.9814   23315670.5874
     -4095.2974
   4662855.06045   3608792.26645  24781372.1694   24781376.4814
     -2347.5624
   3620576.08946   2811338.96746  23378235.2084   23378237.8924
     -2188.7344
 06  4 20 14 21  0.0010000  0 10G10G 2G 4G 5G13G 6G23G24G25G30
   -789116.80743   -436694.43645  24715824.6774   24715831.0874
      2987.7814
  -3343023.67148  -2558556.77347  20897872.9744   20897873.7004
       315.7974
   4887765.15748   3782489.29447  21061393.5054   21061396.3174
     -2389.0944
   9894230.68845   7632418.67745  24496340.5284   24496342.9894
     -3871.3594
  -4570611.30848  -3507190.55646  22116987.1854   22116988.8604
       636.9694
   -492925.58145   -276827.97045  24932888.7084   24932893.5134
      2337.3594
   2624989.51847   2045272.11146  22410162.0674   22410162.3254
     -1873.0164
  11461089.79946   8833674.04346  23339065.5214   23339070.1384
     -4101.9064
   4733522.47345   3663857.80145  24794819.2164   24794823.5054
     -2363.2504
   3686534.64846   2862735.76246  23390787.1774   23390789.8494
     -2208.0164
 06  4 20 14 21 30.0010000  0 10G10G 2G 4G 5G13G 6G23G24G25G30
   -878696.27343   -506496.49945  24698778.7244   24698787.2594
      2984.5004
  -3352232.87448  -2565732.77247  20896120.4114   20896120.8334
       298.4694
   4959676.26048   3838523.90747  21075078.0834   21075080.9784
     -2404.6414
  10010536.58345   7723046.60045  24518472.0754   24518474.8414
     -3882.0004
  -4589423.63548  -3521849.50046  22113407.2714   22113409.0174
       617.5004
   -562945.55845   -331388.97645  24919564.1694   24919569.2084
      2330.9534
   2681486.25447   2089295.51346  22420913.4424   22420913.7474
     -1893.1094
  11584253.77546   8929645.92246  23362502.9354   23362507.2004
     -4108.6874
   4804659.97346   3719289.59845  24808356.4034   24808360.5874
     -2378.9694
   3753069.80246                  23403447.4504
     -2227.3284
 06  4 20 14 22  0.0010000  0 10G10G 2G 4G 5G13G 6G23G24G25G30
   -968179.42944   -576223.59945  24681751.8174   24681756.0714
      2981.1254
  -3360925.29548  -2572506.07847  20894466.3884   20894466.8334
       281.0944
   5032049.59648   3894918.70347  21088850.2784   21088853.1614
     -2420.1724
  10127155.91145   7813918.73845  24540664.9354   24540669.1424
     -3892.5314
  -4607655.18448  -3536055.89546  22109938.1224   22109940.1734
       597.9844
   -632774.22145   -385800.99845  24906275.3884   24906278.8334
      2324.3754
   2738581.41747   2133785.21846  22431777.9424   22431777.8844
     -1913.1724
  11707615.83646   9025772.14946  23385978.7164   23385982.7824
     -4115.3914
   4876265.46445   3775086.09445  24821982.8174   24821986.2864
     -2394.6724
   3820180.15446     17478.79845  23416218.2864   23416222.6344
     -2246.6254
 06  4 20 14 22 30.0010000  0 10G10G 2G 4G 5G13G 6G23G24G25G30
  -1057561.86844   -645872.22345  24664742.0054   24664746.7634
      2977.7814
  -3369097.37148  -2578873.92847  20892911.3024   20892911.8534
       263.7814
   5104886.14548   3951674.44747  21102710.3174   21102713.2474
     -2435.5474
  10244087.96445   7905034.53745  24562916.3414   24562920.4664
     -3902.8594
  -4625301.96448  -3549806.62846  22106579.8254   22106581.4194
       578.5314
   -702406.53845   -440059.78945  24893024.9894   24893031.2824
      2317.8754
   2796276.14747   2178742.11246  22442756.9274   22442757.3374
     -1933.0784
  11831176.40546   9122053.05746  23409491.1614   23409495.0054
     -4121.9064
   4948339.70545   3831247.85745  24835698.3724   24835703.2244
     -2410.1874
   3887866.68746     70221.27446  23429099.8494   23429103.8804
     -2265.7664
 06  4 20 14 23  0.0010000  0 10G10G 2G 4G 5G13G 6G23G24G25G30
  -1146846.89945   -715444.90245  24647752.4894   24647758.0444
      2974.4844
  -3376753.15348  -2584839.47347  20891454.3804   20891454.8844
       246.5314
   5178179.55548   4008786.18747  21116657.5674   21116660.4974
     -2450.7664
  10361324.65045   7996387.74545  24585227.2474   24585231.3254
     -3912.9534
  -4642367.61548  -3563104.52946  22103332.4274   22103333.8454
       559.1094
   -771845.76345   -494168.21945  24879811.3564   24879815.3064
      2311.3594
   2854564.20347   2224161.34046  22453848.4424   22453848.8534
     -1952.8444
  11954928.84446   9218483.47446  23433040.3024   23433044.4154
     -4128.2974
   5020875.76146   3887769.42845  24849501.2634   24849506.1614
     -2425.5944
   3956122.40246    123407.50346  23442089.1464   23442093.0484
     -2284.6564
 06  4 20 14 23 30.0010000  0 10G10G 2G 4G 5G13G 6G23G24G25G30
  -1236030.61745   -784938.69645  24630781.4114   24630786.8724
      2971.1414
  -3383889.45248  -2590400.22147  20890096.6304   20890097.0754
       229.2664
   5251930.73348   4066254.62747  21130691.9974   21130694.8924
     -2465.9374
  10478864.65145   8087977.33045  24607593.2634   24607596.2394
     -3922.9694
  -4658848.48648  -3575946.76646  22100196.2634   22100197.8924
       539.6724
   -841087.55345   -548122.87045  24866635.8024   24866640.2904
      2304.7814
   2913445.91647   2270043.16346  22465053.6534   22465053.6774
     -1972.5314
  12078873.21146   9315063.43746  23456626.1224   23456630.3534
     -4134.5784
   5093874.12145   3944651.32345  24863391.7164   24863396.7674
     -2440.8914
   4024948.08346    177038.00946  23455185.3174   23455188.7164
     -2303.5784
 06  4 20 14 24  0.0010000  0 10G10G 2G 4G 5G13G 6G23G24G25G30
  -1325115.36445   -854355.30545  24613828.7784   24613833.9934
      2968.0164
  -3390509.44948  -2595558.66447  20888836.5754   20888836.9744
       212.2344
   5326133.99448   4124075.34247  21144812.4194   21144815.2904
     -2480.7814
  10596700.99045   8179797.80645  24630015.1304   24630019.6534
     -3932.5944
  -4674747.49848  -3588335.59746  22097170.4894   22097171.9894
       520.4534
   -910133.69545   -601925.00845  24853496.0134   24853499.5994
      2298.4694
   2972916.20247   2316383.62646  22476370.6924   22476370.7634
     -1991.9534
  12203003.53146   9411788.31546  23480247.7394   23480251.9704
     -4140.5624
   5167328.81846   4001888.66445  24877370.7244   24877373.9814
     -2455.8914
   4094336.59746    231107.16046  23468388.9974   23468391.4584
     -2322.1414
 06  4 20 14 24 30.0010000  0 10G10G 2G 4G 5G13G 6G23G24G25G30
  -1414099.07945   -923693.16845  24596896.8644   24596903.3214
      2964.4224
  -3396611.64748  -2600313.61847  20887675.4114   20887676.0444
       194.7814
   5400788.44148   4182247.63347  21159018.8724   21159021.6614
     -2495.9694
  10714830.61845   8271846.81345  24652495.6614   24652499.8924
     -3942.4844
  -4690062.82348  -3600269.61146  22094256.4974   22094257.5994
       500.7814
   -978981.85345   -655572.90045  24840394.3964   24840397.6534
      2291.7034
   3032973.82247   2363181.74246  22487799.1694   22487799.1694
     -2011.6724
  12327318.74246   9508657.26546  23503903.8564   23503907.8764
     -4146.8754
   5241238.59946   4059480.72145  24891435.4974   24891438.3214
     -2471.1874
   4164286.97946    285614.13546  23481701.1534   23481704.1304
     -2340.9694
 06  4 20 14 25  0.0010000  0 10G10G 2G 4G 5G13G 6G23G24G25G30
  -1502976.41845   -992948.22145  24579983.2084   24579987.6964
      2960.6254
  -3402191.82748  -2604661.80647  20886613.4354   20886614.0564
       177.1254
   5475896.16948   4240773.12547  21173311.3964   21173314.1034
     -2511.2664
  10833253.85145   8364124.64245  24675029.7944   24675034.8684
     -3952.4534
  -4704789.71348  -3611745.10346  22091453.6144   22091455.1854
       480.9064
  -1047626.49245   -709062.12845  24827331.9894   24827335.6224
      2284.5634
   3093620.91747   2410439.20146  22499340.1464   22499340.2284
     -2031.5474
  12451820.07946   9605671.23046  23527596.1064   23527600.2314
     -4153.2974
   5315604.83546   4117428.40345  24905586.2394   24905589.6734
     -2486.6254
   4234799.21546    340558.12145  23495119.7164   23495120.4664
     -2360.0004
 06  4 20 14 25 30.0010000  0 10G10G 2G 4G 5G13G 6G23G24G25G30
  -1591747.23145  -1062120.19745  24563090.3024   24563096.0794
      2957.2974
  -3407250.43448  -2608603.58047  20885651.1064   20885651.7744
       159.9844
   5551453.93648   4299649.30147  21187689.5214   21187692.1924
     -2526.0314
  10951965.60545   8456627.25345  24697621.9034   24697625.0564
     -3961.7664
  -4718928.54548  -3622762.37746  22088763.0054   22088764.7864
       461.5474
  -1116066.96145   -762392.27045  24814308.1464   24814310.1614
      2277.9844
   3154854.13547   2458153.37246  22510992.2244   22510992.5054
     -2050.7814
  12576504.33646   9702827.73646  23551322.1304   23551327.0874
     -4159.1094
   5390424.05846   4175728.99245  24919824.3024   24919828.7674
     -2501.3914
   4305872.44746    395940.23446  23508643.4974   23508645.6654
     -2378.3754
 06  4 20 14 26  0.0010000  0 10G10G 2G 4G 5G13G 6G23G24G25G30
  -1680409.19345  -1131207.38445  24546218.3804   24546223.6534
      2953.6884
  -3411785.96548  -2612137.77047  20884788.0914   20884788.5484
       142.5784
   5627461.04048   4358875.61747  21202153.2864   21202155.8764
     -2540.9224
  11070963.32545   8549352.65945  24720265.6304   24720269.5794
     -3971.1874
  -4732477.79948  -3633320.23746  22086185.0134   22086186.4194
       441.9224
  -1184300.65845   -815561.32345  24801324.1774   24801327.8214
      2271.1094
   3216672.61847   2506323.58646  22522756.0524   22522755.7594
     -2070.2344
  12701369.95146   9800125.55146  23575083.5364   23575088.6464
     -4165.0624
   5465695.33146   4234381.97145  24934147.1534   24934150.7864
     -2516.4374
   4377503.97146    451757.46646  23522274.5364   23522277.1384
     -2396.8124
 06  4 20 14 26 30.0010000  0 10G10G 2G 4G 5G13G 6G23G24G25G30
  -1768962.74645  -1200210.07245  24529367.4974   24529372.4544
      2949.9384
  -3415799.89848  -2615265.51347  20884024.0284   20884024.5914
       125.0634
   5703913.87148   4418449.25047  21216701.4504   21216704.2164
     -2555.8914
  11190241.65345   8642296.74145  24742964.0444   24742968.6144
     -3980.5944
  -4745438.21248  -3643419.25546  22083718.4664   22083720.2244
       422.1414
  -1252327.62145   -868569.24345  24788378.9194   24788382.6814
      2264.0474
   3279072.60647   2554946.91746  22534630.4814   22534630.7744
     -2089.7034
  12826412.91146   9897561.56846  23598878.5834   23598882.6494
     -4171.0624
   5541414.60846   4293384.13745  24948556.4194   24948560.5324
     -2531.4534
   4449687.18846    508003.86146  23536010.4034   23536013.5444
     -2415.4064
 06  4 20 14 27  0.0010000  0 10G10G 2G 4G 5G13G 6G23G24G25G30
  -1857404.24545  -1269125.47045  24512537.3024   24512543.1034
      2946.1254
  -3419289.34748  -2617984.56247  20883360.0444   20883360.5364
       107.5314
   5780812.57748   4478370.30147  21231334.9194   21231337.6964
     -2570.7194
  11309799.14845   8735458.41545  24765713.4354   24765716.7394
     -3989.9064
  -4757806.42948  -3653056.83446  22081365.2244   22081366.7594
       402.3594
  -1320144.17145   -921413.24145  24775473.3024   24775478.7514
      2256.9844
   3342054.46047   2604023.66746  22546615.1464   22546615.5214
     -2109.1094
  12951633.11046   9995135.70246  23622707.1774   23622711.6424
     -4176.9844
   5617581.22545   4352734.80545  24963050.1614   24963053.9584
     -2546.3594
   4522424.29546    564681.85446  23549852.6694   23549855.7864
     -2433.8914
 06  4 20 14 27 30.0010000  0 10G10G 2G 4G 5G13G 6G23G24G25G30
  -1945734.90245  -1337954.45445  24495728.2394   24495732.9384
      2942.3444
  -3422256.63848  -2620296.74547  20882795.3564   20882795.8024
        90.0474
   5858152.84948   4538635.43447  21246052.3174   21246055.0834
     -2585.4694
  11429629.36845   8828832.53145  24788517.1464   24788521.4814
     -3999.0004
  -4769584.68348  -3662234.68946  22079123.4354   22079125.0174
       382.6254
  -1387750.41145   -974093.09745  24762607.8254   24762612.0674
      2249.9064
   3405613.73847   2653550.32446  22558710.0994   22558710.4384
     -2128.3914
  13077025.65846  10092844.11146  23646568.4584   23646572.5714
     -4182.7344
   5694190.41945   4412430.26145  24977628.1064   24977632.0674
     -2561.1564
   4595710.92546    621788.39946  23563797.8724   23563800.7674
     -2452.1724
 06  4 20 14 28  0.0010000  0 10G10G 2G 4G 5G13G 6G23G24G25G30
  -2033945.07945  -1406689.65045  24478942.2554   24478946.0994
      2938.4064
  -3424692.65348  -2622194.94447  20882332.1064   20882332.5054
        72.4224
   5935941.12148   4599249.65947  21260854.9194   21260857.6614
     -2600.2974
  11549737.18845   8922423.00145  24811372.6774   24811377.3294
     -4008.0944
  -4780763.66548  -3670945.58846  22076996.1384   22076997.9074
       362.7194
  -1455137.09045  -1026602.10045  24749785.2164   24749790.1144
      2242.6414
   3469756.52147   2703531.68546  22570916.1614   22570916.5014
     -2147.7194
  13202596.81546  10190691.71546  23670464.0054   23670468.2474
     -4188.5784
   5771248.52046   4472475.58045  24992292.6774   24992297.5054
     -2576.0004
   4669551.29246    679326.55246  23577847.6924   23577852.6964
     -2470.4224
 06  4 20 14 28 30.0010000  0 10G10G 2G 4G 5G13G 6G23G24G25G30
  -2122039.68345  -1475334.70645  24462178.3804   24462184.0174
      2934.4534
  -3426603.50048  -2623683.91747  20881968.3104   20881968.7314
        54.8444
   6014169.02448   4660206.45347  21275741.3724   21275744.2784
     -2614.9844
  11670112.46045   9016221.89645  24834278.4274   24834282.3294
     -4017.0164
  -4791349.03148  -3679193.93146  22074982.0754   22074983.5874
       342.8594
  -1522309.02145  -1078943.78145  24737002.4974   24737006.0834
      2235.3914
   3534474.22847   2753961.02846  22583231.5364   22583231.6884
     -2166.9064
  13328337.91046  10288671.73146  23694391.6224   23694395.3964
     -4194.2664
   5848746.69046   4532863.77645  25007040.4034   25007043.9074
     -2590.6874
   4743936.44046    737288.90046  23592002.9194   23592005.9424
     -2488.7504
 06  4 20 14 29  0.0010000  0 10G10G 2G 4G 5G13G 6G23G24G25G30
  -2210015.95045  -1543887.58845  24445437.1464   24445440.7674
      2930.2974
  -3427987.27348  -2624762.19547  20881704.7474   20881705.3924
        37.0944
   6092836.04248   4721505.41747  21290711.0444   21290714.0914
     -2629.7814
  11790752.99645   9110227.49645  24857235.2084   24857239.5444
     -4025.9844
  -4801338.93248  -3686978.26446  22073081.2084   22073082.8844
       322.8134
  -1589262.72345  -1131115.55045  24724261.7394   24724266.2744
      2227.7974
   3599766.55847   2804838.13746  22595656.4584   22595656.4814
     -2186.2194
  13454248.15446  10386783.54846  23718351.5834   23718355.8024
     -4200.0474
   5926684.16445   4593594.41745  25021871.0914   25021874.8174
     -2605.4844
   4818864.76146    795674.27945  23606261.8644   23606265.7204
     -2506.8284
 06  4 20 14 29 30.0010000  0 10G10G 2G 4G 5G13G 6G23G24G25G30
  -2297866.60345  -1612342.55945  24428719.4114   24428724.6034
      2926.1724
  -3428837.68048  -2625424.83547  20881543.0674   20881543.4074
        19.3754
   6171946.11548   4783149.62047  21305764.9744   21305767.9384
     -2644.4534
  11911660.70345   9204441.25045  24880245.6384   24880250.8414
     -4034.7504
  -4810727.06048  -3694293.69046  22071293.9354   22071296.0214
       302.8134
  -1655989.57345  -1183110.03145  24711563.0364   24711566.5754
      2220.3594
   3665637.21447   2856165.87846  22608191.4814   22608191.4704
     -2205.3914
  13580330.89046  10485029.78646  23742343.2314   23742347.7554
     -4205.7034
   6005063.68045   4654669.40945  25036785.1774   25036789.2314
     -2620.0784
   4894342.57046                  23620625.2164
     -2525.0624
 06  4 20 14 30  0.0010000  0 10G10G 2G 4G 5G13G 6G23G24G25G30
  -2385591.20345  -1680699.32845  24412025.8884   24412030.7394
      2921.8914
  -3429155.26748  -2625672.30747  20881482.6614   20881483.0244
         1.5784
   6251496.29748   4845136.76547  21320903.1534   21320905.9074
     -2659.1414
  12032831.15845   9298859.74445  24903302.0054   24903307.6654
     -4043.4694
  -4819512.79948  -3701139.72146  22069622.7864   22069624.6144
       282.6884
  -1722489.97145  -1234927.99645  24698908.6614   24698913.5244
      2212.7664
   3732083.22147   2907941.97546  22620835.8564   22620835.5404
     -2224.5624
  13706583.26146  10583408.20546  23766369.3104   23766374.4074
     -4211.3284
   6083882.31545   4716086.51445  25051784.4814   25051789.0874
     -2634.6874
   4970362.39946     25718.93446  23635092.4744   23635094.8534
     -2543.0314
 06  4 20 14 30 30.0010000  0 10G10G 2G 4G 5G13G 6G23G24G25G30
  -2473188.42245  -1748956.85445  24395356.8414   24395361.8564
      2917.7814
  -3428939.93048  -2625504.51147  20881523.6144   20881524.0954
       -16.0624
   6331484.62748   4907465.31847  21336124.5284   21336127.2244
     -2673.5624
  12154260.47445   9393479.87045  24926410.4034   24926415.5014
     -4051.9374
  -4827696.22748  -3707516.41446  22068065.4274   22068066.9504
       262.7344
  -1788762.63245  -1286568.80145  24686297.1464   24686300.6964
      2205.3284
   3799102.40147   2960164.68846  22633589.2944   22633589.1534
     -2243.5004
  13833002.47846  10681916.61846  23790426.0914   23790431.5284
     -4216.7194
   6163137.54945   4777843.85245  25066865.6854   25066869.2124
     -2649.1094
   5046923.09646     85376.57046  23649660.3804   23649662.9584
     -2561.0314
 06  4 20 14 31  0.0010000  0 10G10G 2G 4G 5G13G 6G23G24G25G30
  -2560656.72845  -1817113.92445  24378712.6064   24378718.6064
      2913.4844
  -3428190.92948  -2624920.86747  20881666.3174   20881667.0324
       -33.8284
   6411909.37348   4970133.93547  21351429.0214   21351431.6814
     -2688.0314
  12275945.30344   9488299.14745  24949565.4504   24949569.0484
     -4060.3124
  -4835276.36048  -3713423.00446  22066622.8494   22066624.7354
       242.6564
  -1854805.35445  -1338030.60045  24673729.2164   24673733.6814
      2197.6094
   3866692.61747   3012832.37946  22646450.8724   22646450.7314
     -2262.4694
  13959586.70346  10780553.61846  23814514.1854   23814519.0714
     -4222.1564
   6242827.44745   4839939.94945  25082030.4584   25082035.2044
     -2663.4844
   5124022.81346    145454.47346  23664331.4894   23664333.7394
     -2578.8444
 06  4 20 14 31 30.0010000  0 10G10G 2G 4G 5G13G 6G23G24G25G30
  -2647990.54345  -1885166.18645  24362092.8564   24362099.1964
      2908.9534
  -3426903.49248  -2623917.67447  20881911.0674   20881911.5834
       -51.8284
   6492773.11348   5033144.61947  21366816.6854   21366819.2864
     -2702.6724
  12397886.21245   9583317.96145  24972770.5604   24972775.3644
     -4068.8444
  -4842248.43248  -3718855.78446  22065296.0994   22065297.7284
       222.3284
  -1920611.97045  -1389308.39845  24661206.4584   24661210.8994
      2189.6724
   3934856.29047   3065946.91546  22659422.3254   22659422.3964
     -2281.5944
  14086338.10446  10879320.88646  23838634.5054   23838638.5714
     -4227.7344
   6322953.77645   4902376.12245  25097277.3414   25097282.6734
     -2678.0784
   5201661.90746    205952.25146  23679105.4974   23679107.2084
     -2596.8444
 06  4 20 14 32  0.0010000  0 10G10G 2G 4G 5G13G 6G23G24G25G30
  -2735189.87645  -1953113.66445  24345499.9974   24345504.8844
      2904.5634
  -3425078.72148  -2622495.77847  20882258.1924   20882258.6494
       -69.6094
   6574072.08148   5096494.45347  21382287.0604   21382289.8604
     -2717.0314
  12520078.09345   9678532.32145  24996022.0134   24996026.8994
     -4077.0314
  -4848613.42748  -3723815.51047  22064084.7004   22064086.3294
       202.2194
  -1986182.10545  -1440401.89945  24648729.8414   24648734.6344
      2181.9224
   4003589.55247   3119505.29746  22672501.1614   22672501.5484
     -2300.3914
  14213252.52146  10978215.16846  23862785.4194   23862789.5564
     -4233.0004
   6403512.34045   4965149.10145  25112608.6064   25112611.8174
     -2692.2814
   5279836.59146    266867.37346  23693982.3564   23693984.7594
     -2614.5314
 06  4 20 14 32 30.0010000  0 10G10G 2G 4G 5G13G 6G23G24G25G30
  -2822262.22845  -2020962.17445  24328930.4194   24328935.4584
      2900.4064
  -3422725.43248  -2620662.04947  20882705.8644   20882706.6734
       -87.1414
   6655795.53547   5160175.05747  21397838.7394   21397841.6224
     -2731.0474
  12642508.16545   9773932.33845  25019320.7004   25019325.6104
     -4084.7974
  -4854379.65148  -3728308.66847  22062987.5284   22062989.3684
       182.3444
  -2051522.90246  -1491316.64945  24636295.1694   24636299.1064
      2174.2974
   4072881.20247   3173498.80946  22685686.9664   22685687.3644
     -2318.8914
  14340318.91046  11077227.88046  23886965.7864   23886969.9354
     -4237.9374
   6484491.82445   5028250.02945  25128017.8494   25128022.8884
     -2706.2034
   5358535.74446    328191.33146  23708959.1614   23708962.3494
     -2631.9064
 06  4 20 14 33  0.0010000  0 10G10G 2G 4G 5G13G 6G23G24G25G30
  -2909207.07645  -2088711.34345  24312385.6694   24312390.4384
      2895.8444
  -3419843.79148  -2618416.61247  20883254.5604   20883255.2744
      -105.0474
   6737940.77848   5224184.32747  21413470.5834   21413473.4784
     -2745.3594
  12765172.32445   9869514.71145  25042662.2004   25042667.1694
     -4092.8594
  -4859547.03448  -3732335.20247  22062004.6694   22062006.2394
       162.0784
  -2116633.45245  -1542051.92445  24623904.7944   24623908.0404
      2166.3444
   4142728.64247   3227925.40046  22698978.5604   22698978.9234
     -2337.6564
  14467534.72946  11176357.03546  23911174.2784   23911179.0244
     -4243.1724
   6565889.33345   5091676.74945  25143506.9424   25143511.8064
     -2720.3914
   5437754.72146    389919.64446  23724033.5604   23724036.8884
     -2649.4694
 06  4 20 14 33 30.0010000  0 10G10G 2G 4G 5G13G 6G23G24G25G30
  -2996006.02045  -2156346.82345  24295867.8644   24295874.1574
      2891.0164
  -3416416.47448  -2615745.97247  20883906.6224   20883907.3254
      -123.1564
   6820522.85848   5288533.98847  21429185.2244   21429188.1184
     -2759.8124
  12888083.77045   9965289.78445  25066051.5914   25066055.9274
     -4100.9534
  -4864098.18248  -3735881.54447  22061138.4974   22061139.9854
       141.6254
  -2181495.11545  -1592593.42745  24611562.3104   24611567.0794
      2158.0474
   4213146.54247   3282796.49446  22712379.0364   22712379.0834
     -2356.5624
  14594914.55746  11275614.00146  23935414.1304   23935418.6534
     -4248.5004
   6647719.17345   5155440.39745  25159078.7084   25159082.7984
     -2734.6564
   5517509.98546    452066.61346  23739210.2474   23739213.8804
     -2667.2344
 06  4 20 14 34  0.0010000  0 10G10G 2G 4G 5G13G 6G23G24G25G30
  -3082662.05745  -2223870.94645  24279377.7314   24279382.2204
      2886.2664
  -3412448.06248  -2612653.70347  20884661.7864   20884662.4314
      -141.1874
   6903535.08048   5353218.82647  21444981.7634   21444984.5754
     -2774.1094
  13011233.97145  10061250.83545  25089486.7004   25089490.6964
     -4108.8444
  -4868037.67448  -3738951.27947  22060388.2864   22060390.0094
       121.2344
  -2246110.75345  -1642943.13745  24599266.3964   24599268.7744
      2149.8284
   4284127.74747   3338106.53046  22725886.2244   22725886.2004
     -2375.2974
  14722451.20146  11374993.16346  23959682.9974   23959687.2984
     -4253.7194
   6729974.05245   5219535.06545  25174730.5284   25174734.8644
     -2748.7814
   5597793.12746    514624.94046  23754488.6384   23754491.9074
     -2684.7974
 06  4 20 14 34 30.0010000  0 10G10G 2G 4G 5G13G 6G23G24G25G30
  -3169173.02145  -2291282.02845  24262916.0444   24262921.6574
      2881.1724
  -3407937.26348  -2609138.79447  20885520.0364   20885520.7284
      -159.5164
   6986976.30148   5418237.95147  21460860.3414   21460863.4464
     -2788.6094
  13134620.47244  10157396.10845  25112967.1614   25112973.3374
     -4116.8594
  -4871363.91348  -3741543.15447  22059755.9584   22059757.5994
       100.5474
  -2310477.90646  -1693099.46545  24587017.1064   24587020.3764
      2141.2664
   4355671.36147   3393854.80046  22739500.4354   22739500.3414
     -2394.2344
  14850143.64246  11474493.69946  23983982.3414   23983987.0174
     -4259.0784
   6812652.67445   5283960.06345  25190464.2164   25190469.3604
     -2763.0784
   5678601.88946    577592.79546  23769865.8804   23769868.9854
     -2702.4844
 06  4 20 14 35  0.0010000  0 10G10G 2G 4G 5G13G 6G23G24G25G30
  -3255536.22845  -2358577.97645  24246481.4504   24246486.7824
      2876.2664
  -3402882.55748  -2605200.06647  20886482.0284   20886482.6614
      -177.5944
   7070845.72348   5483590.73147  21476820.0994   21476823.0404
     -2802.7974
  13258240.47145  10253723.27445  25136491.8104   25136495.6654
     -4124.5624
  -4874075.06548  -3743655.73647  22059240.0364   22059241.7474
        80.0784
  -2374593.31145  -1743059.52345  24574816.5444   24574819.8724
      2132.9384
   4427776.06747   3450040.26746  22753221.6384   22753221.3214
     -2412.8444
  14977990.77046  11574114.79046  24008310.6924   24008315.0404
     -4264.1564
   6895753.29545   5348713.69145  25206278.7634   25206283.9194
     -2777.0784
   5759934.79246    640969.07446  23785343.8494   23785347.3994
     -2719.8284
 06  4 20 14 35 30.0010000  0 10G10G 2G 4G 5G13G 6G23G24G25G30
  -3341749.24745  -2425756.87745  24230074.9664   24230080.5914
      2871.1564
  -3397282.72948  -2600836.56947  20887547.7554   20887548.4704
      -195.8284
   7155142.43748   5549276.46647  21492861.5604   21492864.5604
     -2817.0474
  13382091.53345  10350230.55045  25160059.7944   25160060.8024
     -4132.2504
  -4876169.84948  -3745288.03447  22058841.1384   22058843.1064
        59.4694
  -2438453.69345  -1792820.44945  24562664.4354   24562667.0714
      2124.3594
   4500440.28847   3506661.75246  22767049.1854   22767048.4234
     -2431.5314
  15105991.13846  11673855.28646  24032667.6854   24032672.1854
     -4269.2974
   6979274.82245   5413795.46145  25222171.6064   25222174.5714
     -2791.1564
   5841789.21946    704751.34846  23800918.9894   23800922.0954
     -2737.2974
 06  4 20 14 36  0.0010000  0 10G10G 2G 4G 5G13G 6G23G24G25G30
  -3427806.19045  -2492814.18145  24213698.2634   24213703.2434
      2865.9224
  -3391132.66348  -2596044.30647  20888718.2714   20888718.9384
      -214.1874
   7239868.85348   5615297.03847  21508984.5524   21508987.2474
     -2831.3594
  13506174.42444  10446918.45345  25183671.0214   25183675.1104
     -4139.9374
  -4877643.27848  -3746436.16647  22058560.6534   22058562.2944
        38.7344
  -2502054.03145  -1842379.16345  24550560.7474   24550565.2594
      2115.6724
   4573666.81647   3563721.38346  22780983.5284   22780983.3064
     -2450.2504
  15234147.27746  11773717.15146  24057055.9424   24057061.3454
     -4274.4534
   7063219.46445   5479207.08845  25238145.4034   25238149.8214
     -2805.2034
   5924169.26846    768944.00546  23816596.1304   23816598.9894
     -2754.7344
 06  4 20 14 36 30.0010000  0 10G10G 2G 4G 5G13G 6G23G24G25G30
  -3513708.13045  -2559750.69345  24197351.5914   24197357.2864
      2860.8444
  -3384434.97948  -2590825.33147  20889992.3884   20889992.9034
      -232.3594
   7325020.44648   5681648.90647  21525188.3104   21525190.9704
     -2845.4064
  13630482.85544  10543782.11645  25207327.0444   25207330.9814
     -4147.2974
  -4878497.69748  -3747101.94747  22058398.0994   22058399.9274
        18.1884
  -2565394.49646  -1891735.46645  24538508.6064   24538511.3964
      2107.0164
   4647450.40647   3621215.09546  22795023.8804   22795024.0094
     -2468.6874
  15362454.26646  11873696.56246  24081471.9744   24081476.5674
     -4279.3444
   7147581.75445   5544944.18645  25254199.2394   25254203.4704
     -2819.0004
   6007067.17046    833539.72546  23832369.6774   23832372.1614
     -2771.8754
 06  4 20 14 37  0.0010000  0 10G10G 2G 4G 5G13G 6G23G24G25G30
  -3599455.41445  -2626566.66545  24181034.6464   24181040.3534
      2855.7194
  -3377191.10548  -2585180.74547  20891371.1464   20891371.5444
      -250.5164
   7410593.50148   5748329.19447  21541472.2784   21541474.9974
     -2859.3754
  13755011.57644  10640817.39545  25231023.9194   25231029.3214
     -4154.5314
  -4878734.31048  -3747286.33047  22058352.7714   22058354.5404
        -2.3594
  -2628475.18345  -1940889.29045  24526504.1384   24526507.5244
      2098.3754
   4721787.12947   3679139.82746  22809170.0754   22809169.8534
     -2487.0314
  15490907.97046  11973790.31946  24105915.7084   24105919.5054
     -4284.1724
   7232356.97745   5611002.78045  25270330.8254   25270335.5714
     -2832.6564
   6090479.09246    898536.22046  23848243.1464   23848246.4854
     -2788.8124
 06  4 20 14 37 30.0010000  0 10G10G 2G 4G 5G13G 6G23G24G25G30
  -3685043.20045  -2693258.39345  24164748.3564   24164753.4424
      2850.3284
  -3369397.40248  -2579107.73147  20892854.3334   20892854.5444
      -268.8914
   7496589.40448   5815338.97147  21557836.7314   21557839.4384
     -2873.4844
  13879760.18445  10738023.95145  25254763.8564   25254765.2284
     -4161.8444
  -4878349.37948  -3746986.38647  22058426.5364   22058428.2004
       -23.1094
  -2691290.34145  -1989836.13545  24514550.5754   24514554.6534
      2089.4384
   4796677.96947   3737496.29946  22823421.4114   22823421.2594
     -2505.5004
  15619510.00146  12073999.62546  24130388.1384   24130393.1184
     -4289.1094
   7317546.77345   5677384.48945  25286541.9584   25286546.8454
     -2846.4694
   6174404.87446    963932.37246  23864214.4114   23864217.8454
     -2805.9844
 06  4 20 14 38  0.0010000  0 10G10G 2G 4G 5G13G 6G23G24G25G30
  -3770474.00445  -2759827.78645  24148492.0994   24148497.7594
      2844.9694
  -3361057.44548  -2572609.07147  20894441.4424   20894441.8994
      -287.1874
   7583002.30648   5882673.68247  21574280.6304   21574283.3254
     -2887.4224
  14004721.40044  10835396.27345  25278541.7714   25278546.1884
     -4168.9534
  -4877346.51248  -3746204.92847  22058617.2634   22058618.8564
       -43.8124
  -2753842.69545  -2038578.23645  24502647.0604   24502651.7714
      2080.6254
   4872117.06047   3796279.99246  22837777.4424   22837777.5714
     -2523.8284
  15748254.10346  12174319.63246  24154887.6924   24154892.2984
     -4293.9064
   7403144.59445   5744084.24445  25302831.0134   25302835.8064
     -2860.1254
   6258838.63646   1029724.67846  23880281.8724   23880285.3534
     -2823.0314
 06  4 20 14 38 30.0020000  0 10G10G 2G 4G 5G13G 6G23G24G25G30
  -3855741.82945  -2826270.23545  24132266.2524   24132272.2754
      2839.3284
  -3352163.44848  -2565678.68647  20896133.6194   20896134.0414
      -305.7504
   7669840.27748   5950339.60647  21590805.4244   21590808.1314
     -2901.5784
  14129902.95744  10932940.31145  25302364.7214   25302370.0064
     -4176.2034
  -4875718.03348  -3744935.99447  22058926.9004   22058928.7874
       -64.7814
  -2816125.22545  -2087110.41845  24490795.0414   24490799.5764
      2071.4694
   4948111.80947   3855496.68446  22852238.3224   22852238.4394
     -2542.3444
  15877149.67846  12274757.68346  24179415.5334   24179420.7014
     -4298.8594
   7489158.19645   5811108.17945  25319198.4944   25319203.2754
     -2873.9374
   6343788.33746   1095919.19846  23896447.4244   23896451.0334
     -2840.1724
 06  4 20 14 39  0.0020000  0 10G10G 2G 4G 5G13G 6G23G24G25G30
  -3940842.49045  -2892582.37645  24116071.6664   24116076.6934
      2833.9694
  -3342718.92048  -2558319.31147  20897931.0184   20897931.3694
      -323.9694
   7757092.65748   6018328.45647  21607408.9004   21607411.6784
     -2915.3124
  14255289.81744  11030644.24545  25326224.0104   25326227.4554
     -4182.9694
  -4873466.80448  -3743181.78447  22059355.9864   22059357.5684
       -85.3914
  -2878134.20545  -2135429.08445  24478995.4244   24478996.5724
      2062.4064
   5024651.40947   3915137.92946  22866803.2684   22866803.2444
     -2560.3914
  16006182.97246  12375303.03346  24203969.5724   24203974.3774
     -4303.4064
   7575575.67845   5878446.57845  25335643.3544   25335646.7874
     -2887.2974
   6429241.82446   1162506.46046  23912709.1194   23912713.1864
     -2856.8124
 06  4 20 14 39 30.0020000  0 10G10G 2G 4G 5G13G 6G23G24G25G30
  -4025775.11845  -2958763.59345  24099909.4944   24099914.1114
      2828.2974
  -3332721.24248  -2550528.91647  20899833.5184   20899833.8224
      -342.4534
   7844762.43948   6086642.55847  21624092.1044   21624094.9284
     -2929.2194
  14380884.86744  11128510.48245  25350123.2054   25350128.7834
     -4189.8914
  -4870590.21548  -3740940.28747  22059903.0184   22059904.6934
      -106.2974
  -2939867.90546  -2183532.79945  24467248.6354   24467252.3384
      2053.2344
   5101738.49447   3975205.80446  22881472.4004   22881472.4824
     -2578.6564
  16135358.56146  12475959.28346  24228551.2684   24228556.0374
     -4308.1724
   7662399.55145   5946101.56745  25352165.3304   25352170.6154
     -2900.8444
   6515200.74946   1229487.35046  23929065.3854   23929068.9944
     -2873.6874
 06  4 20 14 40  0.0020000  0 10G10G 2G 4G 5G13G 6G23G24G25G30
  -4110537.74645  -3024812.35045  24083779.3304   24083784.3694
      2822.5784
  -3322169.45248  -2542306.75047  20901841.4714   20901841.7644
      -360.9534
   7932848.17048   6155280.77947  21640854.1274   21640857.0924
     -2943.0624
  14506684.99944  11226536.53745  25374062.4394   25374068.1354
     -4196.6724
  -4867087.40848  -3738210.84047  22060569.6044   22060571.5724
      -127.1874
  -3001324.61046  -2231421.17745  24455553.1894   24455556.2714
      2043.9844
   5179371.04647   4035698.73546  22896245.1744   22896245.3964
     -2596.7974
  16264674.44946  12576724.84846  24253159.2444   24253163.7324
     -4312.8444
   7749628.05945   6014071.81945  25368764.4004   25368768.2564
     -2914.3124
   6601663.61846   1296861.27846  23945518.2754   23945521.3114
     -2890.4844
 06  4 20 14 40 30.0020000  0 10G10G 2G 4G 5G13G 6G23G24G25G30
  -4195127.63745  -3090726.45745  24067682.4084   24067687.1314
      2816.8284
  -3311062.34848  -2533651.86247  20903954.8934   20903955.4904
      -379.4374
   8021348.79448   6224242.27947  21657695.3464   21657697.9824
     -2956.8594
  14632687.57545  11324720.34845  25398040.1044   25398044.9204
     -4203.3754
  -4862957.27148  -3734992.55047  22061355.5184   22061357.2524
      -148.0624
  -3062501.13646  -2279091.09945  24443912.3304   24443915.3894
      2034.5944
   5257547.68147   4096615.57146  22911121.5024   22911121.9364
     -2614.8754
  16394129.71546  12677599.02246  24277793.2684   24277797.5214
     -4317.4064
   7837259.76045   6082356.21045  25385439.6354   25385444.0064
     -2927.6874
   6688627.39046   1364625.32646  23962066.3464   23962070.0374
     -2907.0474
 06  4 20 14 41  0.0020000  0 10G10G 2G 4G 5G13G 6G23G24G25G30
  -4279542.07045  -3156503.86545  24051618.3074   24051623.2874
      2810.9224
  -3299398.59448  -2524563.23047  20906174.7444   20906175.2834
      -398.0474
   8110263.74948   6293526.64947  21674614.9864   21674617.6584
     -2970.6724
  14758890.27945  11423060.09145  25422056.1274   25422062.1274
     -4210.0164
  -4858198.44348  -3731284.37247  22062260.9164   22062262.5334
      -169.0784
  -3123394.29446  -2326540.15845  24432325.5334   24432328.6864
      2025.0784
   5336267.80647   4157955.93846  22926102.0494   22926102.2364
     -2633.0004
  16523723.27946  12778580.96746  24302453.8074   24302458.6934
     -4322.0314
   7925293.22445   6150953.63945  25402192.2524   25402196.1544
     -2941.0474
   6776091.67446   1432779.64846  23978710.7604   23978715.0964
     -2923.7344
 06  4 20 14 41 30.0020000  0 10G10G 2G 4G 5G13G 6G23G24G25G30
  -4363779.90645  -3222143.65145  24035588.1584   24035593.6784
      2805.0474
  -3287178.27248  -2515040.92547  20908500.3224   20908500.7914
      -416.5624
   8199590.45148   6363131.84747  21691613.5724   21691616.5844
     -2984.3444
  14885289.24145  11521552.70145  25446109.8694   25446114.7094
     -4216.4534
  -4852810.83148  -3727086.23847  22063285.9004   22063287.8344
      -190.0164
  -3184003.03946  -2373767.79445  24420791.1824   24420793.6894
      2015.5474
   5415528.13747   4219717.24646  22941184.4394   22941184.5214
     -2650.9374
  16653452.93346  12879668.93946  24327140.5184   24327145.5804
     -4326.5164
   8013725.67545   6219861.94545  25419020.8224   25419024.4554
     -2954.3444
   6864051.46046   1501319.45346  23995449.4324   23995453.1584
     -2940.2194
 06  4 20 14 42  0.0020000  0 10G10G 2G 4G 5G13G 6G23G24G25G30
  -4447837.04745  -3287642.63745  24019592.5964   24019598.0684
      2798.9064
  -3274398.44148  -2505082.63047  20910931.8144   20910932.3304
      -435.2664
   8289329.67448   6433058.49547  21708690.4084   21708693.2324
     -2998.1094
  15011883.38944  11620197.47245  25470198.6044   25470205.0024
     -4222.9534
  -4846791.50948  -3722395.87247  22064431.7214   22064433.3854
      -211.1254
  -3244322.24746  -2420769.67445  24409313.1044   24409316.6314
      2005.8284
   5495328.76647   4281899.53146  22956370.0724   22956370.6354
     -2668.9534
  16783319.11146  12980863.29646  24351853.5884   24351858.6154
     -4331.0624
   8102557.35845   6289081.53745  25435924.8384   25435928.7644
     -2967.5944
   6952507.51846   1570246.19846  24012282.2294   24012286.2604
     -2956.6564
 06  4 20 14 42 30.0020000  0  9G10G 2G 4G13G 6G23G24G25G30
  -4531714.15445  -3353001.33845  24003630.8614   24003635.5724
      2792.6884
  -3261061.48848  -2494690.20347  20913469.5574   20913470.1314
      -454.0624
   8379477.41248   6503303.46847  21725844.9634   21725847.7874
     -3011.9224
  -4840142.52848  -3717214.85047  22065697.0414   22065698.8814
      -232.3284
  -3304352.58246  -2467546.60445  24397889.2364   24397892.4124
      1996.0004
   5575665.61147   4344499.66646  22971657.6274   22971657.6974
     -2687.0164
  16913317.56346  13082160.70846  24376591.2214   24376596.3894
     -4335.6724
   8191783.64645   6358608.64145  25452903.1664   25452905.2874
     -2980.9374
   7041454.89646   1639555.72845  24029207.7134   24029211.9084
     -2973.2814
 06  4 20 14 43  0.0020000  0  9G10G 2G 4G13G 6G23G24G25G30
  -4615406.85745  -3418216.33946  23987704.6114   23987709.7564
      2786.7974
  -3247164.42848  -2483861.34347  20916114.5964   20916115.0534
      -472.4374
   8470034.33548   6573867.27547  21743077.3614   21743080.2444
     -3025.2194
  -4832860.99148  -3711540.93447  22067082.2294   22067084.1504
      -253.1254
  -3364089.01346  -2514094.37546  24386521.2364   24386523.7324
      1986.4064
   5656538.95947   4407517.86146  22987047.2364   22987047.5534
     -2704.5624
  17043449.08546  13183561.82845  24401354.9794   24401359.6434
     -4339.7664
   8281404.22145   6428442.87945  25469957.4714   25469961.9824
     -2993.7974
   7130893.02046   1709247.31245  24046227.3854   24046229.7294
     -2989.2974
 06  4 20 14 43 30.0020000  0  9G10G 2G 4G13G 6G23G24G25G30
  -4698915.09846  -3483287.62646  23971814.2444   23971818.8734
      2780.4694
  -3232708.11548  -2472596.70347  20918865.5104   20918865.8144
      -491.2344
   8560996.71348   6644747.01447  21760387.2914   21760389.9394
     -3038.8444
  -4824948.34548  -3705375.25147  22068588.5804   22068590.3964
      -274.3124
  -3423531.87246  -2560413.64145  24375209.7754   24375212.6464
      1976.4384
   5737944.57947   4470950.79046  23002538.3304   23002538.8574
     -2722.4064
  17173709.81446  13285063.60845  24426143.0804   24426146.7834
     -4344.2034
   8371415.25245   6498581.43345  25487085.5724   25487090.0844
     -3006.8754
   7220818.45146   1779319.37246  24063340.2914   24063343.2684
     -3005.6094
 06  4 20 14 44  0.0020000  0  9G10G 2G 4G13G 6G23G24G25G30
  -4782233.84746  -3548211.22646  23955959.2994   23955963.9164
      2774.1724
  -3217689.38448  -2460893.80247  20921723.3224   20921723.6624
      -509.9374
   8652366.20648   6715943.99947  21777774.4004   21777777.1074
     -3052.3914
  -4816401.18448  -3698715.14147  22070214.7294   22070216.4284
      -295.4374
  -3482675.18146  -2606499.11546  24363955.4244   24363958.9164
      1966.5004
   5819883.80347   4534799.51346  23018130.5184   23018131.1044
     -2740.1094
  17304101.39745  13386667.34845  24450955.0414   24450960.3504
     -4348.4844
   8461817.53845   6569024.79945  25504288.8694   25504293.8734
     -3019.8594
   7311230.28746   1849769.91346  24080545.7684   24080548.6744
     -3021.7664
 06  4 20 14 44 30.0020000  0  9G10G 2G 4G13G 6G23G24G25G30
  -4865360.33846  -3612985.05746  23940140.8224   23940145.1464
      2767.5474
  -3202106.87048  -2448751.59447  20924688.3464   20924688.8734
      -528.9374
   8744142.14548   6787457.70447  21795238.6434   21795241.1864
     -3066.0624
  -4807217.75348  -3691559.24447  22071962.1354   22071963.9984
      -316.8284
  -3541516.26446  -2652349.30346  24352757.4164   24352760.4634
      1956.2504
   5902355.01847   4599062.74846  23033824.7604   23033824.6544
     -2758.0004
  17434622.59246  13488372.09145  24475793.6894   24475796.7714
     -4352.9374
   8552609.71745   6639771.96345  25521566.0724   25521570.0454
     -3033.0164
   7402127.87346   1920599.30546  24097843.4004   24097846.4004
     -3038.0314
 06  4 20 14 45  0.0020000  0  9G10G 2G 4G13G 6G23G24G25G30
  -4948292.66146  -3677607.59246  23924359.1434   23924363.7014
      2761.1094
  -3185959.96348  -2436169.58447  20927761.4794   20927761.8074
      -547.7034
   8836322.50748   6859286.53447  21812779.9474   21812782.6314
     -3079.4694
  -4797397.94648  -3683907.47747  22073831.2364   22073832.8304
      -337.9844
  -3600052.70946  -2697962.07545  24341618.1114   24341621.6744
      1946.0784
   5985356.20747   4663739.03046  23049619.6114   23049619.7644
     -2775.5784
  17565271.77845  13590176.58345  24500654.8694   24500658.5254
     -4357.1254
   8643789.59345   6710821.31545  25538915.7684   25538920.4554
     -3045.8124
   7493508.12846   1991804.79346  24115231.9004   24115234.5724
     -3054.0474
 06  4 20 14 45 30.0020000  0  9G10G 2G 4G13G 6G23G24G25G30
  -5031025.69346  -3742074.82746  23908615.4244   23908619.6544
      2754.4384
  -3169244.95648  -2423144.90347  20930942.2214   20930942.1864
      -566.6254
   8928909.15448   6931431.94247  21830398.4554   21830401.1394
     -3092.9694
  -4786938.10448  -3675756.98247  22075821.3774   22075823.1584
      -359.3124
  -3658279.03946  -2743333.24046  24330538.8144   24330541.8384
      1935.6724
   6068888.82347   4728829.35646  23065515.0414   23065515.1004
     -2793.2344
  17696050.61545  13692082.08845  24525542.0334   24525545.9004
     -4361.4374
   8735358.09845   6782173.48645  25556341.1194   25556345.2444
     -3058.7344
   7585370.80046   2063385.68446  24132712.0964   24132715.6584
     -3070.0784
 06  4 20 14 46  0.0020000  0  9G10G 2G 4G13G 6G23G24G25G30
  -5113559.88946  -3806387.12246  23892909.6664   23892913.9434
      2747.4844
  -3151964.29548  -2409679.44547  20934230.3934   20934230.6624
      -585.7814
   9021897.91048   7003890.69447  21848093.5574   21848096.2754
     -3106.6094
  -4775840.18148  -3667109.28147  22077933.2294   22077934.9984
      -380.8914
  -3716195.81546  -2788463.25546  24319517.0024   24319520.6114
      1925.0164
   6152947.81947   4794329.87946  23081510.4714   23081511.1974
     -2811.0314
  17826955.11345  13794085.53945  24550452.0574   24550455.9594
     -4365.8594
   8827310.65845   6853824.85045  25573839.8384   25573842.5104
     -3071.7504
   7677712.23046   2135339.95446  24150284.0494   24150285.5374
     -3086.3594
 06  4 20 14 46 30.0020000  0  9G10G 2G 4G13G 6G23G24G25G30
  -5195887.58146  -3870538.53746  23877242.7834   23877246.8264
      2740.8754
  -3134111.71448  -2395768.34647  20937627.5644   20937627.9394
      -604.5474
   9115292.67948   7076665.82147  21865866.2914   21865868.8934
     -3119.8124
  -4764097.99348  -3657959.54447  22080168.0024   22080169.8424
      -402.0474
  -3773793.91546  -2833344.59846  24308557.2834   24308560.4594
      1914.7194
   6237536.68647   4860243.28546  23097607.5104   23097608.6114
     -2828.3594
  17957989.00745  13896189.79445  24575387.4554   24575392.5064
     -4369.8594
   8919650.83845   6925778.41645  25591410.6114   25591414.3264
     -3084.3594
   7770534.55146   2207668.83246  24167947.3934   24167951.3654
     -3101.9844
 06  4 20 14 47  0.0020000  0  9G10G 2G 4G13G 6G23G24G25G30
  -5278008.24246  -3934528.63346  23861616.0644   23861620.6704
      2734.0004
  -3115687.92148  -2381412.13747  20941133.6824   20941133.9394
      -623.5314
   9209090.67548   7149755.16147  21883715.2054   21883717.8184
     -3133.1874
  -4751712.76348  -3648308.73947  22082524.7524   22082526.7444
      -423.4374
  -3831073.98146  -2877978.42846  24297656.8544   24297660.5924
      1904.1094
   6322652.47447   4926567.26346  23113804.7134   23113805.4984
     -2845.8284
  18089149.53745  13998392.74945  24600345.1824   24600349.5644
     -4374.0004
   9012374.66745   6998030.77345  25609055.8074   25609060.1784
     -3097.0474
   7863834.96046   2280370.64545  24185701.6354   24185704.7174
     -3117.8284
 06  4 20 14 47 30.0020000  0  9G10G 2G 4G13G 6G23G24G25G30
  -5359921.46946  -3998357.07246  23846028.3774   23846032.5494
      2726.9384
  -3096694.25148  -2366611.87647  20944748.2364   20944748.4004
      -642.6564
   9303288.53348   7223156.07347  21901640.6894   21901643.4674
     -3146.5944
  -4738685.66648  -3638157.77247  22085003.5254   22085005.4244
      -444.9534
  -3888034.90646  -2922363.71946  24286816.0964   24286818.7444
      1893.3444
   6408291.23547   4993298.69546  23130100.7834   23130100.8424
     -2863.3284
  18220433.23145  14100691.64745  24625328.4794   24625332.8504
     -4378.1724
   9105478.56445   7070579.36245  25626773.1744   25626778.0374
     -3109.7814
   7957608.73446   2353441.51946  24203546.6354   24203550.4904
     -3133.6724
 06  4 20 14 48  0.0020000  0  9G10G 2G 4G13G 6G23G24G25G30
  -5441624.69846  -4062021.90846  23830480.7684   23830485.0574
      2719.9384
  -3077129.47048  -2351366.59147  20948471.1114   20948471.4864
      -661.6564
   9397885.31648   7296867.82947  21919641.7054   21919644.3074
     -3159.8594
  -4725015.54648  -3627505.74347  22087605.0414   22087606.7754
      -466.3754
  -3944673.06746  -2966497.32446  24276039.7524   24276043.3384
      1882.5784
   6494451.66747   5060436.66746  23146496.9324   23146497.0964
     -2880.6724
  18351839.21245  14203085.86445  24650333.8074   24650338.6004
     -4382.1874
   9198960.77445   7143422.65945  25644561.9864   25644566.2994
     -3122.3444
   8051852.91946   2426878.61346  24221482.1354   24221485.4164
     -3149.2814
 06  4 20 14 48 30.0020000  0  9G10G 2G 4G13G 6G23G24G25G30
  -5523114.80346  -4125520.64346  23814973.9864   23814978.1704
      2712.7034
  -3056992.30948  -2335675.29647  20952302.9634   20952303.5964
      -680.8594
   9492880.62847   7370890.13247  21937718.5724   21937721.3264
     -3173.2034
  -4710701.03848  -3616351.58947  22090329.4554   22090331.4124
      -487.9694
  -4000985.51446  -3010377.11846  24265323.7834   24265327.3464
      1871.5634
   6581132.33947   5127980.01146  23162991.7684   23162991.9554
     -2898.0624
  18483367.06145  14305575.01245  24675362.9394   24675368.5414
     -4386.3594
   9292820.22545   7216559.85845  25662423.3614   25662427.9084
     -3134.9844
   8146565.86246   2500680.75646  24239504.0964   24239507.3654
     -3164.9844
 06  4 20 14 49  0.0020000  0  9G10G 2G 4G13G 6G23G24G25G30
  -5604391.48846  -4188853.09146  23799507.4084   23799511.8504
      2705.8444
  -3036284.01648  -2319538.97347  20956243.7054   20956244.2324
      -699.6094
   9588270.76147   7445220.07847  21955870.7994   21955873.8224
     -3186.0314
  -4695743.80548  -3604696.60347  22093175.2524   22093177.0804
      -509.1094
  -4056972.16146  -3054003.25746  24254669.3544   24254672.6934
      1860.9534
   6668329.38047   5195925.76446  23179584.8694   23179584.8224
     -2914.9694
  18615013.09445  14408156.27445  24700413.4634   24700419.5804
     -4389.9534
   9387052.76745   7289987.79145  25680355.2994   25680359.2364
     -3147.0944
   8241743.95846   2574845.43046  24257616.7604   24257619.1044
     -3180.1724
 06  4 20 14 49 30.0020000  0  9G10G 2G 4G13G 6G23G24G25G30
  -5685453.71446  -4252018.40946  23784081.2294   23784086.4794
      2698.2344
  -3015004.84048  -2302957.79747  20960293.1354   20960293.3934
      -719.0784
   9684053.43147   7519855.90147  21974097.6824   21974100.5534
     -3199.5314
  -4680144.28848  -3592541.13747  22096143.8074   22096145.6354
      -530.9374
  -4112630.78546  -3097373.57446  24244078.7994   24244082.3384
      1849.5314
   6756039.75347   5264271.48846  23196274.9864   23196275.6074
     -2932.4694
  18746774.90745  14510827.72445  24725487.8614   24725493.1934
     -4394.2034
   9481655.47245   7363704.04645  25698358.0494   25698362.3734
     -3159.8124
   8337383.99746   2649370.30745  24275815.6434   24275819.5334
     -3195.8914
 06  4 20 14 50  0.0020000  0  9G10G 2G 4G13G 6G23G24G25G30
  -5766293.71646  -4315010.57846  23768698.3074   23768703.0644
      2691.0944
  -2993148.93648  -2285927.22647  20964452.0494   20964452.4364
      -737.9844
   9780232.66747   7594800.74447  21992399.8304   21992402.9944
     -3212.4224
  -4663896.70348  -3579880.68547  22099235.5724   22099237.2954
      -552.2344
  -4167953.07746  -3140481.49146  24233551.4634   24233554.7094
      1838.6414
   6844267.22247   5333020.17546  23213064.3464   23213064.6864
     -2949.3594
  18878656.56545  14613592.55545  24750583.4244   24750589.3894
     -4397.8754
   9576631.87545   7437711.56545  25716430.5104   25716434.6004
     -3171.9374
   8433487.95046                  24294102.3464
     -3211.0474
 06  4 20 14 50 30.0020000  0  9G10G 2G 4G13G 6G23G24G25G30
  -5846918.42246  -4377834.97246  23753355.7294   23753359.9824
      2683.7194
  -2970725.03048  -2268454.06447  20968719.1974   20968719.6894
      -757.0944
   9876797.58647   7670046.12547  22010775.5644   22010778.5064
     -3225.3914
  -4647009.60548  -3566721.90947  22102449.1974   22102450.9794
      -573.7344
  -4222947.21546  -3183334.23346  24223086.3614   24223089.6194
      1827.5004
   6933000.23747   5402162.78046  23229949.8694   23229950.3384
     -2966.3444
  19010647.30845  14716442.41745  24775700.0414   24775706.8034
     -4401.6564
   9671970.65945   7512001.53145  25734572.2684   25734577.7644
     -3184.1254
   8530044.56445                  24312476.2914
     -3226.2344
 06  4 20 14 51  0.0020000  0  9G10G 2G 4G13G 6G23G24G25G30
  -5927313.58246  -4440480.50346  23738057.7834   23738061.8034
      2675.9694
  -2947720.69448  -2250528.62147  20973096.8224   20973097.1624
      -776.5164
   9973759.04347   7745600.48247  22029226.6744   22029229.7564
     -3238.6564
  -4629470.62048  -3553055.15947  22105786.6894   22105788.4124
      -595.5314
  -4277597.27746  -3225918.34746  24212686.5574   24212689.7214
      1815.8914
   7022249.14847   5471707.40146  23246933.6664   23246933.9004
     -2983.5624
  19142757.99345  14819385.71645  24800841.3304   24800846.5104
     -4405.7034
   9767681.84945   7586581.68545  25752786.3074   25752789.5644
     -3196.6094
   8627063.37346                  24330939.7524
     -3241.7194
 06  4 20 14 51 30.0020000  0  8G10G 2G 4G13G 6G23G24G30
  -6007478.14146  -4502946.32846  23722802.5494   23722806.6154
      2668.3444
  -2924136.07548  -2232151.01147  20977585.1114   20977585.5454
      -795.7664
  10071114.49547   7821461.84547  22047752.9944   22047755.8894
     -3251.6724
  -4611280.58448  -3538881.09147  22109248.1044   22109249.6864
      -617.1254
  -4331903.01646  -3268234.58646  24202351.9554   24202356.4904
      1804.4844
   7112010.72147   5541651.50046  23264015.0334   23264015.0214
     -3000.5004
  19274986.05345  14922420.48345  24826002.3694   24826007.7604
     -4409.4694
   8724541.03845                  24349488.7834
     -3256.8124
 06  4 20 14 52  0.0020000  0  8G10G 2G 4G13G 6G23G24G30
  -6087411.57546  -4565232.08246  23707591.7364   23707596.5064
      2660.7504
  -2899972.50248  -2213322.29247  20982183.2134   20982183.6584
      -814.9224
  10168860.77647   7897627.74547  22066353.5494   22066356.5724
     -3264.5004
  -4592440.52048  -3524200.51747  22112833.1504   22112834.6974
      -638.6414
  -4385863.19146  -3310281.64346  24192083.2834   24192086.7644
      1793.0634
   7202281.39647   5611992.30846  23281192.0724   23281192.0374
     -3017.2974
  19407328.56645  15025544.47345  24851187.2994   24851193.4754
     -4413.1094
   8822473.21146     55992.38446  24368125.9244   24368130.1314
     -3271.7194
 06  4 20 14 52 30.0020000  0  8G10G 2G 4G13G 6G23G24G30
  -6167112.14546  -4627336.38246  23692424.4944   23692428.7834
      2653.0004
  -2875230.36548  -2194042.72047  20986891.3384   20986891.7134
      -834.1564
  10266995.55447   7974096.37047  22085027.6744   22085030.6974
     -3277.3914
  -4572950.89548  -3509013.79747  22116541.9794   22116543.7254
      -660.2504
  -4439475.40746  -3352057.36446  24181881.3304   24181884.2364
      1781.4694
   7293058.31347   5682727.58646  23298466.9794   23298467.0964
     -3034.0944
  19539783.18345  15128755.75645  24876392.2994   24876398.0064
     -4416.7814
   8920856.29846    132654.31345  24386848.0414   24386851.9434
     -3286.6874
 06  4 20 14 53  0.0020000  0  8G10G 2G 4G13G 6G23G24G30
  -6246575.57346  -4689255.88646  23677303.3464   23677308.1274
      2644.8594
  -2849906.98048  -2174310.21847  20991710.4084   20991710.7954
      -853.7664
  10365519.96647   8050868.61547  22103776.2994   22103779.3814
     -3290.5624
  -4552809.33348  -3493319.08947  22120375.3144   22120377.2134
      -682.2034
  -4492735.71546  -3393558.86046  24171746.9084   24171749.5924
      1769.4844
   7384341.69247   5753857.50346  23315837.8464   23315837.6824
     -3051.1254
  19672350.84045  15232055.13145  24901619.0334   24901625.1154
     -4420.7344
   9019690.24145    209667.53445  24405653.5644   24405657.5964
     -3301.8914
 06  4 20 14 53 30.0020000  0  8G10G 2G 4G13G 6G23G24G30
  -6325802.59146  -4750991.16546  23662227.5024   23662231.6394
      2636.7344
  -2824004.38648  -2154126.38247  20996639.3464   20996639.7684
      -873.2974
  10464429.40247   8127940.88247  22122598.2364   22122601.2134
     -3303.5944
  -4532018.30248  -3477118.29747  22124331.3614   22124333.0614
      -704.0784
  -4545643.63846  -3434785.57946  24161677.7914   24161681.3654
      1757.5164
   7476126.51647   5825378.11846  23333303.4714   23333303.5064
     -3068.0474
  19805027.17645  15335439.21645  24926867.5804   24926873.2994
     -4424.5784
   9118970.24045    287028.51645  24424547.5024   24424551.3464
     -3316.9224
 06  4 20 14 54  0.0020000  0  8G10G 2G 4G13G 6G23G24G30
  -6404785.59246  -4812536.31646  23647197.2444   23647202.0614
      2628.6414
  -2797517.13248  -2133486.96547  21001679.6664   21001680.2174
      -892.6874
  10563727.69447   8205316.15947  22141494.2684   22141497.1154
     -3316.4224
  -4510572.45348  -3460407.25747  22128412.3224   22128414.0574
      -725.7974
  -4598193.44946  -3475733.94646  24151678.6894   24151682.2294
      1745.5784
   7568416.04447   5897292.03546  23350865.4394   23350865.8034
     -3084.7344
  19937816.24645  15438911.12545  24952136.0804   24952141.6234
     -4428.1874
   9218698.33146    364738.76346  24443525.5724   24443528.0104
     -3331.7344
 06  4 20 14 54 30.0020000  0  8G10G 2G 4G13G 6G23G24G30
  -6483524.42546  -4873891.20446  23632213.1504   23632217.7094
      2620.5314
  -2770446.69148  -2112393.12847  21006830.9084   21006831.5644
      -912.0784
  10663411.40347   8282991.74547  22160463.4554   22160466.2444
     -3329.1874
  -4488473.46048  -3443187.27647  22132617.3464   22132619.3264
      -747.5164
  -4650383.12946  -3516401.55746  24141747.9324   24141751.6114
      1733.7034
   7661206.28647   5969596.17546  23368523.1114   23368523.5214
     -3101.3284
  20070714.55545  15542468.17545  24977426.5184   24977430.6894
     -4431.7504
   9318870.13246    442794.61845  24462586.7214   24462590.4944
     -3346.4374
 06  4 20 14 55  0.0020000  0  8G10G 2G 4G13G 6G23G24G30
  -6562010.96946  -4935049.50946  23617277.6274   23617281.5764
      2612.0164
  -2742786.55148  -2090839.78647  21012094.5104   21012094.8734
      -931.8124
  10763485.21447   8360971.31347  22179506.9474   22179509.8304
     -3342.2504
  -4465714.72748  -3425453.21147  22136948.3934   22136950.3504
      -769.6094
  -4702204.08746  -3556781.94746  24131887.2604   24131890.5414
      1721.1884
   7754500.98447   6042293.36946  23386276.7054   23386276.7524
     -3118.1724
  20203726.89345  15646114.05345  25002738.1664   25002743.0644
     -4435.6094
   9419489.59945    521199.66046  24481733.5254   24481738.1314
     -3361.3754
 06  4 20 14 55 30.0020000  0  8G10G 2G 4G13G 6G23G24G30
  -6640241.16046  -4996008.05546  23602391.4394   23602395.8694
      2603.5944
  -2714535.00148  -2068825.60747  21017470.7754   21017471.0104
      -951.3754
  10863949.14947   8439254.87447  22198624.8144   22198627.7914
     -3355.0784
  -4442294.68548  -3407203.84747  22141404.9554   22141407.0884
      -791.4844
  -4753652.14146  -3596871.57146  24122096.9244   24122100.5454
      1708.9224
   7848299.70247   6115383.29346  23404125.5804   23404125.3464
     -3134.8124
  20336853.56145  15749849.01645  25028071.1744   25028076.3544
     -4439.2504
   9520554.55246    599951.50146  24500966.8384   24500971.1864
     -3376.0314
 06  4 20 14 56  0.0020000  0  8G10G 2G 4G13G 6G23G24G30
  -6718214.95646  -5056766.82746  23587553.8934   23587557.5254
      2594.8754
  -2685693.36248  -2046351.61947  21022959.2604   21022959.8464
      -971.1564
  10964799.42647   8517839.47847  22217815.3854   22217818.5844
     -3368.0474
  -4418215.45148  -3388440.82847  22145987.1044   22145989.2254
      -813.5624
  -4804726.30646  -3636669.29446  24112377.6974   24112381.9864
      1696.2814
   7942598.60047   6188862.99346  23422070.0884   23422069.6894
     -3151.5474
  20470090.90945  15853670.24145  25053425.6274   25053430.5614
     -4443.0004
   9622061.16246    679047.64945  24520282.9554   24520285.7794
     -3390.8284
 06  4 20 14 56 30.0020000  0  8G10G 2G 4G13G 6G23G24G30
  -6795933.10146  -5117326.36446  23572764.6824   23572767.8114
      2586.2194
  -2656264.97148  -2023420.41147  21028558.6824   21028559.3854
      -990.8444
  11066031.62847   8596721.68847  22237079.5414   22237082.6464
     -3380.8754
  -4393480.02148  -3369166.48147  22150694.2604   22150696.2174
      -835.5624
  -4855428.73046  -3676177.90846  24102729.7134   24102733.8384
      1683.7194
   8037391.97647   6262727.99646  23440108.4004   23440108.2604
     -3168.1094
  20603434.32345  15957574.11145  25078800.3774   25078805.1824
     -4446.6414
   9724003.05145    758482.79645  24539680.8774   24539685.0254
     -3405.3914
 06  4 20 14 57  0.0020000  0  8G10G 2G 4G13G 6G23G24G30
  -6873388.59146  -5177681.24546  23558025.0414   23558028.8144
      2577.4384
  -2626243.89448  -2000027.36447  21034271.9714   21034272.4634
     -1010.5784
  11167649.38947   8675904.33847  22256416.6434   22256419.6894
     -3393.6874
  -4368082.97448  -3349376.58947  22155527.0104   22155528.9674
      -857.5944
  -4905751.74346  -3715390.98346  24093153.9714   24093157.5574
      1671.0314
   8132682.69447   6336980.48346  23458241.8694   23458241.8344
     -3184.6254
  20736887.43345  16061563.47145  25104194.7214   25104198.9284
     -4450.2664
   9826383.51945    838259.84745  24559163.3614   24559166.6194
     -3419.9844
 06  4 20 14 57 30.0020000  0  8G10G 2G 4G13G 6G23G24G30
  -6950579.98346  -5237830.35246  23543335.8614   23543339.4244
      2568.3444
  -2595630.97348  -1976173.15847  21040097.3074   21040097.5644
     -1030.5784
  11269650.14747   8755385.42247  22275826.8384   22275830.1194
     -3406.6724
  -4342025.32948  -3329071.94947  22160485.8614   22160487.7014
      -879.8754
  -4955692.99346  -3754306.45146  24083650.8304   24083654.1004
      1658.0004
   8228468.09047   6411618.42446  23476469.5184   23476469.4944
     -3201.3594
  20870448.04845  16165636.57345  25129610.6504   25129615.9004
     -4454.0944
   9929198.32246    918375.25546  24578730.2054   24578733.8034
     -3434.6414
 06  4 20 14 58  0.0020000  0  8G10G 2G 4G13G 6G23G24G30
  -7027504.80346  -5297771.73546  23528696.9554   23528701.6544
      2559.7344
  -2564425.53148  -1951857.23847  21046035.4244   21046035.8694
     -1050.0314
  11372032.91747   8835164.17747  22295309.8224   22295312.9044
     -3419.0784
  -4315306.48948  -3308252.08747  22165570.2684   22165572.3184
      -901.6094
  -5005249.19046  -3792921.21646  24074219.5494   24074223.2644
      1645.4694
   8324746.24447   6486640.32746  23494790.0334   23494790.3034
     -3217.4224
  21004115.23145  16269792.73045  25155046.6664   25155051.8344
     -4457.2974
  10032445.72246    998827.89446  24598376.4164   24598379.9554
     -3448.6874
 06  4 20 14 58 30.0020000  0  8G10G 2G 4G13G 6G23G24G30
  -7104158.90546  -5357502.17046  23514110.0334   23514114.2754
      2550.7194
  -2532625.27048  -1927077.82147  21052086.6504   21052087.2714
     -1069.8124
  11474797.92647   8915240.78047  22314865.3854   22314868.2564
     -3431.7194
  -4287924.68448  -3286915.62747  22170781.0884   22170782.8114
      -923.6564
  -5054417.21246  -3831234.01146  24064863.6824   24064866.6704
      1632.5474
   8421516.72246   6562045.86846  23513205.1354   23513205.5684
     -3233.7504
  21137889.35045  16374032.24845  25180502.6044   25180508.0644
     -4460.7814
  10136124.52145   1079616.62545  24618105.8224   24618108.9864
     -3462.9844
 06  4 20 14 59  0.0020000  0  8G10G 2G 4G13G 6G23G24G30
  -7180544.49846  -5417023.38546  23499574.6824   23499578.6894
      2541.7034
  -2500234.56048  -1901838.30347  21058250.4474   21058251.0924
     -1089.5004
  11577939.18047   8995610.56347  22334492.3464   22334495.3694
     -3444.2664
  -4259884.42248  -3265066.08147  22176116.6744   22176118.5614
      -945.6254
  -5103199.03246  -3869245.70246  24055580.9714   24055584.8614
      1619.6254
   8518772.86546   6637829.86246  23531712.1434   23531712.9864
     -3249.9224
  21271764.67745  16478350.56345  25205978.8224   25205984.4714
     -4464.1414
  10240227.27745   1160735.51745  24637914.8854   24637918.0964
     -3477.1094
 06  4 20 14 59 30.0020000  0  8G10G 2G 4G13G 6G23G24G30
  -7256660.10346  -5476334.20746  23485090.3694   23485093.6504
      2532.5634
  -2467253.80348  -1876139.02047  21064526.5334   21064527.1664
     -1109.2974
  11681454.50947   9076271.83547  22354190.9084   22354193.9904
     -3456.7974
  -4231186.21848  -3242703.87347  22181577.3544   22181579.1704
      -967.6564
  -5151593.09346                  24046371.0644
      1606.4384
   8616511.77146   6713989.92946  23550311.3224   23550311.3464
     -3266.0784
  21405739.18845  16582746.21245  25231473.1744   25231478.1784
     -4467.5474
  10344751.47045   1242182.97545  24657805.5414   24657808.5294
     -3491.2344
 06  4 20 15  0  0.0020000  0  8G10G 2G 4G13G 6G23G24G30
  -7332502.74846  -5535432.33846  23470657.7444   23470662.0454
      2523.5164
  -2433681.97548  -1849979.16147  21070915.3464   21070915.8144
     -1128.9064
  11785343.17947   9157224.02047  22373960.2754   22373963.0184
     -3469.1564
  -4201829.51448  -3219828.53547  22187163.7294   22187165.8614
      -989.5314
  -5199595.38246                  24037235.9944
      1593.5004
   8714732.03147   6790525.06046  23569002.3464   23569002.7914
     -3282.0164
  21539812.41945  16687218.76645  25256985.6194   25256991.6434
     -4470.7034
  10449694.61246   1323956.91745  24677776.8144   24677779.6274
     -3505.0624
 06  4 20 15  0 30.0020000  0  8G10G 2G 4G13G 6G23G24G30
  -7408069.30546  -5594315.35046  23456277.4474   23456281.3504
      2514.4224
  -2399518.04848  -1823357.93047  21077416.3224   21077416.8964
     -1148.5314
  11889604.53147   9238466.61747  22393800.4324   22393803.3964
     -3481.4374
  -4171813.52048  -3196439.46547  22192876.2914   22192878.0724
     -1011.3594
  -5247202.38446    -32131.38946  24028177.3144   24028181.4164
      1580.5004
   8813432.78046   6867434.74046  23587784.3384   23587784.4904
     -3297.8754
  21673983.33545  16791767.42045  25282518.7134   25282524.0334
     -4473.8124
  10555055.13145   1406056.04345  24697824.2914   24697827.5374
     -3518.7974
 06  4 20 15  1  0.0020000  0  8G10G 2G 4G13G 6G23G24G30
  -7483358.06946  -5652981.90646  23441951.1744   23441955.2644
      2505.1094
  -2364761.83548  -1796275.17247  21084030.2604   21084030.7174
     -1168.2664
  11994236.79847   9319998.23447  22413711.0804   22413714.1044
     -3493.7664
  -4141138.25248  -3172536.64547  22198713.3464   22198715.1974
     -1033.3444
  -5294412.96646    -68919.13546  24019194.2444   24019196.6824
      1567.2034
   8912611.18946   6944716.75946  23606657.0804   23606657.8654
     -3313.7344
  21808250.67245  16896391.28245  25308069.4324   25308074.6114
     -4477.0164
  10660829.95345   1488477.97345  24717953.7834   24717957.1004
     -3532.5624
 06  4 20 15  1 30.0020000  0  8G10G 2G 4G13G 6G23G24G30
  -7558367.72346  -5711430.96646  23427677.2294   23427681.5184
      2495.4224
  -2329414.45948  -1768731.76747  21090756.7684   21090757.0494
     -1188.3284
  12099237.36847   9401816.83747  22433692.2754   22433695.2054
     -3506.3754
  -4109805.19648  -3148121.28047  22204675.9004   22204677.9044
     -1055.6254
  -5341224.63946   -105395.64646  24010286.7054   24010288.3574
      1553.4224
   9012263.77946   7022368.00646  23625620.0964   23625620.2484
     -3329.8594
  21942611.96845  17001088.29245  25333637.3464   25333641.9394
     -4480.5164
  10767015.49845   1571219.90845  24738158.9474   24738162.6624
     -3546.5624
 06  4 20 15  2  0.0020000  0  8G10G 2G 4G13G 6G23G24G30
  -7633091.54746  -5769657.30746  23413457.8934   23413461.9944
      2485.8914
  -2293471.29848  -1740724.12847  21097596.4794   21097596.9124
     -1208.1414
  12204609.08847   9483924.64247  22453743.8464   22453746.8934
     -3518.6564
  -4077810.03348  -3123190.00347  22210764.6274   22210766.3964
     -1077.6414
  -5387632.00546   -141557.25646  24001454.5254   24001458.2054
      1540.0634
   9112393.06746   7100390.74746  23644674.7214   23644674.7324
     -3345.6724
  22077070.59645  17105861.19045  25359224.0644   25359227.7094
     -4483.6724
  10873612.96346   1654282.77145  24758446.0334   24758449.4084
     -3560.2194
 06  4 20 15  2 30.0020000  0  8G10G 2G 4G13G 6G23G24G30
  -7707529.04046  -5827660.51746  23399292.8464   23399296.9004
      2476.4384
  -2256933.91448  -1712253.44347  21104549.1974   21104549.5254
     -1227.8444
  12310348.79047   9566319.19647  22473865.7054   22473868.8224
     -3530.8124
  -4045154.76948  -3097744.36347  22216978.3144   22216980.2364
     -1099.5474
  -5433633.04346   -177402.07046  23992700.6504   23992704.4244
      1526.5634
   9212995.15846   7178781.94046  23663818.8774   23663819.1584
     -3361.2814
  22211623.31645  17210707.38945  25384829.3694   25384834.5254
     -4486.6564
  10980618.40945   1737663.65045  24778807.9324   24778811.9284
     -3573.6724
 06  4 20 15  3  0.0020000  0  8G10G 2G 4G13G 6G23G24G30
  -7781678.67446  -5885439.44646  23385182.6194   23385186.5924
      2466.9064
  -2219802.65548  -1683319.99847  21111615.1194   21111615.6584
     -1247.5474
  12416454.13947   9648998.67047  22494056.7994   22494059.7174
     -3542.8284
  -4011840.07648  -3071784.89847  22223318.3074   22223320.2524
     -1121.3914
  -5479226.47246   -212929.40746  23984023.9864   23984027.9244
      1513.0314
   9314066.90146   7257539.21146  23683052.1894   23683052.7524
     -3376.7814
  22346268.11545  17315625.31345  25410451.5334   25410456.3034
     -4489.5784
  11088028.28445   1821359.53245  24799246.3854   24799251.6114
     -3586.9534
 06  4 20 15  3 30.0020000  0  8G10G 2G 4G13G 6G23G24G30
  -7855543.33146  -5942996.32546  23371126.7134   23371130.3814
      2457.2344
  -2182082.57148  -1653927.73047  21118793.1194   21118793.3654
     -1267.2974
  12522918.73147   9731958.05847  22514316.4164   22514319.5214
     -3554.9374
  -3977871.04248  -3045315.54847  22229782.3934   22229783.8934
     -1143.3594
  -5524414.93146   -248141.01346  23975425.9714   23975429.3464
      1499.3594
   9415601.06146   7336656.72046  23702373.7684   23702374.1544
     -3392.3124
  22480998.47145  17420609.87645  25436089.0254   25436092.2014
     -4492.5944
  11195835.06745   1905364.72245  24819760.9554   24819764.8934
     -3600.2974
 06  4 20 15  4  0.0020000  0  8G10G 2G 4G13G 6G23G24G30
  -7929118.63446  -6000327.71946  23357125.7754   23357129.9824
      2447.5004
  -2143771.65848  -1624075.08647  21126083.2994   21126083.8144
     -1287.0474
  12629742.90647   9815197.64246  22534644.2994   22534647.1114
     -3566.9374
  -3943246.15948  -3018335.14947  22236371.4244   22236373.0884
     -1165.2504
  -5569193.83646   -283033.58546  23966904.4714   23966907.9864
      1485.6094
   9517597.43246   7416134.41846  23721782.4634   23721782.9904
     -3407.7034
  22615815.19145  17525661.77345  25461743.6664   25461748.9514
     -4495.4844
  11304037.72146   1989678.44845  24840353.2214   24840356.6784
     -3613.5004
 06  4 20 15  4 30.0020000  0  8G10G 2G 4G13G 6G23G24G30
  -8002400.50946  -6057430.49846  23343180.9714   23343185.0494
      2437.9224
  -2104867.42148  -1593760.09947  21133486.5724   21133487.2054
     -1306.5944
  12736927.39647   9898717.97346  22555041.0414   22555044.0884
     -3578.6874
  -3907963.54648  -2990842.23047  22243085.0644   22243086.7294
     -1186.9534
  -5613559.33446   -317604.06246  23958461.8224   23958465.4554
      1472.0474
   9620055.66346   7495971.97246  23741279.9944   23741280.1934
     -3422.8444
  22750718.98544  17630781.59345  25487415.1504   25487421.9364
     -4498.1414
  11412635.94345   2074300.38645  24861017.6894   24861020.9244
     -3626.3754
 06  4 20 15  5  0.0020000  0  8G10G 2G 4G13G 6G23G24G30
  -8075386.26546  -6114302.52146  23329291.8144   23329296.0684
      2427.9384
  -2065369.93448  -1562982.85047  21141002.6664   21141003.1234
     -1326.4374
  12844470.62747   9982517.84546  22575506.0254   22575508.9204
     -3590.7194
  -3872023.00948  -2962836.64347  22249924.5724   22249926.4714
     -1208.9374
  -5657508.51246   -351850.19746  23950098.9004   23950103.0844
      1458.0164
   9722974.04646   7576168.04546  23760864.5104   23760865.1434
     -3438.2344
  22885708.89944  17735968.43145  25513101.7444   25513107.3694
     -4501.0474
  11521627.23845   2159228.60045  24881756.6974   24881762.6274
     -3639.5164
 06  4 20 15  5 30.0020000  0  8G10G 2G 4G13G 6G23G24G30
  -8148074.71546  -6170942.85246  23315459.5334   23315464.0684
      2417.9064
  -2025280.05948  -1531743.98647  21148631.7134   21148632.1234
     -1346.2664
  12952370.11447  10066595.32846  22596038.4864   22596041.4634
     -3602.6414
  -3835426.05448  -2934319.55847  22256888.4394   22256890.3614
     -1230.9064
  -5701039.77946   -385770.71146  23941814.8544   23941817.1974
      1444.0164
   9826349.15246   7656720.05546  23780536.1974   23780536.7134
     -3453.4844
  23020782.20244  17841220.24745  25538805.4554   25538813.1464
     -4503.8914
  11631007.41246   2244459.82545  24902572.7214   24902576.3544
     -3652.5164
 06  4 20 15  6  0.0020000  0  8G10G 2G 4G13G 6G23G24G30
  -8220462.71346  -6227349.07946  23301684.8464   23301689.1354
      2408.0474
  -1984596.29448  -1500042.35847  21156373.5804   21156373.8734
     -1365.8594
  13060625.74447  10150950.32446  22616639.1044   22616641.7994
     -3614.2814
  -3798171.77648  -2905290.28247  22263977.9474   22263979.7174
     -1252.5944
  -5744149.56146   -419362.69646  23933612.4244   23933615.5764
      1430.1254
   9930180.15046   7737627.38046  23800294.2054   23800295.1314
     -3468.4374
  23155939.15443  17946537.32745  25564525.3694   25564530.1504
     -4506.4534
  11740775.31946   2329993.23746  24923462.1504   24923465.9004
     -3665.1874
 06  4 20 15  6 30.0020000  0  8G10G 2G 4G13G 6G23G24G30
  -8292553.92946  -6283524.04746  23287966.7834   23287970.9324
      2398.0164
  -1943324.78548  -1467882.74847  21164227.0724   21164227.5884
     -1385.5784
  13169229.62347  10235576.68346  22637305.9004   22637308.8304
     -3625.9844
  -3760266.60048  -2875753.81347  22271191.1824   22271193.0804
     -1274.4224
  -5786841.65946   -452629.39346  23925487.6504   23925490.9434
      1415.9844
  10034458.29646   7818883.05146  23820138.4394   23820138.9204
     -3483.4374
  23291172.26043  18051913.63445  25590260.2294   25590266.2404
     -4509.0784
  11850921.98446   2415821.78846  24944420.7604   24944424.6044
     -3677.9064
 06  4 20 15  7  0.0030000  0  8G10G 2G 4G13G 6G23G24G30
  -8364339.13446  -6339460.57946  23274306.1554   23274309.9174
      2387.6884
  -1901454.87748  -1435256.86547  21172194.5304   21172195.2804
     -1405.4844
  13278193.33247  10320483.42246  22658040.7024   22658043.7144
     -3637.8594
  -3721700.33648  -2845702.20747  22278529.9524   22278531.8624
     -1296.4064
  -5829105.52646   -485562.07246  23917444.4834   23917448.3154
      1401.7034
  10139194.14546   7900495.29246  23840068.6794   23840068.7844
     -3498.5624
  23426494.13644  18157359.12045  25616011.7884   25616018.1164
     -4511.8754
  11961457.66845   2501953.37045  24965453.7264   24965458.1554
     -3690.7194
 06  4 20 15  7 30.0030000  0  8G10G 2G 4G13G 6G23G24G30
  -8435821.86746  -6395161.40346  23260703.0774   23260707.6124
      2377.6094
  -1859000.15448  -1402175.27347  21180273.4834   21180274.1634
     -1425.0474
  13387497.49347  10405655.46246  22678840.4834   22678843.6014
     -3649.3284
  -3682486.39048  -2815145.90547  22285992.4374   22285994.2884
     -1318.0784
  -5870947.08546   -518165.88346  23909482.0544   23909485.9094
      1387.5634
  10244367.82146   7982448.76146  23860082.3744   23860082.8084
     -3513.2344
  23561883.65143  18262857.37545  25641775.9834   25641781.3274
     -4514.3124
  12072361.79445   2588372.14045  24986559.0774   24986562.6044
     -3703.0944
 06  4 20 15  8  0.0030000  0  8G10G 2G 4G13G 6G23G24G30
  -8506996.03346  -6450621.78046  23247158.8194   23247163.1794
      2367.5004
  -1815952.76548  -1368631.86447  21188465.4834   21188465.9174
     -1444.5944
  13497150.16747  10491099.07146  22699706.8354   22699709.6944
     -3660.6874
  -3642617.75348  -2784079.44547  22293578.8744   22293580.5624
     -1339.6564
  -5912358.74346   -550434.65246  23901602.3124   23901606.4374
      1373.4384
  10349986.73846   8064749.12846  23880181.5074   23880181.9404
     -3527.8444
  23697350.28643  18368415.63245  25667554.4374   25667555.9014
     -4516.6254
  12183641.19746   2675083.44845  25007735.1944   25007736.8824
     -3715.3444
 06  4 20 15  8 30.0030000  0  8G10G 2G 4G13G 6G23G24G30
  -8577864.29746  -6505843.78946  23233673.6404   23233677.7764
      2357.0314
  -1772317.45348  -1334630.33447  21196768.6244   21196769.0224
     -1464.4224
  13607145.35847  10576809.57346  22720638.4134   22720641.3544
     -3672.3124
  -3602099.56048  -2752506.83647  22301289.0774   22301291.0934
     -1361.5474
  -5953342.60846   -582369.93246  23893804.1634   23893806.8354
      1358.8914
  10456044.28746   8147391.44746  23900362.4834   23900363.0814
     -3542.6564
  23832888.19242  18474029.53145  25693345.1084   25693352.4604
     -4519.2194
  12295288.71646   2762081.57346  25028981.8194   25028985.6874
     -3727.8124
 06  4 20 15  9  0.0030000  0  7G10G 2G 4G13G 6G23G30
  -8648425.04247  -6560826.16746  23220246.3194   23220249.6714
      2346.8754
  -1728094.78948  -1300171.12947  21205183.9444   21205184.4954
     -1483.8594
  13717480.81047  10662785.22046  22741634.5774   22741637.4604
     -3683.5004
  -3560932.83648  -2720428.87147  22309122.9684   22309124.8904
     -1383.0164
  -5993897.83546   -613971.66146  23886086.0384   23886089.4954
      1344.6254
  10562537.20046   8230372.90046  23920628.6164   23920629.3664
     -3556.9694
  12407300.63045   2849363.52745  25050295.5224   25050299.9874
     -3739.7664
 06  4 20 15  9 30.0030000  0  7G10G 2G 4G13G 6G23G30
  -8718675.29347  -6615566.59246  23206878.2574   23206881.9834
      2336.2974
  -1683284.20348  -1265253.79747  21213711.1554   21213711.8004
     -1503.6564
  13828155.77247  10749025.42546  22762695.3434   22762698.1554
     -3694.9534
  -3519117.23448  -2687845.30347  22317080.3824   22317082.0584
     -1404.8444
  -6034020.92446   -645236.45546  23878450.2264   23878454.1164
      1330.0314
  10669463.87446   8313692.19546  23940975.8124   23940976.9604
     -3571.6094
  12519675.52044   2936928.24845  25071679.2574   25071684.9174
     -3751.9844
 06  4 20 15 10  0.0030000  0  7G10G 2G 4G13G 6G23G30
  -8788607.29247  -6670059.04546  23193570.1794   23193574.4564
      2325.7664
  -1637880.12548  -1229874.00047  21222351.3274   21222351.8904
     -1523.3284
  13939174.16247  10835533.23246  22783821.4604   22783824.2614
     -3706.2974
  -3476647.85248  -2654752.29247  22325162.0384   22325163.8784
     -1426.5164
  -6073703.66646   -676158.18846  23870898.6554   23870903.0384
      1315.4064
  10776827.33246   8397351.59746  23961406.8434   23961407.5114
     -3585.9844
  12632415.86946   3024777.78645  25093134.9134   25093137.7844
     -3764.0624
 06  4 20 15 10 30.0030000  0  7G10G 2G 4G13G 6G23G30
  -8858221.91247  -6724304.17846  23180323.1474   23180327.8474
      2315.0944
  -1591885.98048  -1194034.41347  21231103.9294   21231104.2694
     -1543.0474
  14050531.33147  10922305.02446  22805012.1944   22805014.9834
     -3717.6094
  -3433528.15448  -2621152.53447  22333367.6474   22333369.6634
     -1448.2344
  -6112946.88046   -706737.33146  23863431.8904   23863436.2024
      1300.7194
  10884622.43446   8481347.25646  23981919.5384   23981920.2764
     -3600.4064
  12745515.41746   3112907.42245  25114657.5544   25114660.3904
     -3776.0474
 06  4 20 15 11  0.0030000  0  7G10G 2G 4G13G 6G23G30
  -8927514.34347  -6778298.25746  23167136.9834   23167140.9094
      2304.2194
  -1545299.24348  -1157733.06447  21239968.9604   21239969.4404
     -1562.9064
  14162228.25647  11009341.55246  22826267.3664   22826270.3194
     -3729.0164
  -3389756.48648  -2587044.74947  22341697.1164   22341699.0854
     -1470.0624
  -6151746.17246   -736970.65946  23856048.7804   23856051.4874
      1285.7344
  10992850.09446   8565680.49446  24002515.1474   24002516.3314
     -3614.8594
  12858974.29545   3201316.93745  25136246.8824   25136251.4294
     -3788.0474
 06  4 20 15 11 30.0030000  0  7G10G 2G 4G13G 6G23G30
  -8996480.36947  -6832037.99346  23154013.1794   23154017.3514
      2293.4844
  -1498118.07448  -1120968.51647  21248947.1794   21248947.6594
     -1582.5314
  14274265.36047  11096643.15746  22847587.0224   22847590.0224
     -3740.1414
  -3345330.96748  -2552427.47047  22350150.8044   22350152.7614
     -1491.6724
  -6190097.41046   -766855.09846  23848750.8194   23848754.3234
      1270.9534
  11101508.28246   8650348.56546  24023192.8584   24023193.5264
     -3629.0474
  12972791.61445   3290005.60245  25157903.7104   25157909.6514
     -3799.7504
 06  4 20 15 12  0.0030000  0  7G10G 2G 4G13G 6G23G30
  -9065122.13847  -6885525.06546  23140951.3974   23140955.5584
      2282.6254
  -1450347.10448  -1083744.38947  21258037.6324   21258038.1364
     -1602.2034
  14386636.71847  11184205.22246  22868970.9374   22868974.0424
     -3751.2814
  -3300256.70148  -2517304.67947  22358728.3124   22358730.3274
     -1513.2814
  -6228001.33046   -796390.75646  23841537.2654   23841540.1124
      1255.9534
  11210591.57146   8735348.06246  24043950.4764   24043951.2844
     -3643.1564
  13086959.96745   3378967.93545  25179630.5694   25179634.2614
     -3811.4224
 06  4 20 15 12 30.0030000  0  7G10G 2G 4G13G 6G23G30
  -9133434.88247  -6938755.76146  23127951.9764   23127956.3824
      2271.6564
  -1401983.66548  -1046058.59947  21267241.2654   21267241.7804
     -1621.9064
  14499343.48947  11272028.64346  22890418.2414   22890421.4054
     -3762.3914
  -3254531.68748  -2481674.79947  22367429.2334   22367431.0974
     -1534.9374
  -6265454.60446   -825575.20646  23834411.4054   23834416.3274
      1240.9844
  11320100.17846   8820679.22146  24064789.4374   24064790.9484
     -3657.2504
  13201479.56446   3468203.97745  25201423.8044   25201427.3084
     -3823.0474
 06  4 20 15 13  0.0030000  0  7G10G 2G 4G13G 6G23G30
  -9201418.56747  -6991730.04646  23115015.0304   23115018.9094
      2260.5474
  -1353030.27348  -1007913.10747  21276556.4914   21276557.1244
     -1641.6724
  14612381.78447  11360110.40046  22911928.4604   22911931.6014
     -3773.5164
  -3208158.85548  -2445540.12147  22376253.7494   22376255.9994
     -1556.6094
  -6302456.02947   -854408.08146  23827371.0624   23827373.4174
      1225.7344
  11430029.36146   8906337.97046  24085708.7334   24085708.2414
     -3671.3754
  13316345.28645   3557709.75845  25223281.6634   25223285.6124
     -3834.6564
 06  4 20 15 13 30.0030000  0  7G10G 2G 4G13G 6G23G30
  -9269072.58447  -7044447.44746  23102140.6944   23102144.6674
      2249.5314
  -1303488.57848   -969309.19247  21285983.8044   21285984.4954
     -1661.2814
  14725748.61747  11448448.14846  22933501.3354   22933504.6634
     -3784.4224
  -3161140.40748  -2408902.34147  22385201.0464   22385203.0974
     -1578.1094
  -6339004.74347   -882887.47146  23820416.2494   23820419.9994
      1210.7194
  11540376.24946   8992322.68846  24106707.3904   24106707.9174
     -3685.2344
  13431552.87445   3647481.86245  25245203.9214   25245206.6634
     -3846.0164
 06  4 20 15 14  0.0030000  0  7G10G 2G 4G13G 6G23G30
  -9336390.15747  -7096902.69046  23089330.3664   23089334.7964
      2238.3754
  -1253354.45148   -930243.64747  21295524.2964   21295524.8354
     -1680.9224
  14839446.73847  11537044.05246  22955137.2574   22955140.3624
     -3795.3594
  -3113472.47148  -2371758.46647  22394272.0624   22394274.1714
     -1599.6564
  -6375094.14246   -911008.94746  23813547.9214   23813552.1874
      1195.2814
  11651141.51546   9078633.05246  24127785.0464   24127786.1124
     -3699.0314
  13547103.80145   3737521.45745  25267194.4764   25267197.5584
     -3857.2974
 06  4 20 15 14 30.0030000  0  7G10G 2G 4G13G 6G23G30
  -9403372.98047  -7149097.08546  23076584.5694   23076588.5654
      2227.1094
  -1202631.95248   -890719.63747  21305176.7264   21305177.1474
     -1700.5944
  14953470.79447  11625893.91446  22976835.4444   22976838.3864
     -3806.2664
  -3065159.74748  -2334112.14847  22403465.4604   22403467.5114
     -1621.2034
  -6410726.09046   -938773.83046  23806767.5854   23806771.2534
      1180.0784
  11762319.10346   9165264.62446  24148940.8824   24148941.9374
     -3712.8284
  13662991.44545   3827823.53745  25289246.9914   25289249.7574
     -3868.5784
 06  4 20 15 15  0.0030000  0  7G10G 2G 4G13G 6G23G30
  -9470018.96547  -7201028.99046  23063902.0774   23063905.8274
      2215.7034
  -1151321.25148   -850737.29347  21314940.5934   21314941.2144
     -1720.3594
  15067819.16947  11714996.51046  22998595.2264   22998598.1084
     -3817.2344
  -3016202.79848  -2295963.82247  22412781.6714   22412783.4404
     -1642.8284
  -6445899.77646   -966182.54946  23800073.9214   23800077.6834
      1164.5474
  11873906.65646   9252215.60346  24170176.1944   24170177.5074
     -3726.6094
  13779213.17545   3918385.85745  25311361.9764   25311366.7224
     -3879.7974
 06  4 20 15 15 30.0030000  0  7G10G 2G 4G13G 6G23G30
  -9536318.90747  -7252691.25846  23051285.7184   23051289.6794
      2204.3134
  -1099415.95548   -810291.63047  21324817.6404   21324818.4374
     -1739.9694
  15182497.20847  11804355.97746  23020418.0934   23020421.1874
     -3827.9534
  -2966595.88148  -2257309.01747  22422221.4994   22422223.7724
     -1664.2664
  -6480604.46046   -993225.57246  23793469.9994   23793472.6474
      1149.0784
  11985909.63446   9339490.92546  24191490.0694   24191492.0504
     -3740.1414
  13895772.70145   4009211.38445  25333543.7184   25333546.9874
     -3890.7974
 06  4 20 15 16  0.0030000  0  7G10G 2G 4G13G 6G23G30
  -9602277.27347  -7304087.38146  23038733.5624   23038737.8974
      2192.9384
  -1046922.82348   -769387.90847  21334806.9834   21334807.5114
     -1759.5314
  15297496.66047  11893965.90346  23042301.8274   23042304.9094
     -3838.6564
  -2916346.15148  -2218153.32947  22431783.7574   22431785.7024
     -1685.6564
  -6514843.68346  -1019905.18946  23786953.6324   23786957.5114
      1133.6254
  12098317.61046   9427081.18846  24212880.3974   24212881.2064
     -3753.5944
  14012660.58046   4100292.74845  25355786.9374   25355789.3744
     -3901.6874
 06  4 20 15 16 30.0030000  0  7G10G 2G 4G13G 6G23G30
  -9667886.16547  -7355211.18846  23026248.9294   23026253.3944
      2180.9694
   -993836.74548   -728022.14947  21344908.9134   21344909.1594
     -1779.5784
  15412821.58847  11983829.42646  23064247.4374   23064250.3434
     -3849.7034
  -2865448.72748  -2178492.92147  22441469.3044   22441471.1324
     -1707.5164
  -6548611.95146  -1046218.70746  23780529.3124   23780533.4724
      1117.6254
  12211134.56346   9514990.17246  24234348.7964   24234349.8624
     -3767.5164
  14129879.85645   4191632.48945  25378092.3194   25378096.6444
     -3912.9534
 06  4 20 15 17  0.0030000  0  7G10G 2G 4G13G 6G23G30
  -9733141.69847  -7406059.63046  23013831.2104   23013835.4294
      2169.3754
   -940155.84948   -686192.89647  21355124.0074   21355124.4404
     -1799.1724
  15528472.20147  12073946.75346  23086255.3514   23086258.4444
     -3860.3284
  -2813902.34748  -2138326.86847  22451278.0384   22451279.9604
     -1728.9064
  -6581903.43446  -1072160.29246  23774194.5464   23774195.4374
      1101.8134
  12324361.37446   9603219.29646  24255895.2964   24255895.7414
     -3780.8754
  14247429.72845   4283229.72545  25400462.0384   25400466.7724
     -3923.7034
 06  4 20 15 17 30.0030000  0  7G10G 2G 4G13G 6G23G30
  -9798049.54447  -7456637.14846  23001479.5854   23001484.0504
      2157.7504
   -885888.50648   -643906.67647  21365450.5854   21365451.1834
     -1818.7034
  15644439.19647  12164310.59946  23108323.1324   23108325.9564
     -3870.8594
  -2761716.07448  -2097662.20947  22461208.7184   22461210.6984
     -1750.2194
  -6614723.51046  -1097734.21946  23767948.6794   23767952.9794
      1086.1414
  12437984.93446   9691756.56846  24277517.7654   24277519.1014
     -3794.1414
  14365299.23945   4375076.03145  25422891.8354   25422896.0194
     -3934.3124
 06  4 20 15 18  0.0030000  0  7G10G 2G 4G13G 6G23G30
  -9862604.37047  -7506939.59046  22989194.6324   22989199.1794
      2145.8444
   -831032.17448   -601161.49947  21375889.6714   21375890.3394
     -1838.4374
  15760723.91347  12254922.02546  23130451.1634   23130454.1874
     -3881.5164
  -2708887.79648  -2056497.28447  22471261.5694   22471263.2924
     -1771.7194
  -6647068.27346  -1122937.84746  23761794.0624   23761798.2694
      1070.1094
  12552007.95846   9780605.97546  24299214.9684   24299214.5464
     -3807.4694
  14483488.38745   4467171.46945  25445382.0384   25445387.9684
     -3945.0314
 06  4 20 15 18 30.0030000  0  7G10G 2G 4G13G 6G23G30
  -9926804.91347  -7556965.97046  22976978.2184   22976981.9094
      2134.2974
   -775587.63748   -557957.99147  21386440.4294   21386441.1324
     -1857.7344
  15877323.95047  12345779.16346  23152639.5304   23152642.7884
     -3891.7034
  -2655419.05248  -2014833.29347  22481436.2724   22481438.1014
     -1792.7344
  -6678935.86346  -1147769.97146  23755729.9294   23755733.8904
      1054.4694
  12666426.42746   9869763.25046  24320988.1164   24320989.6984
     -3820.3124
  14601994.00445   4559513.58345  25467932.7334   25467937.0344
     -3955.2034
 06  4 20 15 19  0.0030000  0  7G10G 2G 4G13G 6G23G30
  -9990652.37047  -7606717.20346  22964828.4994   22964832.6714
      2122.1724
   -719559.16348   -514299.45647  21397102.1084   21397102.6244
     -1877.5314
  15994234.32647  12436878.11746  23174886.7104   23174890.0624
     -3902.3594
  -2601314.12448  -1972673.58647  22491732.1014   22491734.0344
     -1814.2814
  -6710327.11746  -1172230.84846  23749755.7804   23749759.2494
      1038.2194
  12781234.24446   9959223.63946  24342835.0154   24342836.2694
     -3833.5944
  14720809.43345   4652097.04045  25490542.7184   25490546.3274
     -3965.8444
 06  4 20 15 19 30.0030000  0  7G10G 2G 4G13G 6G23G30
 -10054141.17947  -7656188.97246  22952747.1474   22952751.7884
      2110.1884
   -662943.70448   -470183.52947  21407875.8124   21407876.1874
     -1897.0784
  16111456.72547  12528220.21246  23197193.7414   23197197.1404
     -3912.7034
  -2546570.83248  -1930016.44947  22502149.2494   22502151.0654
     -1835.5164
  -6741236.33346  -1196315.59546  23743873.6634   23743877.7884
      1022.1414
  12896432.53746  10048988.25746  24364756.2964   24364757.6204
     -3846.5784
  14839935.14845   4744922.15745  25513211.1874   25513216.4834
     -3976.1254
 06  4 20 15 20  0.0030000  0  7G10G 2G 4G13G 6G23G30
 -10117266.57447  -7705377.57846  22940734.1874   22940738.7454
      2098.1564
   -605738.79448   -425608.28547  21418761.4684   21418762.1594
     -1916.5944
  16228992.26547  12619806.30546  23219559.4374   23219562.9174
     -3922.9844
  -2491187.22648  -1886860.36447  22512688.4764   22512690.4334
     -1856.7194
  -6771659.77546  -1220022.12546  23738084.9214   23738088.8234
      1006.0634
  13012022.08646  10139057.84446  24386752.5694   24386754.5734
     -3859.4064
  14959371.48945   4837989.44845  25535939.9914   25535942.9444
     -3986.2664
 06  4 20 15 20 30.0030000  0  7G10G 2G 4G13G 6G23G30
 -10180027.95847  -7754282.53146  22928791.3904   22928795.2574
      2086.0314
   -547946.80748   -380575.57747  21429759.1554   21429759.9174
     -1936.0944
  16346837.79947  12711633.94246  23241984.7724   23241988.6164
     -3933.2344
  -2435165.84248  -1843207.31347  22523348.9524   22523350.7104
     -1877.9224
  -6801595.66947  -1243348.45646  23732388.0384   23732392.5034
       989.8594
  13127998.56646  10229428.76446  24408822.5854   24408824.1794
     -3872.2344
  15079113.70745   4931295.09345  25558725.3904   25558728.2494
     -3996.4064
 06  4 20 15 21  0.0030000  0  7G10G 2G 4G13G 6G23G30
 -10242425.18247  -7802903.72946  22916917.0304   22916921.3434
      2073.7664
   -489569.90148   -335087.08547  21440867.9524   21440868.5154
     -1955.6874
  16464989.89747  12803700.47346  23264468.4374   23264471.9644
     -3943.5474
  -2378509.87448  -1799059.77047  22534130.1084   22534132.1014
     -1899.1414
  -6831044.63946  -1266295.66946  23726783.1084   23726787.3514
       973.4224
  13244358.51446  10320099.08846  24430965.6324   24430967.7294
     -3885.0314
  15199156.75345   5024835.19545  25581570.0774   25581572.3394
     -4006.4694
 06  4 20 15 21 30.0030000  0  7G10G 2G 4G13G 6G23G30
 -10304452.32247  -7851236.53546  22905113.6634   22905118.5384
      2061.3134
   -430604.79848   -289140.26747  21452088.7494   21452089.3704
     -1975.3594
  16583450.63147  12896007.51146  23287011.0854   23287014.4954
     -3953.8594
  -2321216.37348  -1754415.47247  22545032.8194   22545035.0934
     -1920.4534
  -6860000.49447  -1288858.39046  23721273.6014   23721278.0424
       956.8914
  13361101.91746  10411067.79646  24453181.0774   24453183.0814
     -3897.8594
  15319501.85545   5118610.55345  25604471.0074   25604476.9014
     -4016.5624
 06  4 20 15 22  0.0030000  0  7G10G 2G 4G13G 6G23G30
 -10366108.85047  -7899280.56746  22893381.2654   22893385.5544
      2049.3594
   -371053.68548   -242736.81647  21463420.7334   21463421.4724
     -1994.4534
  16702216.83447  12988552.56446  23309611.7024   23309615.3004
     -3963.6094
  -2263288.01448  -1709276.46547  22556056.2494   22556058.1944
     -1941.1724
  -6888462.88746  -1311036.62846  23715856.4524   23715860.4374
       940.8914
  13478224.94946  10502332.30046  24475469.3744   24475471.5194
     -3910.0314
  15440144.75844   5212617.97845  25627426.7024   25627431.2724
     -4026.0004
 06  4 20 15 22 30.0030000  0  7G10G 2G 4G13G 6G23G30
 -10427395.93747  -7947036.71646  22881718.4994   22881722.7064
      2036.7664
   -310920.33048   -195879.66947  21474863.4914   21474864.2534
     -2014.0944
  16821283.26547  13081331.56146  23332268.9214   23332272.4484
     -3973.8124
  -2204729.20548  -1663646.19347  22567199.7494   22567201.4374
     -1962.4064
  -6916433.72446  -1332832.09146  23710533.5934   23710537.7064
       924.1884
  13595723.54546  10593890.12546  24497827.7804   24497829.7844
     -3922.7664
  15561078.41345   5306851.93545  25650440.9764   25650446.3434
     -4035.8914
 06  4 20 15 23  0.0030000  0  7G10G 2G 4G13G 6G23G30
 -10488311.22447  -7994503.16746  22870126.8354   22870131.0304
      2024.1254
   -250205.38748   -148569.33047  21486417.2184   21486417.8744
     -2033.6874
  16940648.52247  13174343.41246  23354983.8904   23354987.4994
     -3983.9844
  -2145540.96148  -1617525.45847  22578462.5544   22578464.5934
     -1983.5944
  -6943910.33046  -1354242.57846  23705305.9834   23705310.0734
       907.5004
  13713593.08146  10685736.40946  24520258.2414   24520260.4564
     -3935.2814
  15682300.79545   5401310.85445  25673509.2884   25673512.4404
     -4045.6874
 06  4 20 15 23 30.0030000  0  7G10G 2G 4G13G 6G23G30
 -10548850.17247  -8041676.36046  22858607.0774   22858610.8864
      2011.6254
   -188906.60748   -100804.05847  21498082.1324   21498082.7764
     -2053.0624
  17060313.71747  13267588.97446  23377754.8584   23377758.1164
     -3993.8444
  -2085721.62748  -1570912.98247  22589845.7804   22589847.8904
     -2004.5314
  -6970887.70346  -1375263.97146  23700171.6324   23700175.3704
       890.8594
  13831833.53746  10777871.40246  24542759.3354   24542762.8974
     -3947.5164
  15803811.52645   5495994.48845  25696632.8514   25696637.1874
     -4055.1724
 06  4 20 15 24  0.0030000  0  7G10G 2G 4G13G 6G23G30
 -10609011.53647  -8088555.32846  22847158.9604   22847162.8044
      1999.1254
   -127025.63648    -52585.13147  21509857.7104   21509858.4604
     -2072.3284
  17180276.43847  13361066.37746  23400583.0934   23400586.1514
     -4003.6254
  -2025273.41748  -1523810.48447  22601349.1164   22601350.8514
     -2025.3594
  -6997364.99046  -1395895.71446  23695133.3664   23695137.8314
       874.2344
  13950443.93946  10870294.98146  24565330.0934   24565330.0934
     -3959.7034
  15925606.71043   5590899.74445  25719806.7724   25719811.3544
     -4064.5004
 06  4 20 15 24 30.0030000  0  7G10G 2G 4G13G 6G23G30
 -10668795.73347  -8135140.40246  22835781.6944   22835785.8084
      1986.5314
    -64565.57548     -3914.96347  21521743.4054   21521744.5074
     -2091.6094
  17300532.60147  13454772.43246  23423467.1324   23423470.6474
     -4013.3594
  -1964200.01748  -1476220.84247  22612970.5854   22612972.4374
     -2046.1414
  -7023341.76746  -1416137.15946  23690190.3044   23690194.1834
       857.5634
  14069418.40346  10963002.50046  24587970.4764   24587971.8584
     -3971.7974
  16047681.08445   5686022.43845  25743039.0304   25743042.2064
     -4073.7194
 06  4 20 15 25  0.0030000  0  6G10G 2G 4G13G 6G23
 -10728195.39647  -8181425.84946  22824478.3124   22824482.5654
      1973.6094
     -1521.62848     45210.17347  21533740.2334   21533741.0074
     -2111.1254
  17421085.49447  13548709.70646  23446407.8044   23446411.6124
     -4023.2974
  -1902497.41548  -1428140.90247  22624712.4524   22624714.3154
     -2067.1564
  -7048811.26846  -1435983.20746  23685343.2414   23685347.3904
       840.5164
  14188759.00846  11055995.26846  24610679.2334   24610680.9684
     -3984.0004
 06  4 20 15 25 30.0030000  0  6G10G 2G 4G13G 6G23
 -10787210.54247  -8227411.68046  22813248.4444   22813252.0774
      1960.5314
     62103.14648     94787.89447  21545848.1164   21545848.6324
     -2130.7194
  17541931.50247  13642875.37346  23469403.4374   23469407.2804
     -4033.2814
  -1840168.82448  -1379573.16747  22636573.0934   22636575.2144
     -2088.2504
  -7073774.80147  -1455435.35646  23680593.3124   23680597.5304
       823.4534
  14308461.33946  11149269.66445  24633458.0304   24633458.1244
     -3996.2344
 06  4 20 15 26  0.0030000  0  6G10G 2G 4G13G 6G23
 -10845842.83847  -8273099.18546  22802090.9994   22802094.9604
      1947.9534
    126304.75448    144815.09947  21558064.9684   21558065.6594
     -2149.7034
  17663065.18547  13737265.21046  23492454.8514   23492458.3084
     -4042.6094
  -1777219.46848  -1330521.72347  22648551.9214   22648553.6794
     -2108.6874
  -7098233.85747  -1474494.64946  23675938.6874   23675942.2964
       806.7974
  14428519.09646  11242821.03046  24656304.3584   24656306.4794
     -4007.8754
 06  4 20 15 26 30.0030000  0  6G10G 2G 4G13G 6G23
 -10904089.63447  -8318486.30046  22791007.1084   22791010.9994
      1935.2344
    191082.61648    195291.32647  21570391.4524   21570392.3904
     -2168.7344
  17784485.58447  13831878.46946  23515560.8514   23515564.3194
     -4051.9694
  -1713649.91448  -1280987.02947  22660649.1404   22660650.6634
     -2129.1874
  -7122184.32747  -1493157.11446  23671381.1554   23671385.2804
       789.9844
  14548929.79346                  24679218.2884
     -4019.2504
 06  4 20 15 27  0.0030000  0  6G10G 2G 4G13G 6G23
 -10961948.96147  -8363571.49446  22779996.7654   22780000.3154
      1922.1884
    256436.32548    246216.27447  21582828.0854   21582829.1874
     -2188.0314
  17906190.82447  13926713.67646  23538720.8904   23538724.5584
     -4061.5474
  -1649461.32748  -1230969.95647  22672863.6014   22672865.2534
     -2149.9064
  -7145625.79247  -1511423.28146  23666920.7804   23666924.1444
       772.9064
  14669695.19346                  24702198.4994
     -4031.3754
 06  4 20 15 27 30.0030000  0  6G10G 2G 4G13G 6G23
 -11019415.30847  -8408350.47746  22769061.4764   22769065.1444
      1909.0784
    322368.66348    297592.10247  21595374.4684   21595375.3124
     -2207.2814
  18028183.08347  14021772.52746  23561934.8044   23561937.8274
     -4071.0474
  -1584651.58248  -1180468.86447  22685196.5544   22685198.3944
     -2170.5624
  -7168552.32447  -1529288.31946  23662558.5074   23662562.2694
       755.7034
  14790810.69646                  24725245.2184
     -4042.8594
 06  4 20 15 28  0.0030000  0  6G10G 2G 4G13G 6G23
 -11076487.85247  -8452822.60446  22758200.7654   22758204.7844
      1895.5944
    388877.45748    349417.12447  21608031.1244   21608031.9684
     -2226.7974
  18150459.08747  14117052.48646  23585203.6554   23585206.7494
     -4080.8124
  -1519223.46648  -1129485.92546  22697647.1404   22697649.0034
     -2191.4694
  -7190962.71047  -1546750.89046  23658293.7574   23658297.3084
       738.1884
  14912275.61846                  24748360.1474
     -4054.8284
 06  4 20 15 28 30.0030000  0  6G10G 2G 4G13G 6G23
 -11133163.96348  -8496985.79546  22747415.7334   22747419.6364
      1882.5314
    455962.40548    401691.08647  21620796.7574   21620797.5894
     -2245.8124
  18273017.74747  14212552.69846  23608525.7494   23608528.6674
     -4090.0314
  -1453177.55848  -1078021.57546  22710214.9994   22710216.8154
     -2211.8444
  -7212854.98547  -1563809.61446  23654127.1244   23654130.7804
       721.0314
  15034086.58046     15834.58746  24771539.3274   24771541.2024
     -4066.1564
 06  4 20 15 29  0.0030000  0  6G10G 2G 4G13G 6G23
 -11189435.48247  -8540833.72746  22736707.1164   22736711.0654
      1869.0944
    523628.89948    454418.20047  21633672.9054   21633673.9254
     -2265.0944
  18395863.63747  14308276.73146  23631902.5774   23631905.4484
     -4099.4694
  -1386508.97648  -1026072.04346  22722901.7654   22722903.6754
     -2232.5004
  -7234220.96447  -1580458.26146  23650060.9524   23650064.7614
       703.6094
  15156247.93646    111025.34746  24794786.0154   24794787.6324
     -4077.6724
 06  4 20 15 29 30.0030000  0  7G10G 2G 4G16G13G 6G23
 -11245304.99747  -8584368.41346  22726075.8124   22726080.1014
      1855.7504
    591871.77548    507594.44947  21646659.1714   21646660.0384
     -2284.1874
  18518990.54347  14404219.73246  23655332.8514   23655335.8274
     -4108.7344
     -6973.07844                  25825302.6014
      1393.5314
  -1319223.93648   -973642.14647  22735705.6324   22735707.4954
     -2252.9374
  -7255064.33147  -1596699.95246  23646094.4134   23646097.7884
       686.2034
  15278752.39446    206483.41946  24818098.1474   24818098.6404
     -4089.0004
 06  4 20 15 30  0.0030000  0  7G10G 2G 4G16G13G 6G23
 -11300769.30947  -8627587.34946  22715521.4214   22715525.5114
      1841.9844
    660691.08548    561219.87047  21659755.5384   21659756.2294
     -2303.6254
  18642397.77847  14500381.16546  23678816.4994   23678819.9914
     -4118.2814
    -48550.33943                  25817390.4914
      1378.4224
  -1251322.99748   -920732.33346  22748626.6014   22748628.4874
     -2273.6564
  -7275381.52647  -1612531.59546  23642228.8274   23642232.3314
       668.4224
  15401598.14246    302207.33146  24841473.9834   24841475.2024
     -4100.5624
 06  4 20 15 30 30.0030000  0  7G10G 2G 4G16G13G 6G23
 -11355827.62047  -8670489.90646  22705044.0934   22705048.1944
      1828.4064
    730084.57648    615292.69947  21672960.5464   21672961.0034
     -2322.7664
  18766082.28547  14596758.64746  23702352.6474   23702356.1404
     -4127.5164
    -89680.99044                  25809564.3194
      1363.4694
  -1182808.81548   -867344.64746  22761664.3274   22761666.5194
     -2294.1094
  -7295171.74447  -1627952.51446  23638462.3744   23638466.2414
       650.7664
  15524781.64846    398194.32746  24864915.8434   24864918.1634
     -4111.8284
 06  4 20 15 31  0.0030000  0  7G10G 2G 4G16G13G 6G23
 -11410474.30747  -8713071.71646  22694644.7804   22694648.8234
      1814.7814
    800055.49448    669815.48247  21686275.3044   21686276.1014
     -2341.8754
  18890046.32947  14693353.97146  23725941.8824   23725945.1874
     -4136.6724
   -130357.71243    -20033.79145  25801822.5464   25801825.2534
      1348.3594
  -1113678.60248   -813476.95046  22774819.5304   22774821.6044
     -2314.4844
  -7314429.28347  -1642958.25146  23634797.4764   23634801.2964
       633.1414
  15648304.66946    494445.94446  24888420.7574   24888421.7654
     -4122.9374
 06  4 20 15 31 30.0030000  0  7G10G 2G 4G16G13G 6G23
 -11464711.73648  -8755334.63346  22684324.2964   22684328.0814
      1801.1724
    870598.32648    724783.91847  21699699.3744   21699700.0654
     -2360.8444
  19014283.91547  14790162.43446  23749583.7104   23749587.0154
     -4145.6874
   -170582.59843    -51377.78845  25794168.0224   25794171.1164
      1333.3754
  -1043938.45348   -759133.97646  22788090.7414   22788092.6164
     -2334.7034
  -7333156.83447  -1657551.01846  23631233.5544   23631237.2104
       615.4844
  15772159.90145    590956.29945  24911989.6714   24911991.1364
     -4133.9374
 06  4 20 15 32  0.0030000  0  8G10G 2G 4G16G13G 6G27G23
 -11518541.39348  -8797279.81546  22674080.4214   22674084.4764
      1787.3914
    941708.83348    780194.68447  21713231.4214   21713231.8784
     -2379.9064
  19138789.81247  14887179.96246  23773276.4914   23773279.8544
     -4154.7814
   -210356.98744    -82370.81945  25786599.9134   25786602.5034
      1318.1414
   -973593.37648   -704319.62046  22801476.7964   22801478.6474
     -2355.0004
  -7351356.66747  -1671732.72946  23627771.0304   23627774.5344
       597.7344
     -8362.57743                  26030928.9134
      2090.6564
  15896341.80146    687721.50746  24935621.0624   24935622.6904
     -4144.9224
 06  4 20 15 32 30.0030000  0  8G10G 2G 4G16G13G 6G27G23
 -11571957.43048  -8838902.68846  22663915.9214   22663920.0344
      1773.6094
   1013389.92448    836050.06947  21726871.8434   21726872.5224
     -2398.8754
  19263566.06047  14984408.16946  23797021.2104   23797024.5974
     -4163.7034
   -249673.63544   -113007.05845  25779118.4444   25779121.4914
      1302.9064
   -902641.23448   -649032.23246  22814978.6164   22814980.3744
     -2375.1874
  -7369023.22847  -1685499.06146  23624408.9134   23624412.4404
       579.9694
    -70989.05644                  26019010.5224
      2084.3594
  16020850.93546    784741.38546  24959314.6634   24959316.4334
     -4155.7664
 06  4 20 15 33  0.0030000  0  8G10G 2G 4G16G13G 6G27G23
 -11624960.73248  -8880203.94446  22653829.7574   22653833.6594
      1760.0944
   1085637.98848    892347.24947  21740620.2024   21740620.8944
     -2417.5004
  19388608.34347  15081843.68146  23820815.8904   23820819.4874
     -4172.2814
   -288533.72244   -143287.71945  25771722.7104   25771724.3394
      1287.9224
   -831086.03648   -593274.92346  22828595.0154   22828596.8904
     -2394.9694
  -7386156.29147  -1698849.32646  23621148.6634   23621152.2494
       562.4384
   -133426.57543                  26007127.0774
      2078.2814
  16145682.56946    882012.58346  24983069.2334   24983071.7294
     -4166.1724
 06  4 20 15 33 30.0030000  0  8G10G 2G 4G16G13G 6G27G23
 -11677553.67448  -8921185.44646  22643821.3664   22643825.3394
      1746.2194
   1158447.77448    949082.13747  21754475.4054   21754476.2264
     -2436.3594
  19513910.31147  15179481.53846  23844660.0224   23844663.4914
     -4181.0624
   -326938.63344   -173213.55845  25764414.6324   25764417.4444
      1272.5314
   -758934.06048   -537052.60446  22842325.0624   22842326.8314
     -2415.0164
  -7402759.60947  -1711787.06346  23617989.4444   23617993.2654
       544.5634
   -195676.59443    -30702.14045  25995281.1404   25995286.1794
      2071.8284
  16270829.64946    979529.55346  25006885.2104   25006886.8864
     -4176.8284
 06  4 20 15 34  0.0030000  0  8G10G 2G 4G16G13G 6G27G23
 -11729732.41148  -8961844.19947  22633892.1874   22633896.1944
      1732.3284
   1231819.85648   1006255.16947  21768437.4604   21768438.3154
     -2455.1414
  19639472.49547  15277322.16146  23868553.6084   23868556.7264
     -4189.7664
   -364884.46243   -202781.76945  25757193.5384   25757199.5504
      1257.1564
   -686184.91048   -480364.93946  22856168.8904   22856170.6364
     -2434.9534
  -7418829.04847  -1724308.62346  23614930.9374   23614934.6514
       526.6724
   -257735.14044    -79059.41245  25983473.5854   25983478.3784
      2065.3594
  16396291.78046   1077292.17546  25030759.2184   25030760.8354
     -4187.3444
 06  4 20 15 34 30.0030000  0  8G10G 2G 4G16G13G 6G27G23
 -11781499.29748  -9002182.02247  22624041.4054   22624045.3434
      1718.7504
   1305749.03548   1063862.30347  21782506.0854   21782506.7534
     -2473.5164
  19765288.84547  15375360.85246  23892496.1244   23892499.7104
     -4198.0004
   -402372.41144   -231993.12345  25750060.0224   25750063.7494
      1242.0164
   -612844.32448   -423216.39746  22870124.6324   22870126.5654
     -2454.4534
  -7434367.58047  -1736416.49846  23611974.3124   23611978.0154
       509.1564
   -319603.87445   -127268.78345  25971700.8664   25971705.6944
      2059.1564
  16522061.76945                  25054692.1404
     -4197.3594
 06  4 20 15 35  0.0030000  0  8G10G 2G 4G16G13G 6G27G23
 -11832851.75548  -9042196.92246  22614269.2964   22614273.3744
      1704.8444
   1380234.93348   1121903.23847  21796680.2334   21796681.0074
     -2492.1094
  19891358.19547  15473596.63446  23916485.7884   23916489.2224
     -4206.4844
   -439399.32644   -260845.19745  25743014.1014   25743017.3474
      1226.5474
   -538913.32248   -365607.79346  22884193.5854   22884195.8124
     -2474.1724
  -7449372.47547  -1748108.49246  23609118.5694   23609122.2024
       491.2974
   -381278.44344   -175326.79945  25959963.3824   25959970.4174
      2052.5784
  16648138.72145                  25078683.6324
     -4207.6414
 06  4 20 15 35 30.0030000  0  8G10G 2G 4G16G13G 6G27G23
 -11883787.34648  -9081886.98446  22604576.7184   22604580.6084
      1690.9694
   1455277.08748   1180377.61547  21810960.0854   21810960.9294
     -2510.5944
  20017679.36847  15572028.68946  23940524.2104   23940527.7724
     -4214.7814
   -475962.70545   -289336.17945  25736056.7654   25736060.4094
      1211.0944
   -464393.05848   -307540.02346  22898374.5074   22898376.5934
     -2493.7344
  -7463842.54947  -1759384.08446  23606365.4214   23606368.7614
       473.4844
   -442755.90644   -223231.29745  25948263.7804   25948268.5384
      2046.0314
  16774520.03545                  25102733.2804
     -4217.6724
 06  4 20 15 36  0.0030000  0  8G10G 2G 4G16G13G 6G27G23
 -11934307.04348  -9121252.97747  22594963.1164   22594966.9604
      1676.8284
   1530871.96048   1239282.68947  21825345.2264   21825346.3974
     -2529.2664
  20144247.82546  15670653.40946  23964609.1874   23964612.3624
     -4223.2664
   -512062.80945   -317466.13945  25729187.4214   25729189.6714
      1195.4224
   -389288.16247   -249016.67246  22912665.8194   22912667.8944
     -2513.4224
  -7477777.83047  -1770242.72346  23603713.8124   23603717.5034
       455.3754
   -504036.62044   -270982.42745  25936602.9294   25936609.5504
      2039.1724
  16901198.01045                  25126840.7184
     -4227.7974
 06  4 20 15 36 30.0040000  0  8G10G 2G 4G16G13G 6G27G23
 -11984411.68247  -9160295.54847  22585428.3094   22585432.4224
      1663.2194
   1607020.03348   1298618.83447  21839835.5274   21839836.7234
     -2547.2504
  20271064.73646  15769471.73046  23988741.5904   23988745.3054
     -4231.0784
   -547699.94045   -345235.39545  25722405.5664   25722405.1334
      1180.1884
   -313598.93247   -190037.98946  22927069.3944   22927071.4454
     -2532.4844
  -7491178.71947  -1780684.86646  23601163.7544   23601167.6334
       437.8284
   -565121.36945   -318580.91545  25924979.1294   25924983.1134
      2032.8594
  17028177.34645      3297.85245  25151003.0904   25151003.2894
     -4237.3284
 06  4 20 15 37  0.0040000  0  8G10G 2G 4G16G13G 6G27G23
 -12034096.58147  -9199011.04747  22575973.5514   22575977.7114
      1649.1724
   1683713.75948   1358380.15947  21854430.2074   21854431.1914
     -2565.5944
  20398119.63146  15868475.50646  24012919.2774   24012922.9344
     -4239.1874
   -582869.21145   -372639.95845  25715713.5514   25715716.7974
      1164.4844
   -237332.41047   -130609.48746  22941582.3324   22941584.4774
     -2551.8594
  -7504043.91747  -1790709.91446  23598715.2384   23598719.3284
       419.8754
   -626003.62845   -366021.56945  25913393.4734   25913398.5124
      2026.0314
  17155443.41145    102465.71745  25175221.0904   25175223.5744
     -4247.0164
 06  4 20 15 37 30.0040000  0  8G10G 2G 4G16G13G 6G27G23
 -12083361.47048  -9237399.26647  22566598.8244   22566602.7854
      1635.0314
   1760955.01048   1418568.12447  21869128.7304   21869129.5624
     -2583.9374
  20525415.24246  15967666.83946  24037142.8794   24037146.5124
     -4247.2814
   -617569.07945   -399678.73745  25709110.6524   25709114.2734
      1148.7194
   -160487.82647    -70730.54446  22956205.3094   22956207.1374
     -2571.2034
  -7516370.96447  -1800315.38046  23596369.5594   23596373.1444
       401.8134
   -686682.30445   -413303.61945  25901847.1134   25901852.1524
      2019.1094
  17282998.72445    201858.78945  25199495.1294   25199496.7234
     -4256.7814
 06  4 20 15 38  0.0040000  0  8G10G 2G 4G16G13G 6G27G23
 -12132203.99048  -9275458.37047  22557304.2934   22557308.6764
      1620.9224
   1838743.24648   1479182.30847  21883931.4414   21883932.2504
     -2602.1254
  20652950.15846  16067044.64946  24061412.0354   24061415.4454
     -4255.2034
   -651797.17545   -426349.89545  25702596.6444   25702600.6524
      1132.9534
    -83066.47347    -10402.17446  22970938.0124   22970939.8984
     -2590.4064
  -7528158.45047  -1809500.50646  23594126.3634   23594129.8324
       383.7814
   -747154.67945   -460424.89045  25890339.0664   25890342.6524
      2012.1724
  17410842.38245    301476.98145  25223822.3404   25223825.1294
     -4266.3594
 06  4 20 15 38 30.0040000  0  8G10G 2G 4G16G13G 6G27G23
 -12180624.33947  -9313188.50347  22548090.1684   22548094.1994
      1606.9844
   1917075.24648   1540220.20647  21898837.2304   21898838.3794
     -2620.0784
  20780720.70146  16166606.06546  24085726.1054   24085729.0944
     -4262.8914
   -685553.26545   -452653.37445  25696173.2694   25696176.0594
      1117.3284
     -5072.25647     50372.57546  22985780.1994   22985781.9804
     -2609.3124
  -7539406.51347  -1818265.18446  23591985.9344   23591989.6484
       365.9534
   -807419.72745   -507384.63345  25878871.5984   25878876.5194
      2005.3754
  17538971.50045    401318.90645  25248204.1914   25248204.3794
     -4275.5784
 06  4 20 15 39  0.0040000  0  8G10G 2G 4G16G13G 6G27G23
 -12228621.08547  -9350588.55847  22538956.6914   22538960.8404
      1592.6884
   1995949.53748   1601680.66447  21913846.7854   21913847.8284
     -2638.2974
  20908724.49246  16266349.21846  24110084.4654   24110087.8634
     -4270.7974
   -718835.16045   -478587.24345  25689838.6134   25689841.9304
      1101.3284
     73492.60947    111591.98746  23000730.1914   23000732.1724
     -2628.4694
  -7550114.62947  -1826609.09146  23589948.3324   23589952.8444
       347.7664
   -867475.65845   -554181.39745  25867443.5194   25867448.0784
      1998.2194
  17667378.18245    501375.67745  25272640.0044   25272642.3124
     -4284.7974
 06  4 20 15 39 30.0040000  0  8G10G 2G 4G16G13G 6G27G23
 -12276190.68947  -9387655.77347  22529904.6764   22529908.7074
      1578.5164
   2075366.57248   1663564.04747  21928959.3324   21928960.1994
     -2656.2664
  21036961.60546  16366274.18146  24134487.1374   24134490.8164
     -4278.4374
   -751639.01145   -504148.60245  25683597.8324   25683599.6604
      1085.4694
    152627.89047    173255.87346  23015789.1294   23015790.9924
     -2647.3444
  -7560279.20447  -1834529.47746  23588013.9734   23588017.6764
       329.7664
   -927317.82545   -600811.60045  25856055.5354   25856058.3714
      1991.1414
  17796059.85145                  25297129.3404
     -4294.3284
 06  4 20 15 40  0.0040000  0  8G10G 2G 4G16G13G 6G27G23
 -12323332.04448  -9424389.28447  22520934.1994   22520938.2074
      1564.3754
   2155324.41648   1725868.84247  21944175.1604   21944175.8164
     -2674.1094
  21165429.58646  16466379.06746  24158934.0904   24158938.3094
     -4285.9534
   -783963.52545   -529336.51345  25677445.6764   25677447.0004
      1069.6094
    232331.67847    235362.71746  23030956.3874   23030958.2274
     -2666.0784
  -7569900.08047  -1842026.40946  23586183.8634   23586187.1684
       311.7504
   -986944.32345   -647273.75545  25844708.4414   25844713.5514
      1984.0784
  17925024.89745                  25321669.4184
     -4303.1254
 06  4 20 15 40 30.0040000  0  8G10G 2G 4G16G13G 6G27G23
 -12370043.21747  -9460787.58747  22512044.9654   22512048.8324
      1549.7664
   2235822.15448   1788594.33147  21959493.0824   21959493.8324
     -2692.3284
  21294126.71546  16566662.49146  24183424.3164   24183427.9264
     -4293.7814
   -815805.62045   -554148.52345  25671386.4344   25671388.3554
      1053.2664
    312601.52347    297910.62846  23046231.0514   23046233.0194
     -2685.1564
  -7578975.14447  -1849097.97946  23584456.4414   23584459.6294
       293.3134
  -1046352.34645   -693565.63845  25833404.0744   25833409.8524
      1976.5164
  18054261.25245     16795.04845  25346261.3244   25346259.0274
     -4312.5004
 06  4 20 15 41  0.0040000  0  8G10G 2G 4G16G13G 6G27G23
 -12416325.96747  -9496852.05547  22503237.5514   22503241.6874
      1535.5004
   2316854.93548   1851736.74547  21974913.0514   21974914.0234
     -2710.0944
  21423047.87146  16667120.47346  24207957.0984   24207960.5784
     -4301.1874
   -847167.14745   -578586.06145  25665418.6444   25665422.9344
      1037.2344
    393432.19247    360895.53246  23061612.7234   23061614.9844
     -2703.7814
  -7587506.38547  -1855745.72046  23582833.4344   23582836.9494
       275.2034
  -1105542.96745   -739688.10345  25822139.3484   25822144.2694
      1969.2504
  18183764.61145    117706.91245  25370906.3244   25370910.6484
     -4321.2974
 06  4 20 15 41 30.0040000  0  8G10G 2G 4G16G13G 6G27G23
 -12462176.18748  -9532579.49047  22494512.8794   22494516.7694
      1521.0474
   2398423.44348   1915296.60447  21990435.0124   21990436.0554
     -2727.9374
  21552193.32946  16767753.26246  24232532.5124   24232536.0044
     -4308.6254
   -878043.53645   -602645.63645  25659543.4804   25659547.2664
      1021.0164
    474824.07447    424317.77146  23077101.2854   23077102.8794
     -2722.4694
  -7595490.40247  -1861967.02746  23581314.2464   23581317.7734
       256.9064
  -1164511.02545   -785637.19645  25810918.6844   25810923.3364
      1961.7974
  18313536.25345    218828.15045  25395600.7234   25395600.4534
     -4330.2194
 06  4 20 15 42  0.0040000  0  8G10G 2G 4G16G13G 6G27G23
 -12507590.45047  -9567967.21947  22485870.6684   22485874.5234
      1506.5944
   2480528.44448   1979274.50747  22006059.4414   22006060.4374
     -2745.6874
  21681563.34346  16868561.01346  24257150.8014   24257154.3754
     -4315.9844
   -908430.55045   -626323.86145  25653761.0124   25653763.8594
      1004.7974
    556777.17547    488177.31846  23092696.6214   23092698.4374
     -2741.0164
  -7602923.86047  -1867759.32446  23579899.5124   23579902.7934
       238.7034
  -1223252.27045   -831409.54245  25799740.7934   25799745.6564
      1954.2974
  18443573.82845    320156.45345  25420344.6374   25420346.7934
     -4338.9694
 06  4 20 15 42 30.0040000  0  8G10G 2G 4G16G13G 6G27G23
 -12552569.11447  -9603015.53247  22477311.3164   22477315.4064
      1492.0004
   2563166.28148   2043667.61147  22021784.7624   22021785.6054
     -2763.4694
  21811153.85446  16969540.58146  24281811.3164   24281815.7934
     -4323.3444
   -938328.33645   -649620.89045  25648070.6914   25648073.1524
       988.4534
    639287.08247    552470.69846  23108397.7154   23108399.3444
     -2759.5944
  -7609807.68147  -1873123.30946  23578588.7854   23578592.5004
       220.2974
  -1281766.25545   -877004.81045  25788605.0354   25788610.8364
      1946.6414
  18573872.35045    421687.99345  25445139.9344   25445142.1954
     -4347.6094
 06  4 20 15 43  0.0040000  0  8G10G 2G 4G16G13G 6G27G23
 -12597109.95647  -9637722.67047  22468835.3794   22468839.6564
      1477.1724
   2646336.27948   2108475.38547  22037611.2624   22037612.3054
     -2781.4064
  21940963.46646  17070690.88546  24306512.8094   24306516.7694
     -4330.8284
   -967734.34945   -672534.64045  25642475.8404   25642477.4104
       971.7504
    722352.63847    617197.07246  23124204.5904   23124206.3364
     -2778.2974
  -7616140.21447  -1878057.76546  23577384.6054   23577388.2734
       201.6724
  -1340049.89045   -922420.54945  25777514.3164   25777520.4224
      1938.7344
  18704431.06945    523422.56545  25469982.9964   25469984.8484
     -4356.5004
 06  4 20 15 43 30.0040000  0  8G10G 2G 4G16G13G 6G27G23
 -12641209.74247  -9672086.12547  22460443.6604   22460447.9494
      1462.7344
   2730038.92248   2173698.20847  22053539.1054   22053540.0904
     -2798.8284
  22070992.14746  17172011.88146  24331256.4184   24331260.8594
     -4337.8124
   -996644.51345   -695062.02545  25636974.5044   25636975.7814
       955.5164
    805973.53347    682356.15746  23140116.8794   23140118.6724
     -2796.4694
  -7621918.42347  -1882560.32446  23576285.1994   23576288.5394
       183.4844
  -1398099.12345   -967653.66945  25766467.1294   25766472.7424
      1931.1724
  18835247.68745    625357.88045  25494878.0904   25494880.7504
     -4364.7034
 06  4 20 15 44  0.0040000  0  8G10G 2G 4G16G13G 6G27G23
 -12684868.85748  -9706106.20247  22452135.6054   22452139.8484
      1447.7664
   2814270.30148   2239333.02947  22069567.9654   22069568.8554
     -2816.6874
  22201235.74446  17273500.33846  24356041.8094   24356045.3364
     -4345.2034
  -1025059.10545   -717203.34945  25631566.6214   25631568.8714
       938.6884
    890145.29647    747944.52646  23156134.2384   23156136.6764
     -2815.0474
  -7627143.26247  -1886631.66146  23575290.6994   23575294.6484
       164.7344
  -1455913.53045  -1012703.79945  25755466.8944   25755472.0864
      1923.0164
  18966318.53145    727491.49945  25519819.8094   25519821.0394
     -4373.3754
 06  4 20 15 44 30.0040000  0  8G10G 2G 4G16G13G 6G27G23
 -12728089.07248  -9739784.28147  22443911.0194   22443915.1214
      1433.4694
   2899025.72148   2305376.21247  22085696.9414   22085697.4694
     -2833.7664
  22331689.04046  17375152.21246  24380865.9264   24380869.5004
     -4351.8124
  -1052979.03345   -738959.05545  25626255.2464   25626259.3594
       922.5004
    974862.49347                  23172255.4024
     -2832.8444
  -7631816.80347  -1890273.37446  23574401.1914   23574405.1994
       146.7194
  -1513493.68845  -1057571.37245  25744509.4884   25744514.6444
      1915.5314
  19097635.43545    829815.91945  25544809.7544   25544810.6094
     -4381.2194
 06  4 20 15 45  0.0040000  0  8G10G 2G 4G16G13G 6G27G23
 -12770867.57448  -9773118.18047  22435770.5044   22435774.5824
      1418.6094
   2984305.03148   2371827.61247  22101924.7854   22101925.4064
     -2851.3124
  22462351.48246  17476967.04646  24405730.4344   24405734.0554
     -4358.8124
  -1080401.51745   -760327.01145  25621035.6764   25621038.0194
       905.8134
   1060124.32847                  23188480.5594
     -2851.0624
  -7635936.68047  -1893483.68546  23573617.0664   23573621.0984
       128.1414
  -1570835.76345  -1102253.44045  25733597.8944   25733601.7974
      1907.4384
  19229197.51745    932331.06545  25569844.5744   25569849.3794
     -4389.4534
 06  4 20 15 45 30.0040000  0  8G10G 2G 4G16G13G 6G27G23
 -12813198.33548  -9806103.19347  22427715.3484   22427719.6954
      1403.4224
   3070110.95248   2438689.35947  22118253.3874   22118253.9964
     -2869.0944
  22593225.47446  17578946.73146  24430634.7304   24430638.0004
     -4366.0784
  -1107320.07345   -781302.30445  25615912.6994   25615916.3204
       888.7344
   1145933.02347                  23204808.8094
     -2869.5164
  -7639497.59547  -1896258.51946  23572939.1844   23572943.6374
       109.2504
  -1627933.36145  -1146745.02145  25722732.3874   25722736.9804
      1899.0314
  19361010.17945                  25594928.5744
     -4397.9224
 06  4 20 15 46  0.0040000  0  8G10G 2G 4G16G13G 6G27G23
 -12855080.09448  -9838738.34147  22419745.4344   22419749.5824
      1388.6564
   3156441.64348   2505959.99047  22134681.0664   22134682.1444
     -2886.3284
  22724308.97646  17681089.66346  24455579.5274   24455582.7734
     -4372.8124
  -1133733.42445   -801884.28645  25610885.6844   25610886.8794
       872.0944
   1232286.13147                  23221242.0194
     -2887.3914
  -7642498.43547  -1898596.90546  23572368.7624   23572372.3124
        90.7974
  -1684783.87845  -1191044.06345  25711913.5904   25711918.7234
      1890.9534
  19493067.50745                  25620055.8014
     -4405.8914
 06  4 20 15 46 30.0040000  0  8G10G 2G 4G16G13G 6G27G23
 -12896512.38348  -9871023.25847  22411860.9734   22411865.1094
      1373.5004
   3243294.50448   2573637.53647  22151208.9264   22151209.7114
     -2903.8444
  22855598.87946  17783393.42446  24480563.3714   24480567.1444
     -4379.8284
  -1159640.11845   -822071.24045  25605957.0044   25605959.1844
       855.0474
   1319180.46247      4524.42346  23237777.6374   23237780.6484
     -2905.5624
  -7644939.30247  -1900498.94146  23571904.5124   23571908.0274
        71.9694
  -1741385.98345  -1235149.56445  25701142.9184   25701147.9804
      1882.5004
  19625366.01745     72178.42545  25645231.3094   25645233.0784
     -4414.0624
 06  4 20 15 47  0.0040000  0  8G10G 2G 4G16G13G 6G27G23
 -12937492.44748  -9902955.79847  22404063.0744   22404067.2584
      1358.4844
   3330669.07848   2641721.60547  22167835.8944   22167836.6914
     -2921.1254
  22987094.33346  17885857.36346  24505585.9964   24505589.6294
     -4386.5474
  -1185037.70645   -841861.76845  25601124.0984   25601124.2974
       838.0944
   1406614.71347     72654.94746  23254415.3794   23254417.8284
     -2923.4064
  -7646818.13447  -1901963.05746  23571546.6844   23571550.4454
        53.2664
  -1797736.25245  -1279058.79545  25690418.9264   25690424.3164
      1874.1564
  19757903.50545    175454.20845  25670454.7304   25670459.7464
     -4421.8284
 06  4 20 15 47 30.0040000  0  8G10G 2G 4G16G13G 6G27G23
 -12978021.37948  -9934536.80547  22396350.7464   22396354.7544
      1343.5004
   3418561.43848   2710209.12747  22184560.9964   22184561.8054
     -2938.2814
  23118790.88446  17988477.98946  24530646.9734   24530650.8524
     -4393.1414
  -1209926.33345   -861255.59945  25596388.7154   25596391.2114
       821.1884
   1494584.23047    141202.62446  23271155.7074   23271157.5354
     -2941.1414
  -7648136.21347  -1902990.08646  23571295.8404   23571299.7774
        34.6724
  -1853834.61745  -1322771.73045  25679744.4654   25679747.9104
      1865.7974
  19890676.04045    278913.62645  25695718.2774   25695721.5124
     -4429.6094
 06  4 20 15 48  0.0040000  0  8G10G 2G 4G16G13G 6G27G23
 -13018096.87548  -9965764.48147  22388724.6374   22388728.8444
      1328.2034
   3506970.97348   2779099.64947  22201384.7544   22201385.6564
     -2955.6414
  23250687.60246  18091254.59446  24555746.2694   24555750.5704
     -4399.9224
  -1234303.47945   -880250.86845  25591749.2384   25591752.0624
       803.9534
   1583087.84747    210166.45946  23287997.2694   23287999.3914
     -2959.0624
  -7648891.77647  -1903578.88146  23571152.2074   23571155.9694
        15.7344
  -1909678.10045  -1366286.04145  25669116.6134   25669122.8244
      1857.0944
  20023681.32345    382554.47245  25721029.6444   25721031.9654
     -4437.4064
 06  4 20 15 48 30.0040000  0  8G10G 2G 4G16G13G 6G27G23
 -13057718.59548  -9996638.57047  22381184.5594   22381188.6604
      1313.4064
   3595894.31148   2848390.54447  22218306.3874   22218307.3594
     -2972.3914
  23382781.28646  18194184.68646  24580882.7234   24580886.8594
     -4406.1414
  -1258168.39945   -898847.09545  25587207.4884   25587210.2424
       787.2034
   1672121.71847    279543.46446  23304939.9654   23304942.0164
     -2976.3594
  -7649085.00947  -1903729.38546  23571115.4024   23571119.0004
        -2.6724
  -1965265.23245  -1409600.64145  25658539.2934   25658544.8244
      1848.8594
  20156915.72945    486374.00045  25746381.7234   25746384.1374
     -4444.6254
 06  4 20 15 49  0.0040000  0  8G10G 2G 4G16G13G 6G27G23
 -13096883.16448 -10027156.42847  22373732.0434   22373736.1444
      1298.0784
   3685331.95248   2918082.18647  22235325.8244   22235326.8914
     -2989.5784
  23515071.85346  18297268.18846  24606056.8874   24606061.0594
     -4412.7344
  -1281517.14445   -917040.97445  25582764.9264   25582767.3164
       769.8754
   1761685.74947    349333.61946  23321983.1444   23321985.4654
     -2994.0474
  -7648713.04747  -1903439.45546  23571186.2304   23571189.9454
       -21.6094
  -2020591.86645  -1452712.28145  25648010.4884   25648015.9144
      1840.0784
  20290377.18545    590369.93345  25771776.9654   25771777.7034
     -4452.2974
 06  4 20 15 49 30.0040000  0  8G10G 2G 4G16G13G 6G27G23
 -13135594.07048 -10057320.77447  22366365.6524   22366369.7774
      1282.5784
   3775277.42248   2988169.54447  22252442.0744   22252442.9884
     -3006.8284
  23647552.49546  18400499.80746  24631267.0664   24631270.9454
     -4419.3754
  -1304353.11545   -934835.27045  25578419.0514   25578422.9534
       752.4534
   1851772.45647    419530.99846  23339126.1844   23339128.4104
     -3011.7814
  -7647780.03147  -1902712.43446  23571363.3634   23571367.5354
       -40.6414
  -2075660.54845  -1495622.89545  25637531.5194   25637536.4654
      1831.0784
  20424059.25945    694538.00345  25797217.4344   25797221.3834
     -4459.8754
 06  4 20 15 50  0.0040000  0  8G10G 2G 4G16G13G 6G27G23
 -13173841.65748 -10087124.08247  22359087.2544   22359091.3444
      1267.0004
   3865737.08348   3058657.57447  22269655.7934   22269656.8364
     -3024.0474
  23780229.22646  18503884.21546  24656514.9104   24656518.5664
     -4425.9694
  -1326666.59545   -952222.51845  25574173.0514   25574173.0514
       734.8754
   1942387.73947    490140.29046  23356369.7624   23356371.9654
     -3029.4694
  -7646277.31347  -1901541.64446  23571649.4734   23571653.5984
       -59.7814
  -2130460.44545  -1538324.06645  25627104.0354   25627108.8524
      1821.9844
  20557966.39245    798880.92845  25822699.4344   25822701.5784
     -4467.5004
 06  4 20 15 50 30.0040000  0  8G10G 2G 4G16G13G 6G27G23
 -13211626.80148 -10116567.03747  22351896.9494   22351900.9694
      1251.8134
   3956706.66948   3129542.95247  22286966.4264   22286967.6094
     -3040.7664
  23913098.02546  18607418.28546  24681798.7854   24681802.4184
     -4432.1094
  -1348458.02545   -969202.89945  25570026.8714   25570030.2114
       717.6884
   2033526.68147    561157.60846  23373712.8244   23373714.9924
     -3046.6414
  -7644205.80847  -1899927.51746  23572043.7544   23572047.7854
       -78.5164
  -2184991.42245  -1580815.72145  25616726.3874   25616731.0514
      1813.2344
  20692094.92145    903397.04845  25848221.3634   25848222.4654
     -4474.5624
 06  4 20 15 51  0.0040000  0  8G10G 2G 4G16G13G 6G27G23
 -13248949.37448 -10145649.53347  22344794.9654   22344798.6214
      1236.3914
   4048183.63548   3200823.69447  22304374.0434   22304375.2974
     -3057.6414
  24046155.54846  18711099.42346  24707118.8484   24707122.5744
     -4438.3444
  -1369726.23945   -985775.54545  25565979.7304   25565981.6414
       700.2034
   2125186.30547    632580.65946  23391154.8164   23391156.9144
     -3063.9534
  -7641565.39947  -1897870.02546  23572546.0354   23572549.7734
       -97.4844
  -2239252.66045  -1623097.14845  25606401.6294   25606406.3164
      1804.2034
  20826440.39645   1008082.17945  25873788.4024   25873789.1874
     -4481.7344
 06  4 20 15 51 30.0040000  0  8G10G 2G 4G16G13G 6G27G23
 -13285807.40048 -10174370.04247  22337780.9884   22337784.7624
      1220.8594
   4140166.86348   3272498.91647  22321878.0354   22321879.0784
     -3074.5164
  24179400.48246  18814926.58546  24732474.5824   24732478.0274
     -4444.5784
  -1390469.91445  -1001939.46445  25562032.3554   25562034.1844
       682.6884
   2217364.74947    704407.97346  23408696.2234   23408698.0514
     -3081.2034
  -7638355.62747  -1895368.93346  23573157.0664   23573161.0044
      -116.4534
  -2293241.26045  -1665166.17445  25596127.4654   25596133.0784
      1795.0784
  20960999.96045   1112933.75145  25899392.8484   25899398.0864
     -4488.9064
 06  4 20 15 52  0.0040000  0  8G10G 2G 4G16G13G 6G27G23
 -13322199.72048 -10202727.68547  22330855.8244   22330859.5624
      1205.3444
   4232654.41048   3344567.11847  22339477.9734   22339479.0274
     -3091.2504
  24312830.70246  18918898.12946  24757865.4024   24757869.5864
     -4450.7034
  -1410686.91545  -1017693.13245  25558185.0904   25558186.9534
       665.1724
   2310059.23847    776637.39246  23426335.4024   23426337.2424
     -3098.3284
  -7634575.32847  -1892423.18046  23573876.6134   23573880.2934
      -135.4694
  -2346955.04645  -1707021.01845  25585906.5514   25585911.0514
      1785.8914
  21095771.55744   1217950.91145  25925037.9104   25925040.1724
     -4495.8444
 06  4 20 15 52 30.0040000  0  7G10G 2G 4G16G13G 6G27
 -13358122.07348 -10230719.10347  22324020.1994   22324023.8794
      1189.4694
   4325646.73548   3417028.65247  22357173.7464   22357174.7894
     -3108.2664
  24446446.73646  19023014.45346  24783291.6764   24783295.6604
     -4457.0474
  -1430372.66345  -1033032.53945  25554438.8944   25554443.1724
       647.2194
   2403269.61247    849268.77646  23444072.7544   23444074.9224
     -3115.7034
  -7630221.31447  -1889030.45446  23574704.8484   23574708.6214
      -154.8284
  -2400389.16745  -1748657.95945  25575738.5194   25575742.8794
      1776.3284
 06  4 20 15 53  0.0040000  0  7G10G 2G 4G16G13G 6G27
 -13393574.09948 -10258344.03947  22317273.4654   22317277.3794
      1173.7814
   4419141.40448   3489881.62247  22374964.8014   22374966.0554
     -3124.9374
  24580245.97846  19127273.56146  24808752.9734   24808757.0164
     -4463.1094
  -1449527.00545  -1047958.04645  25550794.2854   25550796.1844
       629.4694
   2496992.89047    922299.85046  23461908.0274   23461910.2894
     -3132.7344
  -7625293.40447  -1885190.46146  23575642.8634   23575646.4494
      -173.9224
  -2453541.75945  -1790075.49845  25565624.8714   25565628.4344
      1766.9534
 06  4 20 15 53 30.0040000  0  7G10G 2G 4G16G13G 6G27
 -13428554.68548 -10285601.62547  22310616.9654   22310620.8554
      1158.2814
   4513136.56748   3563124.59647  22392851.6914   22392852.9804
     -3141.3754
  24714226.08846  19231673.58446  24834248.2774   24834252.5784
     -4468.8754
  -1468148.54445  -1062468.40345  25547250.5194   25547254.1994
       611.9384
   2591226.84647    995728.84446  23479839.3794   23479842.2154
     -3149.4844
  -7619791.40347  -1880903.15846  23576689.6134   23576693.4344
      -192.8754
  -2506410.81945  -1831272.10545  25555562.5744   25555566.2194
      1757.6884
 06  4 20 15 54  0.0040000  0  7G10G 2G 4G16G13G 6G27
 -13463065.04448 -10312492.78547  22304049.7624   22304053.6174
      1142.2974
   4607627.80048   3636754.11247  22410833.1604   22410834.2624
     -3158.1564
  24848382.69846  19336211.15246  24859777.1214   24859781.2584
     -4475.0004
  -1486238.09645  -1076564.36645  25543807.8874   25543809.9734
       593.8754
   2685966.47247   1069551.90146  23497868.1604   23497870.5394
     -3166.5944
  -7613716.93147  -1876169.75946  23577845.4344   23577849.1724
      -212.2344
  -2558996.38245  -1872247.82745  25545555.1994   25545560.2624
      1747.9064
 06  4 20 15 54 30.0040000  0  7G10G 2G 4G16G13G 6G27
 -13497098.18548 -10339012.09347  22297573.4804   22297577.4884
      1126.5634
   4702618.78748   3710773.04747  22428909.3794   22428910.2934
     -3174.5784
  24982719.29646  19440888.96146  24885340.8874   24885345.1524
     -4480.7814
  -1503788.27645  -1090240.04345  25540469.9414   25540472.9304
       576.0944
   2781214.64647   1143771.25246  23515993.7934   23515995.8324
     -3183.2974
  -7607063.72047  -1870985.43746  23579111.2624   23579115.1874
      -231.3444
  -2611290.70645  -1912996.60045  25535604.0194   25535609.5624
      1738.3594
 06  4 20 15 55  0.0040000  0  7G10G 2G 4G16G13G 6G27
 -13530652.21948 -10365158.07147  22291188.5984   22291192.5124
      1110.6884
   4798108.45348   3785180.55847  22447080.4734   22447081.2694
     -3191.0624
  25117234.63746  19545706.05846  24910938.3944   24910943.4694
     -4486.5944
  -1520796.46145  -1103492.98045  25537232.5044   25537235.6564
       558.1414
   2876969.32247   1218385.21146  23534215.5354   23534216.9064
     -3200.0164
  -7599830.47047  -1865349.10746  23580488.1684   23580492.0354
      -250.5624
  -2663290.86245  -1953516.13245  25525709.2624   25525714.2194
      1728.6254
 06  4 20 15 55 30.0040000  0  7G10G 2G 4G16G13G 6G27
 -13563730.38248 -10390933.25047  22284893.7304   22284897.8094
      1094.3914
   4894090.43448   3859971.69147  22465344.8874   22465345.7424
     -3207.8754
  25251922.14746  19650657.30246  24936568.8634   24936572.8364
     -4492.7034
  -1537266.50045  -1116327.05845  25534097.5664   25534101.0704
       539.7194
   2973223.78047   1293388.60646  23552532.1054   23552533.7584
     -3217.0624
  -7592021.16047  -1859263.93746  23581974.1374   23581977.5944
      -270.1724
  -2714998.96345  -1993808.11445  25515869.7304   25515873.7854
      1718.4384
 06  4 20 15 56  0.0040000  0  7G10G 2G 4G16G13G 6G27
 -13596323.18448 -10416330.21947  22278691.4574   22278695.3944
      1078.3914
   4990571.01848   3935151.34647  22483704.5984   22483705.7344
     -3224.2344
  25386788.18046  19755747.65146  24962233.1374   24962236.5354
     -4498.4374
  -1553187.75045  -1128733.01545  25531067.6134   25531071.0004
       521.6414
   3069983.51147   1368785.75246  23570944.1684   23570946.4414
     -3233.6414
  -7583626.91647  -1852722.98446  23583571.4414   23583575.0044
      -289.4844
  -2766404.69145  -2033864.46545  25506087.9964   25506092.4494
      1708.5164
 06  4 20 15 56 30.0040000  0  7G10G 2G 4G16G13G 6G27
 -13628429.77348 -10441348.30047  22272581.6294   22272585.6024
      1062.1414
   5087547.65048   4010717.53347  22502158.5434   22502159.6564
     -3240.7664
  25521829.77246  19860974.80546  24987930.6374   24987934.4344
     -4504.2504
  -1568560.45745  -1140711.79145  25528142.2304   25528145.3944
       503.3284
   3167245.59847   1444574.33246  23589453.0274   23589454.9024
     -3250.3914
  -7574647.68547  -1845726.15946  23585280.3714   23585284.1444
      -309.0164
  -2817506.29645  -2073683.87345  25496363.0904   25496367.9774
      1698.3594
 06  4 20 15 57  0.0040000  0  7G10G 2G 4G16G13G 6G27
 -13660047.50948 -10465985.47347  22266565.0514   22266569.0354
      1045.8134
   5185019.86548   4086669.88747  22520707.2854   22520708.1874
     -3257.2664
  25657046.87246  19966338.72846  25013661.7384   25013665.4534
     -4510.0624
  -1583381.10745  -1152260.40145  25525323.0434   25525324.9414
       484.8134
   3265009.31447   1520753.84546  23608056.8714   23608058.7344
     -3267.0624
  -7565081.38147  -1838271.92346  23587100.3944   23587104.4734
      -328.6254
  -2868299.94045  -2113263.29545  25486697.3014   25486703.1604
      1688.0004
 06  4 20 15 57 30.0040000  0  7G10G 2G 4G16G13G 6G27
 -13691176.32648 -10490241.67847  22260641.5904   22260645.4924
      1029.2664
   5282984.78948   4163006.16847  22539349.6134   22539350.5044
     -3273.8754
  25792436.16646  20071836.81245  25039425.0434   25039429.5194
     -4516.0164
  -1597649.64745                  25522607.1914
       466.1724
   3363270.36147   1597320.86046  23626755.6134   23626757.3014
     -3283.8284
  -7554928.70247  -1830360.75046  23589032.5664   23589036.4694
      -348.4064
  -2918784.50745  -2152601.86945  25477089.6914   25477094.6484
      1677.4694
 06  4 20 15 58  0.0040000  0  7G10G 2G 4G16G13G 6G27
 -13721811.13648 -10514112.94047  22254811.9104   22254815.8244
      1012.9224
   5381444.27048   4239727.82647  22558085.3874   22558086.5004
     -3290.2034
  25927999.46146  20177470.49446  25065222.2774   25065225.6294
     -4521.6564
  -1611358.95745                  25519999.0354
       447.6724
   3462030.43847   1674276.73946  23645549.0194   23645550.7194
     -3300.2814
  -7544185.03947  -1821989.04746  23591077.3324   23591081.2934
      -367.9534
  -2968953.68545  -2191694.69745  25467543.2694   25467548.3554
      1667.0474
 06  4 20 15 58 30.0040000  0  7G10G 2G 4G16G13G 6G27
 -13751954.17348 -10537601.00747  22249075.9574   22249080.0474
       996.5164
   5480393.09548   4316830.78247  22576914.9654   22576915.9144
     -3306.4694
  26063731.47646  20283235.62245  25091051.1914   25091054.3444
     -4527.2194
  -1624513.24245                  25517495.1684
       429.1564
   3561283.54147   1751616.79446  23664435.9654   23664437.3594
     -3316.6564
  -7532853.32247  -1813159.09246  23593233.2624   23593237.0594
      -387.5624
  -3018809.02545  -2230542.96345  25458055.7544   25458061.1094
      1656.5474
 06  4 20 15 59  0.0040000  0  7G10G 2G 4G16G13G 6G27
 -13781604.93948 -10560705.49447  22243433.6764   22243437.4144
       980.1884
   5579828.32348   4394312.75047  22595836.9964   22595838.1564
     -3322.5474
  26199629.36546  20389130.01146  25116911.9494   25116915.5944
     -4532.5944
  -1637111.35145     -7156.21745  25515098.8484   25515101.1334
       410.6724
   3661026.22047   1829338.30246  23683416.5824   23683418.4694
     -3332.8444
  -7520934.09347  -1803871.44346  23595501.6294   23595505.1804
      -407.0624
  -3068348.78045  -2269145.33545  25448628.3324   25448634.1094
      1646.0944
 06  4 20 15 59 30.0040000  0  7G10G 2G 4G16G13G 6G27
 -13810761.66448 -10583425.02147  22237885.3484   22237888.9804
       963.7034
   5679748.65448   4472172.71847  22614851.1844   22614852.3204
     -3338.6724
  26335691.70946  20495152.55045  25142803.9344   25142806.8404
     -4538.0474
  -1649150.95645    -16537.60045  25512807.7624   25512807.3984
       392.0474
   3761256.41147   1907439.75346  23702489.7464   23702491.3754
     -3349.0474
  -7508426.24647  -1794125.02146  23597882.1524   23597885.7734
      -426.6874
  -3117570.45145  -2307499.84545  25439262.0354   25439266.7114
      1635.4534
 06  4 20 16  0  0.0040000  0  7G10G 2G 4G16G13G 6G27
 -13839420.70748 -10605756.70447  22232431.5274   22232435.1374
       946.9844
   5780154.33048   4550410.87647  22633957.7544   22633958.7974
     -3354.9224
  26471918.88446  20601303.51946  25168727.4184   25168731.8364
     -4543.6254
  -1660627.95645    -25480.40445  25510622.5744   25510624.6134
       373.2034
   3861974.21347   1985921.20646  23721655.5824   23721657.6214
     -3365.3594
  -7495326.82047  -1783917.66746  23600374.3484   23600378.1444
      -446.5314
  -3166468.91245  -2345602.49746  25429957.3484   25429962.3284
      1624.5474
 06  4 20 16  0 30.0040000  0  7G10G 2G 4G16G13G 6G27
 -13867580.18748 -10627699.12947  22227073.1214   22227076.9184
       930.4694
   5881044.31848   4629026.42347  22653156.3404   22653157.4414
     -3370.8754
  26608309.72746  20707582.02545  25194681.4964   25194685.8554
     -4548.9064
  -1671541.20045    -33983.94645  25508545.9884   25508547.2304
       354.5004
   3963177.38047   2064780.83746  23740913.7154   23740916.0124
     -3381.3444
  -7481634.88047  -1773248.60746  23602979.9964   23602983.8754
      -466.1254
  -3215041.67346  -2383451.33046  25420715.2544   25420720.6334
      1613.7974
 06  4 20 16  1  0.0040000  0  7G10G 2G 4G16G13G 6G27
 -13895240.04048 -10649252.25447  22221809.4024   22221813.2234
       913.7344
   5982415.59348   4708016.99347  22672446.5274   22672447.5124
     -3386.9534
  26744861.05146  20813985.57345  25220666.6994   25220669.4534
     -4554.2814
  -1681889.75545    -42047.45545  25506575.2624   25506578.6954
       335.6254
   4064862.36647   2144015.92646  23760263.5744   23760265.7664
     -3397.4224
  -7467350.93647  -1762118.28846  23605698.3014   23605702.1214
      -485.8914
  -3263287.61246  -2421045.52746  25411533.2234   25411537.3944
      1602.7974
 06  4 20 16  1 30.0040000  0  7G10G 2G 4G16G13G 6G27
 -13922400.47848 -10670416.22147  22216640.8944   22216644.6684
       896.6724
   6084264.53547   4787379.77647  22691827.8794   22691829.0624
     -3403.2344
  26881569.64445  20920511.67045  25246681.1214   25246685.0234
     -4559.8754
  -1691674.30545    -49671.57045  25504714.6214   25504718.2304
       316.3754
   4167025.27847   2223623.37046  23779704.7464   23779706.8204
     -3413.7034
  -7452476.01247  -1750527.45146  23608528.7854   23608532.5124
      -506.0164
  -3311205.55846  -2458384.15146  25402414.8944   25402418.4344
      1591.4224
 06  4 20 16  2  0.0040000  0  7G10G 2G 4G16G13G 6G27
 -13949057.40148 -10691187.83847  22211568.5664   22211572.3164
       880.4064
   6186592.27247   4867115.65347  22711300.0194   22711301.1334
     -3418.6414
  27018436.35045  21027160.98645  25272727.0434   25272730.7584
     -4564.6094
  -1700890.58345    -56852.95945  25502959.4884   25502963.3794
       297.9844
   4269666.35147   2303603.35046  23799236.7624   23799238.6604
     -3429.0784
  -7437006.73647  -1738473.44146  23611472.7854   23611476.4414
      -525.2974
  -3358790.52746  -2495463.27346  25393359.4264   25393363.7504
      1580.8444
 06  4 20 16  2 30.0040000  0  7G10G 2G 4G16G13G 6G27
 -13975210.84948 -10711567.15547  22206591.5594   22206595.2504
       863.4844
   6289395.66448   4947222.16847  22730863.4104   22730864.3944
     -3434.5784
  27155457.93845  21133930.96745  25298800.6444   25298804.0194
     -4569.8124
  -1709538.24945    -63591.41645  25501314.5124   25501315.4844
       278.8594
   4372781.97347   2383953.16146  23818858.9964   23818860.8834
     -3444.9534
  -7420943.78547  -1725956.78446  23614528.8874   23614532.8714
      -545.2194
  -3406041.52046  -2532282.16145  25384368.7154   25384373.1564
      1569.5474
 06  4 20 16  3  0.0040000  0  7G10G 2G 4G16G13G 6G27
 -14000860.52848 -10731553.91847  22201710.7624   22201714.5944
       846.6094
   6392671.51647   5027696.84447  22750515.9884   22750517.0434
     -3450.3594
  27292631.48745  21240819.36845  25324903.7854   25324907.2304
     -4574.9534
  -1717617.20745    -69886.62745  25499776.9654   25499781.5124
       259.8284
   4476368.25347   2464669.73846  23838571.0194   23838573.4694
     -3460.6874
  -7404288.24147  -1712978.43046  23617698.1994   23617702.2304
      -565.0474
  -3452957.47646  -2568840.01246  25375439.8554   25375443.8984
      1558.2664
 06  4 20 16  3 30.0040000  0  7G10G 2G 4G16G13G 6G27
 -14026005.86048 -10751147.67347  22196925.6844   22196929.5864
       829.7034
   6496417.24948   5108537.64447  22770258.1214   22770259.3054
     -3466.0784
  27429954.86145  21347824.53245  25351036.3554   25351041.8754
     -4579.9694
  -1725126.60145    -75738.09745  25498348.3794   25498350.6764
       240.7664
   4580422.58147   2545751.03146  23858371.7234   23858374.1024
     -3476.2974
  -7387039.82147  -1699538.02146  23620980.3164   23620984.7584
      -584.8914
  -3499536.16146  -2605135.05246  25366577.2074   25366581.2154
      1546.9064
 06  4 20 16  4  0.0040000  0  7G10G 2G 4G16G13G 6G27
 -14050643.77348 -10770346.02847  22192236.8404   22192240.8244
       812.9384
   6600633.24547   5189744.88647  22790089.6994   22790090.9064
     -3481.5474
  27567427.97345  21454946.34245  25377195.9804   25377200.4454
     -4584.7504
  -1732063.35945    -81143.58845  25497029.1054   25497030.3364
       221.7814
   4684943.99747   2627196.25046  23878261.4574   23878263.9064
     -3491.6724
  -7369196.46747  -1685634.10646  23624376.0354   23624379.9614
      -604.5784
  -3545773.54446  -2641164.10246  25357778.3014   25357782.6604
      1535.6724
 06  4 20 16  4 30.0040000  0  7G10G 2G 4G16G13G 6G27
 -14074773.67748 -10789148.57047  22187645.4734   22187649.3634
       795.8754
   6705316.87747   5271316.52547  22810010.6444   22810011.7234
     -3497.1874
  27705048.31245  21562182.88945  25403384.1134   25403388.4374
     -4589.7344
  -1738426.18145    -86101.56945  25495817.9734   25495820.5744
       202.5784
   4789929.45047   2709003.10546  23898239.6844   23898242.1444
     -3507.1874
  -7350758.44347  -1671266.81646  23627884.9654   23627888.8914
      -624.5004
  -3591667.89446  -2676925.85446  25349043.4654   25349047.8484
      1524.1094
 06  4 20 16  5  0.0040000  0  7G10G 2G 4G16G13G 6G27
 -14098395.48748 -10807555.16547  22183149.9494   22183153.9924
       779.1094
   6810464.75048   5353249.91447  22830019.6994   22830020.6374
     -3512.4374
  27842812.70345  21669531.69745  25429599.9344   25429605.3834
     -4594.3594
  -1744215.54546    -90612.75945  25494717.2304   25494719.7154
       183.5944
   4895375.25147   2791168.62546  23918305.2464   23918307.5084
     -3522.3124
  -7331726.52247  -1656436.78846  23631506.7694   23631510.5194
      -644.1094
  -3637218.44446  -2712419.75445  25340375.8944   25340380.8404
      1512.7664
 06  4 20 16  5 30.0040000  0  7G10G 2G 4G16G13G 6G27
 -14121510.51248 -10825566.86347  22178751.6294   22178755.7424
       761.8914
   6916072.52248   5435541.66347  22850115.9494   22850117.1094
     -3528.0474
  27980717.01945  21776989.51445  25455841.9884   25455845.9734
     -4599.2664
  -1749432.51845    -94678.00345  25493723.4344   25493725.8244
       164.2194
   5001276.51047   2873689.03746  23938457.9344   23938459.9734
     -3537.7664
  -7312102.82647  -1641145.59046  23635240.6684   23635244.4414
      -664.1414
  -3682425.13946  -2747645.72746  25331773.7234   25331777.9414
      1500.9844
 06  4 20 16  6  0.0050000  0  7G10G 2G 4G16G13G 6G27
 -14144109.79648 -10843176.69447  22174450.9934   22174454.8604
       744.9224
   7022150.28648   5518199.61947  22870302.0794   22870303.1694
     -3543.3124
  28118772.53845  21884565.16245  25482113.2984   25482117.0244
     -4603.8754
  -1754067.29145    -98289.44745  25492840.5954   25492844.6264
       145.0314
   5107642.76647   2956571.77246  23958698.4234   23958701.2124
     -3552.7974
  -7291877.66947  -1625385.67346  23639089.6574   23639093.5604
      -683.9224
  -3727278.82746  -2782596.56346  25323238.7284   25323242.6304
      1489.3914
 06  4 20 16  6 30.0050000  0  7G10G 2G 4G16G13G 6G27
 -14166195.17448 -10860386.09247  22170248.4074   22170252.1694
       727.5784
   7128684.54348   5601213.29947  22890574.6424   22890575.7784
     -3558.8284
  28256963.56945  21992246.41045  25508410.6344   25508414.8994
     -4608.7194
  -1758122.60345   -101449.42545  25492069.3994   25492070.7354
       125.4224
   5214459.15647   3039805.22546  23979025.2594   23979028.2594
     -3568.1414
  -7271056.95547  -1609161.70646  23643051.3924   23643055.3174
      -704.0314
  -3771778.67446  -2817271.71246  25314770.5714   25314774.8254
      1477.3914
 06  4 20 16  7  0.0050000  0  7G10G 2G 4G16G13G 6G27
 -14187766.45048 -10877194.87147  22166143.6344   22166147.6064
       710.5314
   7235676.60048   5684583.72047  22910934.6574   22910935.7824
     -3573.9374
  28395292.73345  22100035.28845  25534733.5954   25534737.1224
     -4613.1724
  -1761597.82846   -104157.03445  25491408.1964   25491409.5094
       106.2194
   5321727.14147   3123390.60146  23999437.7434   23999440.4034
     -3583.0314
  -7249639.67347  -1592472.90846  23647126.5174   23647130.3134
      -723.7814
  -3815924.09346  -2851670.68646  25306370.5244   25306374.3804
      1465.6414
 06  4 20 16  7 30.0050000  0  7G10G 2G 4G16G13G 6G27
 -14208824.59248 -10893603.81847  22162136.3534   22162140.1964
       693.4384
   7343122.41048   5768307.70947  22931380.6104   22931381.7004
     -3589.0164
  28533756.14445  22207928.79245  25561082.5404   25561085.6344
     -4617.6254
  -1764494.34546   -106414.00145  25490856.9154   25490859.0714
        86.9534
   5429441.90147   3207324.11746  24019935.3064   24019937.3214
     -3597.8594
  -7227627.81647  -1575320.80146  23651315.5954   23651319.6494
      -743.5784
  -3859714.70846  -2885793.18946  25298036.7904   25298041.3134
      1453.8134
 06  4 20 16  8  0.0050000  0  7G10G 2G 4G16G13G 6G27
 -14229366.32048 -10909610.36647  22158227.2284   22158231.1424
       676.1254
   7451021.75648   5852385.08647  22951913.3454   22951914.3994
     -3604.1564
  28672353.87445  22315926.93545  25587457.2434   25587460.8064
     -4622.1254
  -1766809.40045   -108217.96645  25490416.2984   25490419.6034
        67.4694
   5537602.88547   3291605.36046  24040517.6104   24040519.7674
     -3612.7344
  -7205018.97447  -1557703.49346  23655617.6424   23655621.8844
      -763.5624
  -3903146.63646  -2919636.18046  25289771.6344   25289775.8294
      1441.7504
 06  4 20 16  8 30.0050000  0  7G10G 2G 4G16G13G 6G27
 -14249396.98848 -10925218.68547  22154415.5564   22154419.4464
       659.1254
   7559366.51847   5936809.55347  22972530.7904   22972531.9624
     -3618.9224
  28811077.67345  22424023.29645  25613855.1494   25613858.3724
     -4626.2504
  -1768547.25146   -109572.12945  25490085.6574   25490089.6304
        48.2974
   5646201.30147   3376227.44846  24061182.7514   24061185.4354
     -3627.2344
  -7181819.50447  -1539625.88346  23660032.1884   23660036.5014
      -783.2034
  -3946223.89446  -2953202.87846  25281573.5564   25281577.8804
      1429.9384
 06  4 20 16  9  0.0050000  0  7G10G 2G 4G16G13G 6G27
 -14268909.11348 -10940422.95447  22150702.5634   22150706.4544
       641.7504
   7668161.01347   6021584.45447  22993233.4384   22993234.6924
     -3633.9534
  28949932.22645  22532221.57845  25640278.8454   25640282.8294
     -4630.6254
  -1769700.67946   -110471.07845  25489866.1184   25489867.6304
        28.7034
   5755240.85647   3461193.27446  24081932.2204   24081934.7514
     -3641.9694
  -7158022.58347  -1521082.77746  23664561.0564   23664565.4854
      -803.1724
  -3988937.73246  -2986486.27446  25273445.2594   25273449.3494
      1417.7194
 06  4 20 16  9 30.0050000  0  7G10G 2G 4G16G13G 6G27
 -14287898.43648 -10955219.82447  22147088.9854   22147092.9354
       624.3134
   7777406.37647   6106710.69147  23014022.3214   23014023.4354
     -3648.9374
  29088918.75445  22640522.71445  25666725.9544   25666731.0404
     -4634.9844
  -1770265.55346   -110911.28545  25489758.7824   25489759.6384
         9.0634
   5864722.01647   3546503.19246  24102766.3214   24102768.7824
     -3656.6414
  -7133625.06947  -1502071.66746  23669203.5954   23669207.6494
      -823.1874
  -4031282.93346  -3019482.47946  25265387.4154   25265392.6064
      1405.4064
 06  4 20 16 10  0.0050000  0  7G10G 2G 4G16G13G 6G27
 -14306367.23748 -10969611.09547  22143574.6574   22143578.5364
       607.1094
   7887097.11747   6192183.97447  23034895.7514   23034897.2164
     -3663.5784
  29228032.09545  22748922.61645  25693198.5954   25693204.1964
     -4639.0164
  -1770244.01346   -110894.59845  25489763.3064   25489766.1774
       -10.3444
   5974638.88147   3632152.72746  24123682.7594   24123685.1144
     -3670.9534
  -7108630.34147  -1482595.20646  23673959.9234   23673963.7674
      -842.9374
  -4073260.69346  -3052192.35146  25257399.4704   25257404.9424
      1393.2814
 06  4 20 16 10 30.0050000  0  7G10G 2G 4G16G13G 6G27
 -14324316.07948 -10983597.22247  22140159.0954   22140162.9854
       589.7344
   7997229.60347   6278001.46947  23055853.2044   23055854.4814
     -3678.2974
  29367268.83245  22857418.72145  25719694.6574   25719699.2634
     -4643.1414
  -1769636.61245   -110421.01345  25489878.0634   25489880.6064
       -29.9064
   6084987.17047   3718138.37146  24144681.2824   24144682.9704
     -3685.3284
  -7083039.91747  -1462654.58746  23678829.5404   23678833.5834
      -862.8444
  -4114870.32346  -3084615.37846  25249481.3844   25249486.6694
      1380.9534
 06  4 20 16 11  0.0050000  0  7G10G 2G 4G16G13G 6G27
 -14341746.43848 -10997179.29647  22136842.2354   22136846.1264
       572.4064
   8107799.55247   6364159.85047  23076894.1884   23076895.4314
     -3692.8754
  29506624.48545  22966007.47545  25746213.0564   25746218.7164
     -4647.1094
  -1768444.80546   -109492.20345  25490104.9784   25490108.3884
       -49.4064
   6195762.09647   3804456.45746  24165761.5714   24165763.4934
     -3699.5314
  -7056855.98847  -1442251.46146  23683811.8844   23683815.5754
      -882.6414
  -4156112.07246  -3116751.72346  25241633.0634   25241638.4424
      1368.6094
 06  4 20 16 11 30.0050000  0  7G10G 2G 4G16G13G 6G27
 -14358652.67948 -11010352.95347  22133625.0404   22133628.8134
       554.7034
   8218808.96348   6450660.66947  23098018.8924   23098020.0404
     -3707.7194
  29646101.87945  23074691.08345  25772754.2594   25772759.8724
     -4651.3594
  -1766663.43845   -108104.09345  25490443.3684   25490446.4854
       -69.3284
   6306965.16847   3891108.23546  24186922.8764   24186925.8294
     -3713.9694
  -7030074.09747  -1421382.48446  23688908.3764   23688912.0094
      -902.7814
  -4196979.64646  -3148596.57046  25233856.9384   25233860.8994
      1355.8914
 06  4 20 16 12  0.0050000  0  7G10G 2G 4G16G13G 6G27
 -14375034.10148 -11023117.69747  22130507.8604   22130511.7394
       537.2194
   8330255.63648   6537502.21947  23119226.4544   23119227.5094
     -3722.2194
  29785698.76146  23183467.75845  25799319.6344   25799324.1574
     -4655.2664
  -1764291.63546   -106255.77345  25490895.7594   25490897.8104
       -88.9694
   6418593.65747   3978091.48046  24208164.9384   24208167.4114
     -3728.0624
  -7002694.53047  -1400047.80646  23694118.8374   23694122.5284
      -922.6724
  -4237470.95946  -3180148.16946  25226151.4544   25226155.4624
      1343.3444
 06  4 20 16 12 30.0050000  0  8G10G 2G 4G16G13G 6G27G 7
 -14390892.87948 -11035475.17647  22127489.9784   22127493.8454
       519.9534
   8442134.20447   6624680.30647  23140516.2284   23140517.3294
     -3736.4064
  29925410.35345  23292333.84245  25825905.9154   25825910.8024
     -4658.8914
  -1761331.77945   -103949.32645  25491457.9854   25491460.8454
      -108.4224
   6530641.71447   4065401.60846  24229486.7514   24229489.3174
     -3741.8444
  -6974720.18547  -1378249.57846  23699442.4464   23699446.2084
      -942.3284
  -4277586.80046  -3211407.26146  25218518.4704   25218522.0094
      1330.9694
    -34235.78045                  26347267.1654
      2011.2034
 06  4 20 16 13  0.0050000  0  8G10G 2G 4G16G13G 6G27G 7
 -14406229.88648 -11047426.05247  22124571.4314   22124575.1454
       502.5944
   8554440.76047   6712191.87947  23161887.4704   23161888.4424
     -3750.5944
  30065232.64746  23401286.19045  25852513.9154   25852518.7204
     -4662.4844
  -1757785.16245   -101185.93945  25492133.1264   25492136.1494
      -127.9694
   6643104.72847   4153035.11346  24250887.7284   24250890.1774
     -3755.5784
  -6946153.34747  -1355989.75446  23704878.5014   23704881.9354
      -962.0474
  -4317327.10746  -3242373.65946  25210955.7284   25210959.5484
      1318.4534
    -94426.07945                  26335812.9314
      2001.5474
 06  4 20 16 13 30.0050000  0  8G10G 2G 4G16G13G 6G27G 7
 -14421041.49948 -11058967.55847  22121752.8684   22121756.4784
       484.7504
   8667175.99248   6800037.49947  23183340.2594   23183341.1734
     -3765.1724
  30205166.56146  23510325.50945  25879142.3924   25879146.3764
     -4666.4844
  -1753647.24346    -97961.55245  25492921.4934   25492923.6494
      -148.0164
   6755982.93247   4240992.11946  24272367.9234   24272370.1964
     -3769.7034
  -6916990.95247  -1333265.80846  23710427.7594   23710431.2044
      -982.1874
  -4356687.02046  -3273043.68846  25203465.2284   25203469.3644
      1305.4224
   -154320.34045    -29529.20245  26324415.7124   26324419.7904
      1991.2974
 06  4 20 16 14  0.0050000  0  8G10G 2G 4G16G13G 6G27G 7
 -14435325.45648 -11070097.89747  22119034.4854   22119038.1534
       467.3134
   8780339.22948   6888216.64747  23204874.4854   23204875.4354
     -3779.2194
  30345211.86646  23619451.66145  25905791.7594   25905795.6854
     -4670.0164
  -1748916.58246    -94275.41145  25493821.8684   25493823.5674
      -167.5784
   6869274.84747   4329271.51246  24293926.9154   24293929.0014
     -3783.2664
  -6887231.85447  -1310076.94446  23716090.8924   23716094.3024
     -1001.9224
  -4395662.99046  -3303414.56846  25196047.2984   25196051.6344
      1292.7664
   -213914.44545    -75966.05045  26313074.6494   26313078.2354
      1981.4694
 06  4 20 16 14 30.0050000  0  8G10G 2G 4G16G13G 6G27G 7
 -14449081.96848 -11080817.23247  22116417.0714   22116420.6574
       449.8444
   8893926.72447   6976726.35447  23226488.9314   23226489.7864
     -3793.2194
  30485365.13346  23728661.89445  25932462.7514   25932466.2904
     -4673.4694
  -1743593.34345    -90127.64145  25494833.6654   25494836.6534
      -187.2504
   6982976.71346   4417870.31146  24315563.2744   24315565.8174
     -3796.7814
  -6856877.43747  -1286424.16446  23721866.9544   23721870.0834
     -1021.6254
  -4434253.93546  -3333485.41546  25188704.2354   25188709.2744
      1280.0164
   -273207.68745   -122168.50845  26301791.3134   26301796.8684
      1971.4694
 06  4 20 16 15  0.0050000  0  8G10G 2G 4G16G13G 6G27G 7
 -14462310.04348 -11091124.80047  22113899.6264   22113903.4114
       432.1564
   9007936.67147   7065565.24947  23248184.7744   23248185.6534
     -3807.3124
  30625624.86445  23837955.07045  25959152.9934   25959156.4154
     -4677.0474
  -1737675.87445    -85516.46445  25495960.3374   25495962.8214
      -207.0784
   7097086.05347   4506786.63046  24337277.8214   24337280.1424
     -3810.3754
  -6825927.49447  -1262307.25946  23727756.4234   23727760.0674
     -1041.5474
  -4472458.20346  -3363254.94146  25181434.7284   25181439.6734
      1267.0474
   -332197.44245   -168134.54745  26290565.6654   26290571.3724
      1961.2814
 06  4 20 16 15 30.0050000  0  8G10G 2G 4G16G13G 6G27G 7
 -14475014.63748 -11101024.49147  22111481.8844   22111485.8104
       414.8284
   9122360.98647   7154727.04747  23269959.0014   23269960.1384
     -3820.9534
  30765983.22345  23947325.15745  25985862.4234   25985867.0524
     -4680.1874
  -1731170.25545    -80447.14245  25497198.3134   25497201.0564
      -226.6094
   7211594.44847   4596014.00346  24359068.4934   24359071.3534
     -3823.4844
  -6794388.42147  -1237731.44146  23733757.8924   23733761.5244
     -1061.0624
  -4510279.53846  -3392726.06146  25174237.3454   25174241.5284
      1254.3754
   -390887.21345   -213866.91445  26279397.7354   26279403.2314
      1951.3444
 06  4 20 16 16  0.0050000  0  8G10G 2G 4G16G13G 6G27G 7
 -14487190.09748 -11110511.85847  22109165.0794   22109168.8294
       396.8914
   9237202.32047   7244213.76047  23291812.5714   23291813.6264
     -3835.0944
  30906443.00645  24056774.25245  26012590.2674   26012595.4234
     -4683.7974
  -1724070.45246    -74914.68045  25498549.0094   25498550.9894
      -246.7034
   7326503.77047   4685553.72746  24380934.6814   24380935.4664
     -3837.0624
  -6762255.23647  -1212692.57446  23739872.9154   23739876.7244
     -1081.1254
  -4547710.70346  -3421893.12346  25167114.1884   25167118.1494
      1241.0474
   -449269.84345   -259359.97545  26268287.6734   26268293.0524
      1940.8284
 06  4 20 16 16 30.0050000  0  8G10G 2G 4G16G13G 6G27G 7
 -14498830.96348 -11119582.65947  22106949.7204   22106953.6104
       379.2034
   9352463.04047   7334027.28647  23313746.1814   23313746.9424
     -3848.8914
  31047007.02745  24166304.60545  26039338.9074   26039344.8024
     -4687.1094
  -1716371.78446    -68915.85745  25500014.5954   25500016.2354
      -266.5314
   7441815.69446                  24402877.7594
     -3850.3124
  -6729523.73747  -1187187.51946  23746101.3534   23746105.3374
     -1100.9374
  -4584745.14046  -3450751.08146  25160068.0484   25160072.3494
      1227.9384
   -507338.10245   -304607.97245  26257238.0404   26257242.8564
      1930.4384
 06  4 20 16 17  0.0050000  0  8G10G 2G 4G16G13G 6G27G 7
 -14509943.39948 -11128241.67647  22104834.8294   22104838.7904
       361.5944
   9468133.86947   7424160.38247  23335757.6964   23335758.8804
     -3862.5004
  31187666.33345  24275909.08545  26066105.4154   26066110.5484
     -4690.2034
  -1708080.13946    -62454.75945  25501592.5174   25501594.7204
      -286.2194
   7557520.43546                  24424894.5484
     -3863.3594
  -6696201.38547  -1161222.05346  23752442.5324   23752446.5874
     -1120.5944
  -4621387.74646  -3479303.70746  25153093.1494   25153097.4154
      1214.8594
   -565096.90645   -349614.78645  26246246.8764   26246252.7004
      1920.1254
 06  4 20 16 17 30.0050000  0  8G10G 2G 4G16G13G 6G27G 7
 -14520525.96048 -11136487.81847  22102821.2204   22102825.4274
       344.0634
   9584212.99247   7514611.62947  23357845.9464   23357847.0364
     -3875.9374
  31328419.68845  24385586.97945  26092889.7514   26092894.4974
     -4693.1414
  -1699194.58845    -55531.07945  25503282.7124   25503283.9424
      -305.9374
   7673616.06847                  24446988.1184
     -3876.1874
  -6662287.67847  -1134795.81846  23758896.0874   23758899.7674
     -1140.1564
  -4657636.03846  -3507549.12246  25146196.7594   25146200.6384
      1201.8444
   -622543.31245   -394378.28545  26235315.1964   26235320.3534
      1909.8134
 06  4 20 16 18  0.0050000  0  8G10G 2G 4G16G13G 6G27G 7
 -14530581.02148 -11144322.93647  22100907.5714   22100911.7674
       326.5164
   9700695.44447   7605377.13247  23380012.4154   23380013.6344
     -3889.3124
  31469262.16745  24495334.24945  26119691.7744   26119696.2984
     -4696.0784
  -1689716.98146    -48145.91645  25505087.3134   25505088.5444
      -325.6564
   7790096.99546                  24469152.8454
     -3888.9374
  -6627785.82047  -1107911.29046  23765461.6424   23765465.4744
     -1159.7344
  -4693491.48846  -3535488.44446  25139373.6964   25139377.9624
      1188.7504
   -679678.06845   -438898.88645  26224443.2434   26224448.7394
      1899.4064
 06  4 20 16 18 30.0050000  0  8G10G 2G 4G16G13G 6G27G 7
 -14540107.20148 -11151745.92447  22099094.8994   22099099.0014
       308.8134
   9817579.58747   7696455.65246  23402254.7284   23402255.8414
     -3902.7194
  31610192.64945  24605150.09445  26146510.8994   26146514.6854
     -4699.0314
  -1679646.46946    -40298.91145  25507003.2044   25507005.1144
      -345.4844
   7906961.24746                  24491391.8214
     -3901.7344
  -6592695.73947  -1080568.43146  23772139.0954   23772142.8454
     -1179.3754
  -4728951.10146  -3563119.25446  25132625.7204   25132629.2594
      1175.4384
   -736497.97645   -483174.13445  26213630.7204   26213634.0834
      1888.8134
 06  4 20 16 19  0.0050000  0  9G10G 2G 4G16G13G 6G27G 7G29
 -14549102.70648 -11158755.39147  22097383.4934   22097387.4784
       290.7034
   9934863.93547   7787846.03446  23424572.9784   23424574.4544
     -3916.3914
  31751209.90545  24715033.64345  26173345.7824   26173350.3414
     -4702.2814
  -1668981.18445    -31988.28245  25509032.1964   25509034.7744
      -365.7034
   8024206.44746                  24513703.3764
     -3914.7974
  -6557016.54247  -1052766.48446  23778928.8134   23778932.4584
     -1199.3754
  -4764012.14946  -3590439.52946  25125952.9234   25125956.9424
      1161.7504
   -792999.98245   -527201.57045  26202878.4784   26202883.0014
      1877.8134
                                  25902394.3764
      2990.0474
 06  4 20 16 19 30.0050000  0  9G10G 2G 4G16G13G 6G27G 7G29
 -14557562.20148 -11165347.19847  22095773.5954   22095777.4854
       273.0784
  10052550.80247   7879550.05346  23446968.5094   23446969.3884
     -3929.5474
  31892316.65145  24824986.81145  26200197.3994   26200202.7314
     -4705.0004
  -1657716.77745    -23210.90145  25511175.6184   25511179.3454
      -385.4374
   8141834.39846                  24536087.1034
     -3927.2664
  -6520744.42947  -1024502.53546  23785831.2434   23785835.1344
     -1218.9224
  -4798668.62746  -3617444.53146  25119358.5714   25119363.1424
      1148.4844
   -849177.73945   -570976.50545  26192189.0564   26192193.5204
      1867.1884
    -86653.18944                  25885335.0324
      2986.1564
 06  4 20 16 20  0.0050000  0  9G10G 2G 4G16G13G 6G27G 7G29
 -14565491.89348 -11171526.16147  22094264.7514   22094268.4194
       255.5314
  10170630.90147   7971560.49446  23469438.6574   23469439.4894
     -3942.4844
  32033503.96145  24935002.76745  26227064.3214   26227069.1384
     -4707.5164
  -1645859.10246    -13971.08945  25513433.1034   25513435.2474
      -405.1094
   8259835.75346     61328.89646  24558541.8064   24558545.3804
     -3939.5474
  -6483886.69847   -995782.28646  23792844.9704   23792849.0014
     -1238.3124
  -4832924.96946  -3644137.75346  25112839.1264   25112843.8604
      1135.2344
   -905035.51545   -614502.11245  26181559.2284   26181564.4894
      1856.6094
   -176181.04744     -2322.21745  25868298.4544   25868302.2514
      2982.3134
 06  4 20 16 20 30.0050000  0  9G10G 2G 4G16G13G 6G27G 7G29
 -14572888.76348 -11177289.93247  22092856.9624   22092860.6654
       237.6884
  10289104.31747   8063877.41046  23491983.2354   23491984.1854
     -3955.6254
  32174772.46545  25045082.11645  26253947.2434   26253950.7354
     -4710.2664
  -1633405.33446     -4266.89345  25515802.8454   25515804.7904
      -425.0624
   8378210.03446    153568.43546  24581067.2744   24581070.3684
     -3952.0004
  -6446440.95647   -966603.82146  23799970.1344   23799974.4934
     -1257.9534
  -4866776.87046  -3670515.82546  25106397.6264   25106401.7044
      1121.6564
   -960568.39945   -657774.53945  26170991.6424   26170995.9074
      1845.6884
   -265586.02643    -71988.35945  25851283.7434   25851291.2004
      2978.1254
 06  4 20 16 21  0.0050000  0 10G10G 2G 4G16G13G 6G27G 7G 8G29
 -14579756.22148 -11182641.17747  22091550.4074   22091554.2634
       220.2194
  10407964.77447   8156495.91946  23514601.6574   23514602.8064
     -3968.3124
  32316116.10145  25155219.85845  26280843.9154   26280848.1344
     -4712.5624
  -1620359.36445      5898.85945  25518284.9384   25518286.5204
      -444.5944
   8496950.43646    246093.34246  24603663.5564   24603666.0404
     -3963.9534
  -6408412.27247   -936971.11346  23807207.1964   23807211.3804
     -1277.2194
  -4900226.93846  -3696580.73846  25100032.3454   25100035.6264
      1108.4064
  -1015778.55045   -700795.60845  26160485.3684   26160490.3254
      1835.0634
    -13835.81942                  26508732.4934
      2767.2504
   -354870.16043   -141560.32345  25834292.0634   25834298.1224
      2974.2504
 06  4 20 16 21 30.0050000  0 10G10G 2G 4G16G13G 6G27G 7G 8G29
 -14586094.96248 -11187580.44547  22090344.0324   22090347.6184
       202.4534
  10527208.54747   8249413.12146  23537293.0324   23537294.0174
     -3981.1724
  32457531.62445  25265413.66345  26307753.7904   26307758.8294
     -4715.0164
  -1606722.07645     16525.32545  25520879.5634   25520883.6534
      -464.4534
   8616052.87646    338900.34646  24626328.2824   24626330.9424
     -3976.0944
  -6369802.16747   -906885.34146  23814554.2284   23814558.2824
     -1296.6874
  -4933274.38846  -3722331.90846  25093743.6884   25093747.6854
      1094.8444
  -1070664.86445   -743564.24145  26150040.9704   26150045.9034
      1824.1094
    -96783.54443                  26492948.5014
      2762.6724
   -444032.45243   -211037.31945  25817325.1494   25817329.9194
      2970.0164
 06  4 20 16 22  0.0050000  0 10G10G 2G 4G16G13G 6G27G 7G 8G29
 -14591904.37048 -11192107.22447  22089238.6884   22089242.2164
       184.7664
  10646833.38347   8342627.26846  23560056.5714   23560057.8374
     -3993.8754
  32599017.20644  25375662.09745  26334677.2984   26334682.1734
     -4717.3754
  -1592492.89045     27612.94445  25523586.6424   25523589.8064
      -484.2194
   8735514.26246    431986.98046  24649061.4384   24649063.5484
     -3988.0624
  -6330611.16147   -876346.93446  23822012.3764   23822016.3254
     -1316.1094
  -4965917.25246  -3747767.88946  25087531.9934   25087536.1534
      1081.2664
  -1125224.81245   -786078.43145  26139658.7744   26139664.6814
      1813.1254
   -179596.57544                  26477189.5874
      2758.1094
   -533070.73043   -280417.66445  25800383.3454   25800389.4744
      2965.7664
 06  4 20 16 22 30.0050000  0 10G10G 2G 4G16G13G 6G27G 7G 8G29
 -14597189.52648 -11196225.51847  22088232.7284   22088236.2674
       167.4694
  10766831.04147   8436131.90146  23582891.2514   23582892.8214
     -4006.0784
  32740565.35443  25485959.25445  26361613.1734   26361617.2284
     -4719.2194
  -1577677.28246     39157.52445  25526406.7824   25526409.7474
      -503.6094
   8855326.56346    525347.14246  24671860.7434   24671863.0994
     -3999.5164
  -6290845.38947   -845360.59446  23829579.3684   23829583.3064
     -1335.0474
  -4998159.11546  -3772891.37246  25081396.2824   25081400.6654
      1068.0784
  -1179462.33445   -828341.48145  26129338.3454   26129342.4234
      1802.5634
   -262278.10444    -40790.05945  26461454.8534   26461458.7904
      2753.8594
   -621988.55444   -349704.21145  25783460.8454   25783464.8064
      2961.9534
 06  4 20 16 23  0.0050000  0 10G10G 2G 4G16G13G 6G27G 7G 8G29
 -14601953.56148 -11199937.74147  22087326.2284   22087329.7784
       150.0784
  10887195.34547   8529922.26346  23605795.7674   23605797.1734
     -4018.2504
  32882169.89341  25596300.23643  26388558.4154   26388559.8334
     -4721.1094
  -1562278.16146     51157.00545  25529336.9934   25529339.4314
      -523.0474
   8975482.75446    618975.25046  24694725.0094   24694728.6884
     -4010.9374
  -6250509.62347   -813930.11946  23837255.0564   23837258.9234
     -1354.0474
  -5030002.61446  -3797704.44446  25075337.0404   25075341.2704
      1054.7664
  -1233379.12045   -870354.69845  26119078.2744   26119082.2594
      1791.8444
   -344829.20443   -105115.43745  26445745.9384   26445751.8454
      2749.4694
   -710787.52644   -418898.13545  25766565.2354   25766569.7124
      2957.8754
 06  4 20 16 23 30.0050000  0 10G10G 2G 4G16G13G 6G27G 7G 8G29
 -14606190.93648 -11203239.55647  22086519.7744   22086523.3954
       132.3284
  11007928.96347   8624000.38846  23628771.0634   23628772.7044
     -4030.7034
                                  26415516.6574
     -4723.2034
  -1546291.33945     63614.26645  25532379.3214   25532381.6774
      -542.8124
   9095985.43246    712873.49946  24717656.4934   24717660.0444
     -4022.6254
  -6209599.45847   -782052.09746  23845040.1814   23845044.1064
     -1373.3594
  -5061440.99746  -3822201.84346  25069355.1424   25069359.3724
      1041.0474
  -1286967.82045   -912112.26445  26108880.4544   26108885.4814
      1780.6724
   -427241.72345   -169332.83545  26430063.1494   26430068.8104
      2744.6094
   -799460.50844   -487993.84845  25749690.7674   25749695.7244
      2953.5474
 06  4 20 16 24  0.0050000  0 10G10G 2G 4G16G13G 6G27G 7G 8G29
 -14609899.67448 -11206129.43347  22085814.1494   22085817.7944
       114.8444
  11129030.90747   8718365.51746  23651816.0014   23651817.4074
     -4042.8124
                                  26442487.4704
     -4725.1094
  -1529714.54246     76531.22145  25535533.9464   25535536.1964
      -562.3594
   9216832.65146    807040.15246  24740652.7284   24740656.0204
     -4033.9224
  -6168114.05547   -749725.82346  23852934.4384   23852938.4354
     -1392.3914
  -5092470.92046  -3846380.98446  25063449.9074   25063453.9384
      1027.5314
  -1340224.35145   -953610.89945  26098745.6884   26098749.5324
      1769.6724
   -509511.38344   -233438.99145  26414407.6884   26414412.5994
      2739.9534
   -888004.03044   -556988.69345  25732841.7044   25732848.3844
      2949.2814
 06  4 20 16 24 30.0050000  0  9G10G 2G16G13G 6G27G 7G 8G29
 -14613080.92748 -11208608.29947  22085208.5634   22085212.1384
        97.3754
  11250497.38047   8813014.69046  23674930.4854   23674931.2354
     -4054.7974
  -1512549.50946     89906.51545  25538800.9934   25538803.6534
      -581.8444
   9338019.99946    901471.77046  24763713.9464   24763716.7004
     -4045.0944
  -6126055.59547   -716952.99446  23860937.5014   23860941.3924
     -1411.3594
  -5123092.22446  -3870241.71546  25057623.7514   25057627.3954
      1013.9844
  -1393149.11245   -994851.21345  26088675.1184   26088678.3174
      1758.7194
   -591637.52745   -297433.21145  26398780.2514   26398785.7474
      2735.2344
   -976417.51145   -625882.26245  25716017.7674   25716022.1144
      2945.0474
 06  4 20 16 25  0.0050000  0  9G10G 2G16G13G 6G27G 7G 8G29
 -14615735.05348 -11210676.41047  22084703.6184   22084707.3104
        79.7814
  11372324.92947   8907945.21346  23698113.5634   23698114.4894
     -4066.7974
  -1494796.89146    103739.51145  25542178.2124   25542180.0284
      -601.4694
   9459544.12546    996165.84646  24786839.4384   24786841.9814
     -4056.2814
  -6083425.48847   -683734.72146  23869050.5174   23869054.5954
     -1430.4374
  -5153303.76946  -3893783.17646  25051873.9854   25051877.7704
      1000.3134
  -1445739.53345  -1035830.61745  26078666.7594   26078671.0134
      1747.5634
   -673617.69745   -361313.79045  26383179.1964   26383184.4354
      2730.3134
  -1064699.71845   -694673.45845  25699217.9074   25699221.1064
      2940.6884
 06  4 20 16 25 30.0050000  0  9G10G 2G16G13G 6G27G 7G 8G29
 -14617863.15148 -11212334.62447  22084298.6654   22084302.2394
        62.0784
  11494509.43547   9003153.89046  23721364.6964   23721365.5054
     -4078.8284
  -1476457.74246    118029.50845  25545669.1344   25545671.5954
      -621.1724
   9581400.26446   1091118.62746  24810028.0094   24810030.0014
     -4067.4534
  -6040226.29547   -650073.02246  23877271.1424   23877275.0324
     -1449.5314
  -5183105.83346  -3917005.51246  25046201.8924   25046205.5244
       986.4844
  -1497995.53945  -1076549.45345  26068722.5874   26068724.7084
      1736.1884
   -755450.79545   -425079.68445  26367606.7904   26367611.6534
      2725.2194
  -1152850.01845   -763361.89945  25682443.1654   25682447.6424
      2936.0634
 06  4 20 16 26  0.0050000  0  9G10G 2G16G13G 6G27G 7G 8G29
 -14619458.46948 -11213577.66047  22083994.9234   22083998.2284
        44.3284
  11617054.99847   9098643.92146  23744684.0634   23744684.9074
     -4090.7974
  -1457525.69446    132781.71345  25549271.1814   25549273.7944
      -640.9064
   9703592.06046   1186333.00846  24833280.0874   24833281.8104
     -4078.5784
  -5996452.49947   -615963.56446  23885600.4314   23885604.3104
     -1468.6564
  -5212490.25646  -3939902.44246  25040610.2984   25040614.4464
       972.5474
  -1549909.56945  -1117002.14845  26058844.3064   26058849.2514
      1724.7664
   -837127.81645   -488724.03045  26352063.6104   26352070.3024
      2719.9844
  -1240859.91145   -831940.88845  25665696.2744   25665699.2744
      2931.3284
 06  4 20 16 26 30.0050000  0  9G10G 2G16G13G 6G27G 7G 8G29
 -14620526.94748 -11214410.23647  22083791.8134   22083795.2244
        26.7814
  11739952.26347   9194407.99546  23768070.6654   23768071.7314
     -4102.4694
  -1438007.09345    147991.02045  25552985.2434   25552987.1184
      -660.4374
   9826110.00846   1281801.56446  24856593.9624   24856596.7984
     -4089.3754
  -5952111.44047   -581412.06546  23894038.4464   23894042.4664
     -1487.5314
  -5241461.94746  -3962477.76946  25035097.2514   25035101.4114
       958.7814
  -1601484.87145  -1157190.57845  26049029.2514   26049034.8064
      1713.4224
   -918652.05345   -552249.32145  26336549.9384   26336557.2554
      2714.8754
  -1328734.03945   -900414.18645  25648974.7744   25648977.7864
      2926.7814
 06  4 20 16 27  0.0050000  0  9G10G 2G16G13G 6G27G 7G 8G29
 -14621067.94448 -11214831.77347  22083688.8924   22083692.3604
         9.1884
  11863199.27147   9290444.59346  23791523.3454   23791524.4934
     -4114.0944
  -1417901.46046    163657.78845  25556811.8374   25556814.2984
      -680.0164
   9948951.35946   1377522.09746  24879970.6184   24879973.1734
     -4100.1254
  -5907203.36847   -546418.75046  23902584.0634   23902588.0604
     -1506.4374
  -5270019.02246  -3984730.02546  25029663.1574   25029667.6344
       944.9064
  -1652719.31045  -1197113.35245  26039280.2204   26039286.3134
      1702.0474
  -1000020.70445   -615653.33745  26321065.3134   26321072.0054
      2709.6094
  -1416469.59845   -968779.47745  25632278.9464   25632282.4154
      2922.0784
 06  4 20 16 27 30.0050000  0  9G10G 2G16G13G 6G27G 7G 8G29
 -14621080.05748 -11214841.19947  22083686.2204   22083689.6774
        -8.4064
  11986794.86947   9386752.83446  23815042.7984   23815043.8414
     -4125.6094
  -1397208.34746    179782.22945  25560749.0014   25560752.0484
      -699.5474
  10072114.79746   1473493.62146  24903407.3764   24903409.8374
     -4110.7814
  -5861728.20447   -510983.56046  23911238.1184   23911242.1264
     -1525.2814
  -5298158.48446  -4006656.86646  25024307.7204   25024312.1144
       931.0314
  -1703609.97545  -1236768.49745  26029595.2204   26029600.4464
      1690.5784
  -1081229.93845   -678933.17945  26305611.8684   26305617.2824
      2704.2974
  -1504063.57045  -1037034.42145  25615609.9854   25615613.7474
      2917.4064
 06  4 20 16 28  0.0050000  0  9G10G 2G16G13G 6G27G 7G 8G29
 -14620564.22648 -11214439.21047  22083784.4464   22083787.9384
       -25.9374
  12110734.74847   9483329.34246  23838627.9234   23838629.4354
     -4137.0004
  -1375929.03046    196363.15545  25564798.9154   25564802.5364
      -719.0474
  10195595.62846   1569712.47346  24926905.7124   24926908.4544
     -4121.2344
  -5815688.19847   -475108.25946  23919998.5174   23920002.3374
     -1544.0314
  -5325880.22746  -4028258.18046  25019032.6884   25019037.1064
       917.1414
  -1754155.86945  -1276154.75745  26019975.5324   26019979.7744
      1679.1564
  -1162278.15745   -742087.54345  26290188.8684   26290194.9274
      2698.9534
  -1591515.31645  -1105178.56845  25598966.6104   25598970.6654
      2912.7194
 06  4 20 16 28 30.0050000  0  9G10G 2G16G13G 6G27G 7G 8G29
 -14619519.32348 -11213625.00547  22083983.3844   22083986.9704
       -43.7504
  12235017.51647   9580173.01546  23862278.5484   23862279.6494
     -4148.5314
  -1354061.77446    213402.38345  25568960.9384   25568964.0444
      -738.7814
  10319391.98046   1666177.07746  24950463.1264   24950465.3764
     -4131.8754
  -5769083.47347   -438792.90246  23928867.2984   23928871.2244
     -1563.0004
  -5353182.05146  -4049532.30446  25013837.9624   25013842.2044
       902.9534
  -1804354.41445  -1315270.54745  26010423.8844   26010429.4384
      1667.3754
  -1243161.75045   -805113.64045  26274797.5714   26274802.1534
      2693.2504
  -1678821.74845  -1173209.46845  25582352.9234   25582356.2514
      2907.6724
 06  4 20 16 29  0.0050000  0  9G10G 2G16G13G 6G27G 7G 8G29
 -14617944.19348 -11212397.61347  22084283.0634   22084286.5564
       -61.5164
  12359641.30247   9677282.43246  23885993.3374   23885994.6494
     -4159.9534
  -1331606.51846    230899.86345  25573234.6344   25573236.8254
      -758.4694
  10443501.60946   1762885.93146  24974080.4934   24974083.2474
     -4142.3284
  -5721914.06847   -402037.53046  23937843.3924   23937847.2704
     -1581.9224
  -5380061.34946  -4070477.15046  25008722.2514   25008726.7744
       888.7504
  -1854202.71945  -1354113.51545  26000938.3134   26000944.0914
      1655.5944
  -1323877.32045   -868008.82245  26259437.8844   26259443.2284
      2687.5314
  -1765980.24845  -1241125.05645  25565766.9624   25565770.7594
      2902.6254
 06  4 20 16 29 30.0050000  0  9G10G 2G16G13G 6G27G 7G 8G29
 -14615840.25648 -11210758.13847  22084683.2124   22084686.6814
       -78.8444
  12484601.74847   9774654.16646  23909772.5174   23909774.0174
     -4170.8284
  -1308565.30546    248854.02245  25577618.8684   25577621.2594
      -777.7194
  10567919.77746   1859835.09446  24997756.7204   24997758.4194
     -4152.2814
  -5674182.70647   -364844.27246  23946926.4784   23946930.4744
     -1600.3124
  -5406518.70346  -4091093.26546  25003687.9784   25003692.2434
       874.9844
  -1903700.71845  -1392683.67145  25991519.2514   25991524.7244
      1644.1564
  -1404423.87445   -930772.31245  26244109.8994   26244114.2944
      2682.1414
  -1852990.33345  -1308925.06045  25549208.4314   25549213.9384
      2898.0004
 06  4 20 16 30  0.0050000  0  9G10G 2G16G13G 6G27G 7G 8G29
 -14613195.12348 -11208696.97447  22085186.6034   22085190.1064
       -97.3124
  12609908.68047   9872295.92046  23933617.4314   23933618.9784
     -4182.7504
  -1284926.06746    267273.77945  25582117.3844   25582119.8334
      -798.0944
  10692656.33746   1957032.61146  25021493.3684   25021495.3254
     -4163.2814
  -5625878.14047   -327204.35446  23956118.3604   23956122.5444
     -1619.7974
  -5432540.11146  -4111369.61746  24998736.1264   24998740.5324
       859.9844
  -1952833.47845  -1430969.03445  25982169.5564   25982175.2634
      1631.5314
  -1484786.24445   -993392.24345  26228817.6654   26228822.6104
      2675.5314
  -1939837.66945  -1376598.22345  25532683.0014   25532688.4744
      2892.0634
 06  4 20 16 30 30.0050000  0  9G10G 2G16G13G 6G27G 7G 8G29
 -14610016.35948 -11206220.03447  22085791.5094   22085795.0834
      -114.5314
  12735551.55847   9970199.41146  23957526.5014   23957528.3414
     -4193.3444
  -1260695.67846    286154.65945  25586727.8294   25586731.0994
      -817.2034
  10817700.28946   2054469.82546  25045287.2674   25045290.0564
     -4172.8754
  -5577009.45747   -289124.87246  23965417.6814   23965421.7354
     -1638.0164
  -5458131.77246  -4131311.11446  24993866.2674   24993870.3454
       846.2034
  -2001607.24245  -1468974.70845  25972888.7204   25972893.1034
      1620.1254
  -1564969.79246  -1055872.86645  26213559.5174   26213564.5204
      2670.1254
  -2026528.26145  -1444149.21645  25516185.7124   25516190.2004
      2887.3914
 06  4 20 16 31  0.0050000  0  9G10G 2G16G13G 6G27G 7G 8G29
 -14606306.76148 -11203329.41147  22086497.3764   22086501.0794
      -132.5164
  12861524.78047  10068360.35346  23981498.5094   23981500.1854
     -4204.5944
  -1235878.36946    305492.82845  25591450.5794   25591452.6774
      -837.0624
  10943044.60346   2152140.83646  25069139.2594   25069141.7904
     -4183.1094
  -5527580.90347   -250609.10946  23974823.9854   23974827.9934
     -1656.9534
  -5483295.75046  -4150919.35146  24989077.4464   24989081.7594
       831.6414
  -2050022.77845  -1506701.04245  25963675.8604   25963680.7824
      1607.8444
  -1644974.80845  -1118214.36945  26198334.9704   26198340.8644
      2663.8284
  -2113063.26645  -1511579.04545  25499719.7284   25499724.6144
      2881.8444
 06  4 20 16 31 30.0050000  0  9G10G 2G16G13G 6G27G 7G 8G29
 -14602060.35748 -11200020.48847  22087305.6264   22087309.1654
      -150.3594
  12987831.44947  10166781.08946  24005534.0404   24005535.4934
     -4215.6254
  -1210468.70646    325292.56245  25596285.7354   25596288.4894
      -856.7344
  11068692.46646   2250048.23146  25093050.3684   25093052.8064
     -4193.1564
  -5477587.64347   -211653.31246  23984337.6734   23984341.2354
     -1675.7194
  -5508024.61546  -4170188.49246  24984372.1184   24984376.7244
       817.1564
  -2098072.03645  -1544141.65745  25954531.3924   25954536.6304
      1595.6884
  -1724792.46845  -1180409.88545  26183145.4784   26183150.5284
      2657.5634
  -2199434.77045  -1578881.41845  25483282.8374   25483287.0204
      2876.4534
 06  4 20 16 32  0.0050000  0  9G10G 2G16G13G 6G27G 7G 8G29
 -14597274.98548 -11196291.62847  22088215.9784   22088219.7044
      -168.6094
  13114471.05847  10265461.26546  24029633.3134   24029634.6264
     -4226.9374
  -1184464.68146    345555.36345  25601233.8374   25601236.2634
      -876.8124
  11194644.05346   2348192.55046  25117017.3924   25117020.2634
     -4203.5004
  -5427028.72547   -172256.76646  23993958.5484   23993962.5204
     -1694.8284
  -5532314.45446  -4189115.55646  24979749.7284   24979753.4894
       802.2194
  -2145752.03145  -1581294.97545  25945458.1654   25945463.6964
      1583.0314
  -1804417.95646  -1242455.64645  26167993.4314   26167997.6854
      2650.8444
  -2285638.36545  -1646052.97445  25466879.5484   25466883.4504
      2870.5004
 06  4 20 16 32 30.0050000  0  9G10G 2G16G13G 6G27G 7G 8G29
 -14591945.03348 -11192138.37647  22089230.3064   22089233.9384
      -186.6094
  13241446.36647  10364403.04346  24053795.4384   24053796.8104
     -4237.9534
  -1157862.12745    366284.31145  25606295.8604   25606300.5834
      -896.5784
  11320900.62546   2446574.31946  25141042.9314   25141045.4274
     -4213.4844
  -5375900.04447   -132416.25346  24003688.1734   24003691.9814
     -1713.6414
  -5556158.71146  -4207695.39246  24975212.1104   24975216.3534
       787.5164
  -2193055.07245  -1618154.50845  25936457.1964   25936461.8494
      1570.5944
  -1883843.54345  -1304345.65645  26152879.0634   26152883.6344
      2644.2974
  -2371666.84345  -1713088.07945  25450508.1104   25450512.4464
      2864.8594
 06  4 20 16 33  0.0050000  0  9G10G 2G16G13G 6G27G 7G 8G29
 -14586080.81548 -11187568.82347  22090346.1184   22090349.9154
      -204.5004
  13368744.43147  10463596.31746  24078019.6494   24078021.0794
     -4248.7504
  -1130669.84345    387473.12545  25611470.7744   25611474.7124
      -916.3594
  11447449.13946   2545183.58546  25165124.9154   25165126.8024
     -4223.2344
  -5324212.69447    -92140.37646  24013523.5874   24013527.2784
     -1732.3284
  -5579566.65046  -4225935.24746  24970757.6264   24970761.2124
       772.8444
  -2239989.17745  -1654726.45345  25927526.2594   25927531.7314
      1558.1724
  -1963076.72046  -1366085.75045  26137802.1574   26137806.7514
      2637.7344
  -2457528.81345  -1779993.44445  25434169.8374   25434173.6574
      2859.1254
 06  4 20 16 33 30.0050000  0  9G10G 2G16G13G 6G27G 7G 8G29
 -14579671.59648 -11182574.64547  22091565.9154   22091569.6534
      -222.6564
  13496373.13747  10563047.22846  24102306.2204   24102307.8134
     -4259.6874
  -1102878.58345    409128.77345  25616759.2514   25616762.4974
      -936.2814
  11574297.26346   2644026.33646  25189262.6344   25189265.4114
     -4233.1564
  -5271957.73047    -51422.20646  24023467.7594   24023471.3804
     -1751.2034
  -5602526.52946  -4243825.99546  24966388.6884   24966392.1574
       757.9224
  -2286542.12245  -1691001.24645  25918667.4384   25918672.7704
      1545.4844
  -2042104.15046  -1427665.51145  26122763.6344   26122769.3294
      2630.8754
  -2543211.59845  -1846759.18145  25417864.7354   25417868.0754
      2853.1564
 06  4 20 16 34  0.0050000  0 10G10G 2G21G16G13G 6G27G 7G 8G29
 -14572721.32348 -11177158.83347  22092888.5714   22092892.1104
      -240.4534
  13624325.65647  10662750.48846  24126655.3534   24126656.7824
     -4270.2194
    -31310.97145                  26749192.0954
      2846.4224
  -1074493.11445    431247.46745  25622160.1104   25622163.6144
      -955.8284
  11701437.58246   2743096.69746  25213457.0094   25213459.7744
     -4242.6094
  -5219140.60447    -10266.01846  24033518.3764   24033521.9034
     -1769.6724
  -5625040.80846  -4261369.45746  24962103.9704   24962107.5794
       743.2814
  -2332716.54145  -1726981.33145  25909880.1264   25909885.9854
      1533.0474
  -2120927.31145  -1489086.07145  26107763.3534   26107768.5564
      2624.2504
  -2628717.35345  -1913386.98745  25401593.6104   25401597.7354
      2847.5004
 06  4 20 16 34 30.0050000  0 10G10G 2G21G16G13G 6G27G 7G 8G29
 -14565226.21648 -11171318.46647  22094314.6424   22094318.1814
      -258.9224
  13752603.37647  10762707.11746  24151065.5244   24151066.7434
     -4281.3284
   -116651.90045                  26732952.1494
      2843.2664
  -1045509.90845    453831.90945  25627675.4934   25627680.4384
      -976.0784
  11828871.34346   2842395.72046  25237707.1494   25237709.2354
     -4252.6564
  -5165758.70347     31330.26946  24043676.9384   24043680.7244
     -1788.7814
  -5647104.39746  -4278561.75646  24957905.5404   24957908.9504
       727.9224
  -2378506.39546  -1762661.81445  25901167.4854   25901172.3724
      1519.8754
  -2199539.68145  -1550342.42345  26092803.7514   26092809.3294
      2616.8444
  -2714040.27345  -1979872.31345  25385357.0324   25385362.6574
      2841.0164
 06  4 20 16 35  0.0050000  0 10G10G 2G21G16G13G 6G27G 7G 8G29
 -14557179.69548 -11165048.42947  22095845.8294   22095849.6734
      -277.4224
  13881209.86147  10862919.93346  24175538.3454   24175539.4814
     -4292.3594
   -201900.61145    -28775.20845  26716730.2514   26716735.1734
      2840.0164
  -1015922.85945    476886.83845  25633306.1264   25633309.7944
      -996.2814
  11956601.81846   2941925.97546  25262013.4384   25262015.9234
     -4262.6094
  -5111806.80847     73370.69546  24053943.5404   24053947.4074
     -1807.9064
  -5668709.75746  -4295397.02146  24953794.0954   24953797.7984
       712.5314
  -2423903.05246  -1798035.73045  25892528.5404   25892532.5014
      1506.6254
  -2277932.06846  -1611427.36245  26077886.8604   26077892.4504
      2609.3754
  -2799171.82845  -2046208.50345  25369157.5094   25369161.4934
      2834.5164
 06  4 20 16 35 30.0060000  0 10G10G 2G21G16G13G 6G27G 7G 8G29
 -14548587.18348 -11158352.97947  22097480.7954   22097484.4864
      -295.5624
  14010140.95047  10963385.67646  24200073.6394   24200075.0804
     -4302.9374
   -287063.04744    -95135.47745  26700523.1784   26700527.7134
      2837.1094
   -985737.31945    500407.85245  25639050.4594   25639053.2134
     -1016.1874
  12084624.61046   3041683.99346  25286374.9284   25286376.4284
     -4272.1254
  -5057289.86947    115851.43346  24064317.6154   24064321.2834
     -1826.6254
  -5689861.63546  -4311878.89046  24949768.7714   24949772.2754
       697.3914
  -2468911.72846  -1833107.23545  25883964.4284   25883968.9984
      1493.6564
  -2356109.86046  -1672345.03545  26063010.2014   26063013.9164
      2602.1254
  -2884118.47345  -2112400.67345  25352991.5764   25352996.3464
      2828.2664
 06  4 20 16 36  0.0060000  0 10G10G 2G21G16G13G 6G27G 7G 8G29
 -14539450.51848 -11151233.45347  22099219.9124   22099223.4864
      -313.6874
  14139384.22147  11064094.69146  24224667.6464   24224668.9364
     -4313.4064
   -372134.89345   -161425.70845  26684336.5214   26684341.1274
      2834.1254
   -954957.00145    524392.55845  25644907.2324   25644910.9004
     -1036.0004
  12212926.77446   3141659.66246  25310790.8184   25310792.5294
     -4281.4844
  -5002214.50847    158767.29546  24074798.0454   24074801.9474
     -1845.2344
  -5710558.87846  -4328006.54746  24945829.9824   24945833.5684
       682.2504
  -2513529.47246  -1867874.27745  25875472.8264   25875477.8184
      1480.6724
  -2434066.54245  -1733090.45545  26048175.3734   26048181.0574
      2594.8444
  -2968874.05845  -2178443.91745  25336862.7484   25336867.0494
      2821.9844
 06  4 20 16 36 30.0060000  0 10G10G 2G21G16G13G 6G27G 7G 8G29
 -14529776.63148 -11143695.33847  22101060.4754   22101063.8614
      -331.6254
  14268934.01347  11165042.53546  24249319.6704   24249321.1824
     -4323.6254
   -457122.50445   -227649.93045  26668163.4984   26668167.4124
      2831.2974
   -923588.97545    548834.99345  25650877.0144   25650879.2874
     -1055.5944
  12341502.60246   3241848.58946  25335257.8734   25335259.8074
     -4290.5944
  -4946587.34047    202113.12146  24085383.5924   24085387.1074
     -1863.6254
  -5730808.05946  -4343785.03546  24941976.6704   24941980.0684
       667.2814
  -2557762.74245  -1902341.68745  25867055.3574   25867060.1504
      1467.7974
  -2511809.37645  -1793669.24945  26033380.4044   26033385.7954
      2587.6094
  -3053446.79945  -2244344.75445  25320769.3964   25320774.2834
      2815.8134
 06  4 20 16 37  0.0060000  0 10G10G 2G21G16G13G 6G27G 7G 8G29
 -14519553.10848 -11135728.93947  22103006.0764   22103009.4634
      -350.0314
  14398800.19147  11266236.93646  24274032.1234   24274033.6584
     -4334.2034
   -542012.26545   -293797.69145  26652009.8574   26652015.0614
      2827.9384
   -891621.38946    573744.25445  25656960.7324   25656962.8074
     -1075.7194
  12470361.27146   3342257.90046  25359777.6704   25359780.8574
     -4300.0474
  -4890397.25447    245897.58946  24096076.4594   24096080.2564
     -1882.4694
  -5750595.32946  -4359203.59146  24938211.6394   24938215.1314
       651.7664
  -2601597.46946  -1936498.60045  25858714.0924   25858718.2644
      1454.4224
  -2589323.26745  -1854069.63245  26018630.2564   26018636.2794
      2579.8594
  -3137822.01144  -2310091.59245  25304712.7254   25304717.4004
      2809.1254
 06  4 20 16 37 30.0060000  0 10G10G 2G21G16G13G 6G27G 7G 8G29
 -14508778.74448 -11127333.33747  22105056.2174   22105059.6394
      -368.3914
  14528981.19047  11367676.65146  24298805.5294   24298806.3854
     -4344.6414
   -626801.59645   -359867.36345  26635875.3344   26635880.1974
      2824.5004
   -859051.56046    599123.97745  25663158.1314   25663160.8384
     -1095.7034
  12599501.29846   3442886.48146  25384352.0534   25384354.9714
     -4309.3914
  -4833644.48547    290120.50746  24106875.8034   24106879.2834
     -1901.1874
  -5769918.31046  -4374260.42346  24934534.2094   24934537.8304
       636.2814
  -2645030.73245  -1970342.87545  25850449.0064   25850453.2604
      1440.9844
  -2666604.19445  -1914288.47945  26003925.0684   26003930.4124
      2572.0634
  -3221996.52945  -2375682.10945  25288695.7644   25288700.3934
      2802.3914
 06  4 20 16 38  0.0060000  0 10G10G 2G21G16G13G 6G27G 7G 8G29
 -14497453.68648 -11118508.57747  22107211.5214   22107214.9554
      -386.6254
  14659473.96647  11469359.29646  24323637.5144   24323638.8034
     -4354.8754
   -711488.59945   -425857.35245  26619759.1704   26619760.2134
      2821.2344
   -825882.80345    624969.76045  25669469.2174   25669472.3934
     -1115.5624
  12728919.02846   3543731.37945  25408979.3264   25408982.0214
     -4318.4844
  -4776330.78647    334780.54246  24117782.3574   24117786.0254
     -1919.7504
  -5788776.40846  -4388955.06446  24930945.7954   24930949.8504
       620.8914
  -2688060.73245  -2003872.87545  25842260.5064   25842266.0844
      1427.6414
  -2743649.83145  -1974323.98745  25989263.7404   25989269.2954
      2564.2814
  -3305968.83045  -2441115.01645  25272716.3574   25272719.7444
      2795.7194
 06  4 20 16 38 30.0060000  0 10G10G 2G21G16G13G 6G27G 7G 8G29
 -14485580.60048 -11109256.80747  22109470.9674   22109474.2134
      -404.8914
  14790273.72847  11571281.16746  24348528.0374   24348529.0104
     -4365.0624
   -796074.06943   -491768.09245  26603661.1074   26603667.6934
      2817.7974
   -792117.23746    651280.76945  25675894.8734   25675897.4284
     -1135.4694
  12858609.28146   3644788.55845  25433659.9984   25433662.3304
     -4327.5164
  -4718459.83647    379874.80446  24128794.6624   24128798.6114
     -1938.2814
  -5807170.83046  -4403288.37546  24927444.8894   24927448.9084
       605.4064
  -2730687.85946  -2037088.85045  25834148.8734   25834153.0104
      1414.2034
  -2820459.90545  -2034175.91845  25974646.4514   25974650.7994
      2556.3914
  -3389739.10845  -2506390.50345  25256776.0064   25256779.7094
      2788.9844
 06  4 20 16 39  0.0060000  0 10G10G 2G21G16G13G 6G27G 7G 8G29
 -14473161.44048 -11099579.53447  22111834.2564   22111837.5144
      -423.1874
  14921375.70447  11673438.52046  24373475.9904   24373477.1154
     -4375.1724
   -880558.19845   -557599.56145  26587587.0614   26587591.9474
      2814.3134
   -757757.27946    678054.97645  25682433.1864   25682436.1864
     -1155.3284
  12988567.43446   3746054.64145  25458389.7404   25458391.3114
     -4336.5004
  -4660035.13647    425400.54246  24139912.5534   24139916.3144
     -1956.8124
  -5825101.73346  -4417260.47746  24924033.0064   24924036.6744
       589.8594
  -2772912.40545  -2069991.22745  25826114.0144   25826119.2284
      1400.6414
  -2897033.22245  -2093843.38945  25960074.8574   25960080.5764
      2548.3594
  -3473307.43745  -2571508.62245  25240873.8344   25240876.1544
      2782.1094
 06  4 20 16 39 30.0060000  0 10G10G 2G21G16G13G 6G27G 7G 8G29
 -14460191.99748 -11089473.45147  22114302.1314   22114305.4004
      -441.6094
  15052781.30947  11775832.48146  24398481.3034   24398482.4634
     -4385.3444
   -964934.81945   -623347.45145  26571530.0214   26571534.7794
      2810.6724
   -722800.26745    705294.07045  25689084.9824   25689088.3814
     -1175.3284
  13118794.43446   3847530.21345  25483171.5924   25483173.5844
     -4345.4694
  -4601054.07647    471359.78446  24151136.0684   24151139.7834
     -1975.4224
  -5842563.88446  -4430867.27346  24920710.4284   24920713.9204
       574.1094
  -2814728.24845  -2102575.07645  25818157.2874   25818161.7874
      1386.8914
  -2973363.02645  -2153321.13745  25945549.8114   25945556.1154
      2540.1094
  -3556667.80445  -2636464.68145  25225010.0844   25225013.1434
      2775.0634
 06  4 20 16 40  0.0060000  0 10G10G 2G21G16G13G 6G27G 7G 8G29
 -14446670.84348 -11078937.46647  22116875.0454   22116878.3034
      -459.6724
  15184489.31647  11878462.06346  24423544.9514   24423546.1704
     -4395.0624
  -1049201.24444   -689009.68445  26555493.0614   26555496.8694
      2807.2504
   -687244.53046    732999.91445  25695851.7874   25695854.5884
     -1194.9374
  13249288.72046   3949214.00746  25508003.7254   25508006.0804
     -4354.0004
  -4541516.57047    517752.62846  24162465.7644   24162469.7254
     -1993.6254
  -5859554.67746  -4444106.81846  24917476.9364   24917480.5924
       558.7194
  -2856132.18645  -2134837.93045  25810277.9124   25810283.1504
      1373.4694
  -3049445.23445  -2212605.92845  25931071.6394   25931077.7094
      2532.1414
  -3639816.72145  -2701255.99745  25209187.3574   25209190.7214
      2768.3134
 06  4 20 16 40 30.0060000  0 11G10G 2G21G16G13G 6G27G 7G 8G29G26
 -14432603.93048 -11067976.24947  22119551.9514   22119555.2094
      -478.1414
  15316491.32147  11981320.75546  24448664.2014   24448665.3854
     -4405.0944
  -1133360.41245   -754587.97145  26539479.6544   26539482.7014
      2803.3914
   -651097.03545    761166.77345  25702730.0374   25702732.8964
     -1214.9374
  13380041.55846   4051099.23645  25532885.6464   25532888.2364
     -4362.8594
  -4481429.75647    564573.51346  24173899.8504   24173904.1974
     -2012.1874
  -5876079.14746  -4456983.02246  24914332.4594   24914336.3264
       542.8754
  -2897128.04946  -2166782.69745  25802477.3344   25802481.5764
      1359.5634
  -3125283.18845  -2271700.37945  25916641.4204   25916645.7564
      2523.6884
  -3722757.80345  -2765885.33945  25193404.8654   25193407.3034
      2761.0634
    -59286.66343                  26351207.8344
      3486.5944
 06  4 20 16 41  0.0060000  0 11G10G 2G21G16G13G 6G27G 7G 8G29G26
 -14417985.95348 -11056585.60447  22122333.6934   22122337.1624
      -496.2664
  15448789.97747  12084410.58446  24473839.6544   24473840.4754
     -4414.6874
  -1217406.35146   -820078.51945  26523487.3264   26523491.6974
      2799.7814
   -614352.67245    789798.83545  25709722.6784   25709725.5844
     -1234.5004
  13511055.41746   4153187.86645  25557816.2484   25557818.5804
     -4371.2664
  -4420789.93047    611825.32246  24185439.0534   24185443.4594
     -2030.3444
  -5892130.57946  -4469490.55346  24911277.9984   24911281.9004
       527.3444
  -2937709.32346  -2198404.65845  25794755.4594   25794760.9674
      1345.9694
  -3200868.47445  -2330597.93745  25902257.4364   25902262.4164
      2515.4534
  -3805483.76645  -2830347.05445  25177662.3734   25177665.8774
      2754.0944
   -163839.44743                  26331313.1624
      3483.7034
 06  4 20 16 41 30.0060000  0 11G10G 2G21G16G13G 6G27G 7G 8G29G26
 -14402822.11048 -11044769.59847  22125219.1394   22125222.5724
      -514.5784
  15581377.76247  12187725.71746  24499070.8114   24499071.6894
     -4424.4064
  -1301341.91545   -885482.97645  26507513.3264   26507519.2214
      2796.0004
   -577017.87046    818890.82545  25716827.9364   25716830.7364
     -1254.3594
  13642322.53046   4255473.86945  25582794.6394   25582796.4904
     -4379.7814
  -4359603.55047    659503.01046  24197082.2324   24197086.5334
     -2048.6414
  -5907712.80946  -4481632.54746  24908312.7094   24908316.2834
       511.5634
  -2977878.50746  -2229705.67245  25787111.9284   25787115.6314
      1332.0784
  -3276203.41745  -2389300.43245  25887920.5844   25887925.7054
      2506.9844
  -3887997.69245  -2894643.56245  25161960.1864   25161963.9004
      2746.8754
   -268301.48243     -2709.80745  26311434.8034   26311438.5064
      3480.5004
 06  4 20 16 42  0.0060000  0 11G10G 2G21G16G13G 6G27G 7G 8G29G26
 -14387112.21748 -11032528.08247  22128208.5294   22128211.9164
      -533.0474
  15714252.18747  12291264.21146  24524355.4364   24524356.2564
     -4434.1724
  -1385164.80745   -950799.17245  26491561.9044   26491566.1584
      2791.9384
   -539092.23445    848443.34645  25724044.1074   25724047.7054
     -1274.2974
  13773840.02946   4357954.99445  25607822.2174   25607825.3344
     -4388.3284
  -4297872.00147    707605.48746  24208829.3814   24208833.5414
     -2067.0784
  -5922824.48746  -4493407.83446  24905437.1544   24905440.8464
       495.5634
  -3017633.43246  -2260683.43246  25779545.7954   25779551.5374
      1317.9534
  -3351284.65145  -2447805.24345  25873633.8964   25873639.5454
      2498.1724
  -3970297.52745  -2958773.23745  25146298.2174   25146301.6744
      2739.4534
   -372670.41043    -84036.17445  26291573.1544   26291575.7564
      3477.1094
 06  4 20 16 42 30.0060000  0 11G10G 2G21G16G13G 6G27G 7G 8G29G26
 -14370854.96548 -11019860.03947  22131302.2874   22131305.7094
      -550.9224
  15847411.96746  12395025.06246  24549694.8734   24549695.7994
     -4443.2814
  -1468871.71945  -1016025.67245  26475634.5064   26475636.4984
      2788.4064
   -500575.69646    878456.34045  25731373.4754   25731378.6894
     -1293.5474
  13905606.31946   4460629.99545  25632895.7954   25632898.2214
     -4396.2194
  -4235595.38047    756132.69746  24220680.7484   24220685.0254
     -2084.8594
  -5937462.82046  -4504814.28446  24902651.3034   24902654.8654
       480.1564
  -3056970.85246  -2291335.82546  25772060.3894   25772064.9004
      1304.3914
  -3426108.31245  -2506109.33845  25859396.0614   25859399.6824
      2489.9064
  -4052379.59645  -3022733.23145  25130678.4984   25130683.7014
      2732.5314
   -476942.20043   -165286.79245  26271731.0064   26271733.7254
      3474.1884
 06  4 20 16 43  0.0060000  0 11G10G 2G21G16G13G 6G27G 7G 8G29G26
 -14354056.44048 -11006770.24847  22134498.6864   22134502.0144
      -568.8914
  15980848.58746  12499001.63046  24575087.2254   24575088.2444
     -4452.3914
  -1552466.09545  -1081164.13145  26459726.1624   26459730.0764
      2784.6564
   -461474.90946    908924.20945  25738814.6234   25738817.4004
     -1313.0474
  14037612.84446   4563492.22345  25658016.2564   25658018.4714
     -4404.1254
  -4172781.15247    805078.82546  24232633.7714   24232637.7914
     -2102.6724
  -5951632.62246  -4515855.66246  24899954.9904   24899958.6004
       464.5784
  -3095895.13546  -2321666.30146  25764653.8184   25764658.4824
      1290.6414
  -3500677.52745  -2564215.11745  25845205.7484   25845209.9204
      2481.4534
  -4134247.80845  -3086526.59445  25115100.1624   25115104.3464
      2725.4384
   -581120.46543   -246464.59045  26251907.7174   26251911.2684
      3471.0634
 06  4 20 16 43 30.0060000  0 11G10G 2G21G16G13G 6G27G 7G 8G29G26
 -14336716.55348 -10993258.62847  22137798.4434   22137801.9244
      -587.3124
  16114559.68046  12603192.06846  24600531.5924   24600532.6004
     -4461.8914
  -1635946.48045  -1146213.65245  26443839.6394   26443845.7094
      2780.4694
   -421790.06646    939847.45845  25746367.4904   25746369.7054
     -1332.8754
  14169857.06646   4666539.63045  25683182.3424   25683185.7874
     -4412.3594
  -4109430.51047    854442.95546  24244689.0924   24244693.3344
     -2120.9224
  -5965332.77746  -4526531.09746  24897347.8034   24897351.6234
       448.5314
  -3134404.26046  -2351673.29746  25757325.5844   25757329.8034
      1276.3754
  -3574989.54545  -2622120.53345  25831064.4284   25831068.0494
      2472.4384
  -4215899.88345  -3150151.53446  25099561.7954   25099566.4944
      2717.8134
   -685202.61743   -327567.40545  26232100.0924   26232104.2994
      3467.4224
 06  4 20 16 44  0.0060000  0 11G10G 2G21G16G13G 6G27G 7G 8G29G26
 -14318831.42148 -10979322.13147  22141201.5614   22141204.9474
      -605.1874
  16248546.44246  12707597.32346  24626028.3894   24626029.7484
     -4470.7194
  -1719307.91645  -1211170.98045  26427977.7564   26427984.1314
      2776.7504
   -381518.52045    971227.93545  25754028.9824   25754031.8184
     -1352.1094
  14302339.73046   4769772.83045  25708393.6704   25708396.0254
     -4419.9844
  -4045541.26347    904226.78646  24256846.8574   24256850.7714
     -2138.5314
  -5978558.24146  -4536836.64046  24894830.7874   24894834.3384
       432.9844
  -3172493.15946  -2381353.17145  25750076.7564   25750081.4434
      1262.6564
  -3649037.31745  -2679820.02945  25816972.6624   25816978.1824
      2463.8914
  -4297329.97646  -3213603.50146  25084066.6314   25084069.9364
      2710.6724
   -789182.11744   -408590.31345  26212313.0764   26212318.1974
      3464.2974
 06  4 20 16 44 30.0060000  0 11G10G 2G21G16G13G 6G27G 7G 8G29G26
 -14300400.68248 -10964960.50947  22144708.9124   22144712.4164
      -623.1564
  16382806.84546  12812215.80046  24651576.8034   24651578.1154
     -4479.5784
  -1802546.12145  -1276031.88645  26412138.9594   26412142.9434
      2772.7814
   -340660.21346   1003065.45245  25761804.6704   25761807.3774
     -1371.4534
  14435058.80346   4873190.26245  25733648.6464   25733651.5184
     -4427.5944
  -3981114.30447    954429.59946  24269107.1154   24269111.0644
     -2156.2034
  -5991307.11646  -4546770.80946  24892405.1394   24892409.0884
       417.2974
  -3210158.19846  -2410702.42746  25742909.2484   25742914.1584
      1248.7504
  -3722817.43445  -2737310.95645  25802932.4284   25802938.0884
      2455.1724
  -4378535.29846  -3276880.31846  25068614.0924   25068617.3614
      2703.3594
   -893056.19544   -489531.05545  26192547.5534   26192551.7134
      3460.9694
 06  4 20 16 45  0.0060000  0 11G10G 2G21G16G13G 6G27G 7G 8G29G26
 -14281432.80548 -10950180.37847  22148318.5144   22148321.9824
      -641.2504
  16517329.92246  12917038.95246  24677176.0764   24677177.8114
     -4488.4844
  -1885667.64445  -1340801.72745  26396320.8034   26396325.8304
      2768.7034
   -299223.81646   1035353.83645  25769689.3344   25769692.1004
     -1390.8444
  14568002.91846   4976783.00445  25758948.2484   25758951.1544
     -4435.1874
  -3916159.63547   1005043.62146  24281467.4364   24281471.1864
     -2173.9694
  -6003586.63446  -4556339.22346  24890068.1784   24890072.1504
       401.4384
  -3247406.68946  -2439727.31946  25735821.2094   25735826.2484
      1234.5944
  -3796335.46845  -2794597.65745  25788942.9904   25788947.9594
      2446.1724
  -4459522.29646  -3339987.01446  25053202.6314   25053205.7484
      2695.8594
   -996830.72644   -570394.22245  26172798.9984   26172804.9284
      3457.4384
 06  4 20 16 45 30.0060000  0 11G10G 2G21G16G13G 6G27G 7G 8G29G26
 -14261921.76048 -10934976.96647  22152031.2094   22152034.6434
      -659.5004
  16652119.11146  13022069.46646  24702825.4284   24702827.0924
     -4497.4534
  -1968665.73145  -1405475.50845  26380525.3654   26380528.9514
      2764.4694
   -257205.30946   1068095.38845  25777685.6154   25777687.4204
     -1410.3914
  14701175.15645   5080553.48645  25784287.9674   25784289.9714
     -4442.9374
  -3850672.94247   1056072.21046  24293929.3734   24293933.1354
     -2191.8124
  -6015389.76746  -4565536.39246  24887822.1864   24887825.9824
       385.4224
  -3284230.91746  -2468421.71446  25728814.3034   25728819.3654
      1220.2974
  -3869582.97545  -2851673.55645  25775004.1234   25775008.5534
      2436.9844
  -4540283.04346  -3402917.41746  25037834.1314   25037837.4004
      2688.1564
  -1100497.16244   -651173.18545  26153071.5764   26153075.8894
      3453.6414
 06  4 20 16 46  0.0060000  0 11G10G 2G21G16G13G 6G27G 7G 8G29G26
 -14241864.62348 -10919347.97947  22155847.8424   22155851.0764
      -677.4844
  16787174.96546  13127307.76046  24728525.6864   24728527.5494
     -4506.0944
  -2051534.65646  -1470048.68145  26364757.7254   26364761.5684
      2760.2974
   -214601.74645   1101293.03545  25785792.3424   25785797.0414
     -1429.6724
  14834575.94046   5184502.06145  25809673.7404   25809676.1664
     -4450.2974
  -3784652.61347   1107516.61046  24306492.6154   24306496.1894
     -2209.3754
  -6026712.40546  -4574359.17346  24885667.4674   24885671.0184
       369.5944
  -3320625.26946  -2496780.92546  25721888.8894   25721893.3074
      1206.1414
  -3942553.76445  -2908533.82245  25761117.8424   25761122.5294
      2427.8914
  -4620812.14546  -3465667.31846  25022509.7644   25022513.2914
      2680.5944
  -1204050.07344   -731863.67045  26133364.8574   26133369.1234
      3450.0474
 06  4 20 16 46 30.0060000  0 11G10G 2G21G16G13G 6G27G 7G 8G29G26
 -14221264.69048 -10903296.08947  22159767.9204   22159771.3304
      -696.1724
  16922491.80246  13232749.41146  24754275.3184   24754277.0884
     -4515.3444
  -2134274.89045  -1534521.39345  26349010.8344   26349015.1354
      2755.3914
   -171416.85145   1134943.64145  25794009.9364   25794012.9944
     -1449.6414
  14968199.65846   5288624.28345  25835101.6464   25835103.8384
     -4458.2664
  -3718103.33547   1159373.17146  24319156.4984   24319160.2014
     -2227.5944
  -6037556.43546  -4582809.00946  24883603.9984   24883607.7954
       353.0164
  -3356591.40646  -2524806.59546  25715044.2644   25715048.3304
      1191.2814
  -4015248.25745  -2965178.81445  25747284.8424   25747290.1394
      2418.0314
  -4701110.61846  -3528237.50346  25007229.4124   25007232.7524
      2672.2814
  -1307489.76444   -812465.94445  26113680.6314   26113684.7444
      3445.6254
 06  4 20 16 47  0.0060000  0 11G10G 2G21G16G13G 6G27G 7G 8G29G26
 -14200112.57048 -10886813.88147  22163793.1314   22163796.6004
      -714.1094
  17058076.33946  13338399.66046  24780076.9984   24780078.3934
     -4523.7504
  -2216875.71745  -1598885.48645  26333293.1154   26333296.8894
      2751.1724
   -127642.35046   1169053.68245  25802340.0064   25802343.2994
     -1468.8124
  15102052.66745   5392925.21445  25860572.1704   25860574.4324
     -4465.3914
  -3651017.15647   1211648.11146  24331922.5454   24331926.2714
     -2244.9534
  -6047911.22246  -4590877.66046  24881633.2094   24881637.1234
       337.1724
  -3392117.68946  -2552489.32446  25708284.7094   25708288.9164
      1177.0314
  -4087654.00345  -3021598.78545  25733506.7404   25733512.4364
      2408.8444
  -4781166.94646  -3590619.01446  24991995.0534   24991998.2644
      2664.6564
  -1410804.72844   -892970.99145  26094020.7714   26094026.6544
      3441.8754
 06  4 20 16 47 30.0060000  0 11G10G 2G21G16G13G 6G27G 7G 8G29G26
 -14178423.31948 -10869913.14947  22167920.3034   22167923.6314
      -732.0314
  17193911.62946  13444245.32546  24805925.4434   24805927.0144
     -4532.0944
  -2299349.69346  -1663150.85245  26317600.4824   26317603.2834
      2746.8754
    -83293.47645   1203611.41945  25810779.2714   25810782.0024
     -1487.9374
  15236117.42245   5497390.98345  25886084.5144   25886087.0574
     -4472.4224
  -3583410.48647   1264328.64046  24344787.7644   24344791.7604
     -2262.3124
  -6057790.52947  -4598575.75346  24879753.5144   24879757.3224
       321.2664
  -3427217.14146  -2579839.33246  25701605.5924   25701609.9284
      1162.7344
  -4159782.46145  -3077802.69146  25719781.4514   25719785.8934
      2399.5314
  -4860993.71846  -3652821.66846  24976804.6004   24976808.2214
      2656.9534
  -1514006.91944   -973388.16945  26074381.6934   26074385.2444
      3438.0634
 06  4 20 16 48  0.0060000  0 11G10G 2G21G16G13G 6G27G 7G 8G29G26
 -14156190.86148 -10852589.12747  22172151.0144   22172154.3654
      -750.2504
  17330001.23046  13550289.14246  24831822.6934   24831824.0764
     -4540.6414
  -2381688.57745  -1727311.01545  26301930.2484   26301933.9864
      2742.2194
    -38366.01445   1238619.71545  25819328.6394   25819330.6074
     -1507.3754
  15370397.68645   5602024.85845  25911637.3344   25911640.4634
     -4479.7034
  -3515278.91347   1317418.16946  24357752.4514   24357756.0964
     -2279.9064
  -6067187.10647  -4605897.70746  24877965.4124   24877968.9284
       305.0634
  -3461881.89846  -2606850.68946  25695007.8034   25695012.9474
      1148.0944
  -4231625.09146  -3133783.85246  25706110.3114   25706113.9434
      2389.8444
  -4940582.99046  -3714839.23646  24961659.3114   24961662.6504
      2648.8914
  -1617087.79144  -1053710.82645  26054765.3894   26054768.9634
      3433.9224
 06  4 20 16 48 30.0060000  0 11G10G 2G21G16G13G 6G27G 7G 8G29G26
 -14133417.92448 -10834843.97147  22176484.4364   22176487.7524
      -768.4064
  17466339.84046  13656526.99246  24857766.5924   24857768.2684
     -4549.0474
  -2463892.72045  -1791366.06545  26286287.6464   26286292.4984
      2737.5474
      7137.40846   1274076.92845  25827988.1934   25827990.3264
     -1526.6724
  15504887.87545   5706822.20545  25937231.1624   25937233.0614
     -4486.7974
  -3446626.62547   1370913.43546  24370816.6864   24370820.0494
     -2297.3914
  -6076102.34447  -4612844.57146  24876268.6314   24876272.2524
       288.8284
  -3496113.40846  -2633524.58546  25688494.3114   25688499.0334
      1133.4844
  -4303181.52646  -3189542.03846  25692492.8034   25692497.0924
      2380.1094
  -5019934.90746  -3776671.87346  24946559.3574   24946562.2284
      2640.7664
  -1720047.44544  -1133939.02745  26035173.0614   26035177.1274
      3429.6254
 06  4 20 16 49  0.0060000  0 11G10G 2G21G16G13G 6G27G 7G 8G29G26
 -14110102.55448 -10816676.13147  22180921.4124   22180924.7054
      -786.2664
  17602926.96746  13762958.49546  24883758.1624   24883759.8854
     -4557.0624
  -2545958.23746  -1855313.10545  26270672.0214   26270674.8814
      2733.1254
     53217.79746   1309983.72645  25836756.7404   25836760.3734
     -1545.6564
  15639587.26145   5811782.58445  25962863.7644   25962866.6464
     -4493.5004
  -3377453.33947   1424814.67346  24383979.9434   24383983.3894
     -2314.4844
  -6084533.35347  -4619414.15346  24874664.3574   24874667.9674
       272.8914
  -3529907.46246  -2659857.82446  25682063.2564   25682068.8344
      1119.1094
  -4374446.82446  -3245073.34846  25678931.5764   25678935.6784
      2370.5784
  -5099045.32546  -3838316.32546  24931504.7874   24931508.2914
      2632.9224
  -1822881.19244  -1214069.15945  26015604.8964   26015607.4394
      3425.6094
 06  4 20 16 49 30.0060000  0 11G10G 2G21G16G13G 6G27G 7G 8G29G26
 -14086244.15148 -10798085.18747  22185461.4434   22185464.8774
      -804.2034
  17739761.39046  13869582.69046  24909796.9124   24909798.5884
     -4565.1254
  -2627882.16646  -1919149.95045  26255081.7174   26255086.3224
      2728.5164
     99875.25746   1346340.17745  25845636.0374   25845639.0374
     -1564.7194
  15774494.82945   5916905.18645  25988535.9514   25988537.6744
     -4500.2194
  -3307759.40947   1479121.62746  24397242.6234   24397246.1744
     -2331.6724
  -6092477.78146  -4625604.56746  24873152.4984   24873156.1894
       256.8134
  -3563260.94146  -2685847.77546  25675716.4434   25675721.3424
      1104.5164
  -4445417.01746  -3300374.73146  25665426.5764   25665431.0294
      2360.8594
  -5177911.18246  -3899770.19746  24916497.3964   24916500.1744
      2624.8914
  -1925585.46644  -1294098.33345  25996060.5144   25996063.7364
      3421.4384
 06  4 20 16 50  0.0060000  0 11G10G 2G21G16G13G 6G27G 7G 8G29G26
 -14061842.73848 -10779071.11347  22190105.0294   22190108.4754
      -822.5944
  17876840.51746  13976397.58246  24935883.0844   24935884.7134
     -4573.5314
  -2709661.65445  -1982873.98145  26239518.5844   26239522.8144
      2723.3594
    147108.89646   1383145.58145  25854624.1784   25854626.0414
     -1584.2194
  15909607.17745   6022187.36545  26014246.1074   26014248.9434
     -4507.3124
  -3237546.57947   1533832.90546  24410603.2794   24410607.1004
     -2349.2194
  -6099934.70146  -4631415.12246  24871733.3964   24871737.1934
       240.2504
  -3596171.60246  -2711492.45246  25669453.5844   25669458.7174
      1089.4534
  -4516089.18146  -3355443.87646  25651978.4824   25651983.0764
      2350.5474
  -5256530.16246  -3961031.70446  24901535.9514   24901539.2564
      2616.3284
  -2028157.65245  -1374024.67745  25976544.0614   25976549.2284
      3416.6564
 06  4 20 16 50 30.0060000  0 11G10G 2G21G16G13G 6G27G 7G 8G29G26
 -14036900.87248 -10759635.84647  22194851.4044   22194854.7444
      -840.4374
  18014158.99446  14083398.96346  24962013.6704   24962015.2754
     -4581.2974
  -2791297.68545  -2046486.33145  26223983.3114   26223987.1434
      2718.7664
    194914.95845   1420397.04745  25863720.8344   25863725.0884
     -1603.1094
  16044918.91645   6127624.85245  26039994.8424   26039996.4714
     -4513.7504
  -3166819.21647   1588945.12446  24424062.5064   24424066.4084
     -2366.1724
  -6106906.11646  -4636847.36946  24870407.3894   24870410.8934
       224.2194
  -3628640.23946  -2736792.56146  25663275.3574   25663280.0684
      1074.8594
  -4586462.87146  -3410280.43346  25638586.5614   25638590.1704
      2340.7344
  -5334902.83746  -4022101.28346  24886622.1624   24886625.9364
      2608.2504
  -2130597.63045  -1453847.91745  25957048.5764   25957053.4164
      3412.4064
 06  4 20 16 51  0.0060000  0 11G10G 2G21G16G13G 6G27G 7G 8G29G26
 -14011416.14448 -10739777.59847  22199700.9204   22199704.3534
      -858.6254
  18151717.27246  14190587.21146  24988189.4754   24988191.2444
     -4589.3594
  -2872785.58345  -2109983.23845  26208476.5844   26208480.2404
      2713.6724
    243295.72746   1458096.44345  25872927.7404   25872930.8114
     -1622.3444
  16180431.08045   6233218.72345  26065782.9984   26065785.4944
     -4520.4534
  -3095576.20947   1644459.12846  24437619.3034   24437623.2404
     -2383.4374
  -6113387.49946  -4641897.75846  24869174.1154   24869177.4434
       207.7814
  -3660663.07646  -2761745.48646  25657180.1004   25657185.3964
      1059.8914
  -4656532.75146  -3464880.23946  25625252.3654   25625255.8464
      2330.4694
  -5413024.16046  -4082975.01946  24871755.5144   24871759.4284
      2599.7344
  -2232900.20745  -1533564.13245  25937581.4824   25937584.4364
      3407.7344
 06  4 20 16 51 30.0060000  0 11G10G 2G21G16G13G 6G27G 7G 8G29G26
 -13985388.08548 -10719495.98247  22204653.7564   22204657.2254
      -876.5784
  18289513.48346  14297960.85946  25014412.0534   25014413.4944
     -4597.0624
  -2954122.88546  -2173363.04245  26193000.7254   26193003.3854
      2708.7504
    292250.41745   1496242.92745  25882242.9124   25882245.9824
     -1641.3124
  16316141.22345   6338966.78845  26091608.0294   26091610.8184
     -4526.8754
  -3023818.41747   1700374.28546  24451274.5844   24451278.1354
     -2400.4064
  -6119377.37946  -4646565.17946  24868033.8264   24868036.9434
       191.5314
  -3692236.87446  -2786348.23046  25651172.9984   25651178.6824
      1045.0314
  -4726295.24646  -3519240.56846  25611975.7174   25611980.9204
      2320.3284
  -5490891.58446  -4143650.89646  24856938.4364   24856942.6544
      2591.4064
  -2335062.06945  -1613170.74645  25918140.1004   25918145.6194
      3403.1094
 06  4 20 16 52  0.0060000  0 11G10G 2G21G16G13G 6G27G 7G 8G29G26
 -13958821.34148 -10698794.65247  22209709.3964   22209712.6314
      -894.4534
  18427540.82546  14405514.60946  25040677.2954   25040678.5024
     -4604.6564
  -3035310.55146  -2236626.15345  26177550.5534   26177553.4124
      2703.8134
    341773.94945   1534832.75145  25891666.2324   25891669.3144
     -1660.1564
  16452042.63045   6444863.99445  26117470.2174   26117473.1824
     -4533.1254
  -2951552.04147   1756685.73146  24465026.2404   24465030.1894
     -2417.2504
  -6124878.98446  -4650852.11746  24866986.4984   24866989.6864
       175.3134
  -3723364.92346  -2810603.91146  25645249.7564   25645255.3464
      1030.2344
  -4795751.54146  -3573362.30946  25598759.6314   25598765.1864
      2310.1414
  -5568507.08246  -4204130.48646  24842168.3344   24842171.6504
      2583.0474
  -2437084.95745  -1692669.02045  25898725.8264   25898728.7214
      3398.4844
 06  4 20 16 52 30.0060000  0 11G10G 2G21G16G13G 6G27G 7G 8G29G26
 -13931712.47948 -10677670.83747  22214868.1314   22214871.3074
      -912.5944
  18565800.40546  14513249.32446  25066987.5144   25066989.2134
     -4612.4064
  -3116343.26846  -2299768.33345  26162130.3034   26162133.3504
      2698.5634
    391868.52445   1573867.60245  25901199.6784   25901203.7684
     -1679.2664
  16588135.58245   6550910.55445  26143367.8504   26143369.6894
     -4539.4844
  -2878775.31947   1813394.85646  24478875.2714   24478879.0574
     -2434.2974
  -6129887.97646  -4654755.20546  24866033.7174   24866037.1504
       158.8284
  -3754041.25746  -2834507.47646  25639411.1934   25639416.0334
      1015.0634
  -4864895.06046  -3627240.31046  25585602.7094   25585606.5294
      2299.6094
  -5645865.04246  -4264409.36446  24827447.5764   24827451.8304
      2574.3914
  -2538962.62345  -1772054.16945  25879340.7014   25879345.1894
      3393.5164
 06  4 20 16 53  0.0060000  0 11G10G 2G21G16G13G 6G27G 7G 8G29G26
 -13904062.16648 -10656125.11047  22220129.6544   22220132.8304
      -930.6414
  18704289.31946  14621162.74946  25093340.9594   25093342.1434
     -4620.0164
  -3197219.50246  -2362788.62145  26146738.9044   26146742.7834
      2693.2974
    442532.66146   1613346.09445  25910841.2174   25910843.7484
     -1698.2344
  16724417.15945   6657103.95345  26169299.6784   26169302.5024
     -4545.7814
  -2805490.36947   1870499.98546  24492820.8814   24492825.0064
     -2451.2194
  -6134403.72347  -4658273.93146  24865174.1704   24865177.4164
       142.3594
  -3784264.79446  -2858058.21746  25633660.3504   25633665.4944
       999.9694
  -4933723.56146  -3680872.82946  25572504.7484   25572508.5684
      2289.0634
  -5722963.68746  -4324486.18446  24812776.5614   24812780.1704
      2565.6724
  -2640693.07245  -1851324.57245  25859981.3264   25859986.1894
      3388.5634
 06  4 20 16 53 30.0060000  0 11G10G 2G21G16G13G 6G27G 7G 8G29G26
 -13875865.79748 -10634153.88947  22225495.2484   22225498.6004
      -949.1094
  18843009.75346  14729256.56146  25119739.0374   25119740.8534
     -4627.9844
  -3277932.22146  -2425681.67145  26131379.3734   26131383.3574
      2687.5474
    493770.06946   1653271.30545  25920591.7014   25920594.7364
     -1717.5944
  16860889.57845   6763446.04545  26195269.5294   26195272.0614
     -4552.3754
  -2731694.24947   1928003.44446  24506863.9204   24506867.8814
     -2468.5004
  -6138420.47247  -4661403.83346  24864409.7174   24864413.1154
       125.4384
  -3814028.79046  -2881250.75946  25627996.2874   25628000.6354
       984.3284
  -5002229.22346  -3734253.78746  25559469.0844   25559473.1034
      2277.9844
  -5799796.36246  -4384355.76246  24798156.3654   24798159.1664
      2556.5164
  -2742268.69845  -1930474.34545  25840651.4674   25840654.4324
      3383.0944
 06  4 20 16 54  0.0060000  0 11G10G 2G21G16G13G 6G27G 7G 8G29G26
 -13847126.21348 -10611759.39447  22230964.2484   22230967.4244
      -967.0314
  18981957.11846  14837527.20646  25146179.7014   25146181.2714
     -4635.3124
  -3358481.36146  -2488447.18445  26116051.2324   26116054.1974
      2682.2504
    545577.64446   1693640.87545  25930449.2874   25930451.3504
     -1736.4064
  16997548.08745   6869933.16145  26221274.7324   26221276.5964
     -4558.3594
  -2657390.87747   1985902.15846  24521003.1784   24521007.1504
     -2485.2034
  -6141939.55547  -4664145.93846  24863740.0684   24863743.1034
       109.0164
  -3843334.28046  -2904086.10246  25622420.2714   25622424.8534
       969.2034
  -5070411.67446  -3787382.88946  25546493.1784   25546497.7364
      2267.3444
  -5876363.01446  -4444018.04146  24783586.2094   24783588.9044
      2547.7664
  -2843689.41745  -2009503.42745  25821352.0844   25821356.0574
      3378.0474
 06  4 20 16 54 30.0060000  0 11G10G 2G21G16G13G 6G27G 7G 8G29G26
 -13817839.06848 -10588938.24147  22236537.2644   22236540.5214
      -985.4374
  19121132.98946  14945975.91546  25172663.7794   25172665.1624
     -4643.0624
  -3438860.92646  -2551080.72845  26100756.4044   26100759.1234
      2676.3914
    597958.30045   1734456.95345  25940416.9204   25940420.0494
     -1755.6414
  17134394.68045   6976566.87245  26247316.3344   26247318.5144
     -4564.7344
  -2582577.71447   2044198.10546  24535239.6394   24535243.4364
     -2502.3284
  -6144955.64946  -4666496.10446  24863166.0534   24863169.2524
        92.0634
  -3872175.01446  -2926559.38046  25616931.8114   25616936.2284
       953.5004
  -5138263.43746  -3840254.33346  25533581.4044   25533586.0334
      2256.1094
  -5952657.28346  -4503468.07046  24769067.4204   24769070.7014
      2538.4844
  -2944948.06845  -2088406.21845  25802081.5764   25802085.4904
      3372.5164
 06  4 20 16 55  0.0060000  0 11G10G 2G21G16G13G 6G27G 7G 8G29G26
 -13788008.60248 -10565693.71247  22242213.9204   22242217.1194
     -1003.5164
  19260531.11946  15054597.79746  25199190.8734   25199192.0684
     -4650.3754
  -3519072.12646  -2613582.91545  26085492.7014   26085496.4284
      2670.7814
    650907.20145   1775715.78745  25950493.0924   25950494.7444
     -1774.5624
  17271422.52345   7083341.78445  26273391.0374   26273395.0574
     -4570.7034
  -2507260.48146   2102886.86546  24549571.8114   24549575.4784
     -2519.0624
  -6147471.52446  -4668456.49146  24862687.0924   24862690.6314
        75.4064
  -3900553.11646  -2948672.23746  25611531.2794   25611535.2754
       938.0944
  -5205785.74546  -3892869.02946  25520732.7564   25520736.9864
      2245.0944
  -6028680.64346  -4562707.02046  24754599.8424   24754603.4164
      2529.4534
  -3046045.95145  -2167183.72045  25782843.9514   25782848.4284
      3367.1094
 06  4 20 16 55 30.0060000  0 11G10G 2G21G16G13G 6G27G 7G 8G29G26
 -13757639.58248 -10542029.55247  22247993.1004   22247996.3574
     -1021.3284
  19400144.23146  15163387.19346  25225758.5144   25225759.8144
     -4657.3914
  -3599117.43846  -2675955.93645  26070259.9754   26070262.3304
      2665.3444
    704418.88346   1817413.21145  25960676.4044   25960679.3814
     -1793.1414
  17408625.07745   7190253.20945  26299500.0684   26299502.2484
     -4576.3124
  -2431445.57546   2161963.39946  24563999.4204   24564003.2284
     -2535.5004
  -6149491.06746  -4670030.12946  24862302.7404   24862306.1864
        58.9844
  -3928471.18046  -2970426.62046  25606219.1864   25606223.5214
       922.8754
  -5272980.06446  -3945228.16146  25507946.4434   25507950.3574
      2234.2664
  -6104435.73046  -4621736.90646  24740184.4594   24740187.3424
      2520.6254
  -3146984.81245  -2245837.31245  25763636.3114   25763640.3534
      3361.9064
 06  4 20 16 56  0.0060000  0 11G10G 2G21G16G13G 6G27G 7G 8G29G26
 -13726730.98948 -10517944.89447  22253874.6004   22253877.8814
     -1039.3914
  19539971.81546  15272343.70946  25252366.1934   25252367.8574
     -4664.5944
  -3678992.81946  -2738196.48245  26055059.5374   26055061.7524
      2659.5634
    758493.09646   1859548.91645  25970966.4594   25970969.4474
     -1811.9844
  17545999.83945   7297298.48945  26325640.8964   26325643.7094
     -4582.1414
  -2355133.51946   2221427.33346  24578521.1934   24578524.8144
     -2552.1094
  -6151012.01346  -4671215.22746  24862013.4204   24862017.2284
        42.2664
  -3955926.11746  -2991820.10746  25600993.9044   25600998.6624
       907.3134
  -5339841.91746  -3997328.22846  25495222.1544   25495226.3504
      2223.0314
  -6179919.02546  -4680555.00046  24725820.8184   24725824.1464
      2511.4384
  -3247760.92045  -2324364.08845  25744458.8504   25744462.9984
      3356.3444
 06  4 20 16 56 30.0060000  0 11G10G 2G21G16G13G 6G27G 7G 8G29G26
 -13695278.73448 -10493436.63647  22259859.9044   22259863.2094
     -1057.3594
  19680015.85146  15381468.90446  25279015.5924   25279017.2324
     -4671.6254
  -3758691.62546  -2800299.34145  26039893.4984   26039897.4944
      2653.7664
    813133.75146   1902126.14745  25981363.6394   25981366.1934
     -1830.6874
  17683549.21745   7404479.65545  26351816.6314   26351818.0844
     -4587.7664
  -2278321.25147   2281281.03046  24593138.4124   24593141.9514
     -2568.6414
  -6152028.91946  -4672007.60746  24861819.9124   24861823.5454
        25.5784
  -3982911.62446  -3012847.75846  25595859.3574   25595864.4674
       891.7504
  -5406364.01446  -4049163.56146  25482563.6154   25482568.1504
      2211.8134
  -6255123.75746  -4739156.05346  24711510.5924   24711513.6504
      2502.2504
  -3348366.66445  -2402758.10945  25725314.4284   25725318.8814
      3350.7344
 06  4 20 16 57  0.0060000  0 11G10G 2G21G16G13G 6G27G 7G 8G29G26
 -13663281.25048 -10468503.53947  22265948.9364   22265952.0064
     -1075.7814
  19820275.61546  15490762.19746  25305706.2484   25305707.7364
     -4679.0004
  -3838210.18546  -2862261.85145  26024762.1154   26024766.2754
      2647.4694
    868340.92445   1945144.66445  25991869.3964   25991873.0294
     -1849.7664
  17821273.19445   7511797.00745  26378027.8114   26378031.3144
     -4593.7344
  -2201009.04946   2341524.26546  24607850.1074   24607854.1504
     -2585.4844
  -6152538.75646  -4672404.81546  24861722.8574   24861726.5494
         8.4384
  -4009424.29546  -3033506.98446  25590814.3574   25590819.1394
       875.7344
  -5472541.60446  -4100730.44446  25469970.4204   25469975.2604
      2200.0474
  -6330045.75146  -4797536.76846  24697252.8264   24697255.9554
      2492.5634
  -3448797.80145  -2481016.07145  25706202.4904   25706205.8774
      3344.6414
 06  4 20 16 57 30.0060000  0 11G10G 2G21G16G13G 6G27G 7G 8G29G26
 -13630741.28348 -10443147.71847  22272140.9044   22272144.0454
     -1093.6874
  19960746.02146  15600219.61746  25332436.3264   25332437.2754
     -4685.8284
  -3917547.97146  -2924083.27145  26009665.6074   26009668.6784
      2641.5784
    924111.05345   1988601.84645  26002480.9674   26002484.9984
     -1868.3444
  17959166.67945   7619246.60745  26404266.1544   26404268.5104
     -4599.2194
  -2123201.23946   2402153.72146  24622656.0844   24622660.0334
     -2601.8124
  -6152543.57546  -4672408.52246  24861721.9824   24861725.3114
        -8.2664
  -4035464.94146  -3053798.35646  25585858.8424   25585863.8114
       860.1414
  -5538374.44846  -4152028.70446  25457442.9124   25457447.5884
      2188.6564
  -6404685.70746  -4855697.72946  24683049.3504   24683052.8654
      2483.2814
  -3549054.17445  -2559137.87845  25687125.7484   25687129.1824
      3338.9384
 06  4 20 16 58  0.0060000  0 11G10G 2G21G16G13G 6G27G 7G 8G29G26
 -13597662.94148 -10417372.34547  22278435.4824   22278438.7054
     -1111.6874
  20101420.85946  15709836.33446  25359206.2644   25359208.1034
     -4692.6414
  -3996707.36146  -2985765.82345  25994602.9754   25994605.8224
      2635.5164
    980439.30545   2032493.89545  26013200.7174   26013204.2794
     -1887.0314
  18097222.34745   7726822.18945  26430537.3574   26430540.2284
     -4604.6414
  -2044903.54546   2463164.89446  24637555.8114   24637559.2214
     -2618.1724
  -6152046.12347  -4672020.87846  24861816.8894   24861820.1114
       -25.0784
  -4061035.54246  -3073723.45046  25580992.0374   25580997.3934
       844.3754
  -5603863.41146  -4203058.97346  25444980.3814   25444984.7644
      2177.0944
  -6479045.12246  -4913640.09746  24668899.0924   24668902.7954
      2473.8444
  -3649136.71345  -2637124.22645  25668080.8574   25668084.3384
      3333.0474
 06  4 20 16 58 30.0060000  0 11G10G 2G21G16G13G 6G27G 7G 8G29G26
 -13564036.65248 -10391170.01647  22284834.3114   22284837.4634
     -1130.0784
  20242307.75946  15819618.30346  25386016.1784   25386017.8184
     -4699.8124
  -4075676.05446  -3047299.84845  25979574.7874   25979577.7994
      2628.9844
   1037335.03445   2076828.57445  26024027.3264   26024030.9824
     -1906.0004
  18235448.08345   7834530.30445  26456840.3734   26456842.7404
     -4610.3914
  -1966107.89046   2524564.09946  24652549.7564   24652553.9044
     -2634.8754
  -6151035.40347  -4671233.29646  24862008.7714   24862011.8424
       -42.3284
  -4086124.56646  -3093273.23346  25576218.7014   25576223.3894
       828.1884
  -5668995.57346  -4253811.25246  25432586.0374   25432591.4044
      2165.0164
  -6553111.98146  -4971354.50046  24654804.1394   24654807.4434
      2463.9384
  -3749033.05445  -2714965.46245  25649070.0764   25649073.4864
      3326.6724
 06  4 20 16 59  0.0060000  0 11G10G 2G21G16G13G 6G27G 7G 8G29G26
 -13529865.11948 -10364542.81347  22291336.8264   22291339.9084
     -1148.0624
  20383401.79546  15929561.65246  25412865.6464   25412866.5254
     -4706.5004
  -4154453.78845  -3108685.01545  25964580.9044   25964584.9004
      2622.8134
   1094793.49346   2121601.47645  26034962.3184   26034964.6034
     -1924.5944
  18373839.70945   7942367.89645  26483175.7324   26483181.3694
     -4615.7034
  -1886818.44546   2586348.06346  24667638.4044   24667642.7994
     -2651.1414
  -6149513.35447  -4670047.27246  24862298.6154   24862301.7094
       -59.1874
  -4110732.84346  -3112448.49646  25571535.0374   25571539.2444
       812.3134
  -5733770.27146  -4304284.96446  25420260.7014   25420264.9204
      2153.2344
  -6626886.35746  -5028840.98346  24640765.6074   24640768.8534
      2454.3284
  -3848742.61845  -2792661.17945  25630096.4044   25630100.3894
      3320.5784
 06  4 20 16 59 30.0060000  0 11G10G 2G21G16G13G 6G27G 7G 8G29G26
 -13495150.28048 -10337492.25047  22297942.8114   22297946.1394
     -1166.2194
  20524699.23646  16039663.52146  25439753.4364   25439754.2324
     -4713.2814
  -4233039.39546  -3169920.50245  25949629.1074   25949632.2954
      2616.2814
   1152812.23646   2166810.84845  26046002.0844   26046004.8964
     -1943.3124
  18512393.00445   8050331.49345  26509542.2254   26509544.9084
     -4621.1094
  -1807038.66346   2648514.07846  24682820.3504   24682824.7564
     -2667.4844
  -6147480.60347  -4668463.29546  24862685.5374   24862688.7834
       -76.2974
  -4134859.90946  -3131248.72446  25566944.3424   25566948.5844
       796.1884
  -5798186.08946  -4354479.00246  25408002.6704   25408006.2324
      2141.1564
  -6700367.64946  -5086099.07946  24626782.3424   24626785.6704
      2444.4534
  -3948264.18145  -2870210.36645  25611157.4044   25611161.0254
      3314.2194
 06  4 20 17  0  0.0060000  0 11G10G 2G21G16G13G 6G27G 7G 8G29G26
 -13459886.12448 -10310013.70747  22304653.2714   22304656.5064
     -1184.4534
  20666203.90646  16149926.83846  25466680.8654   25466682.9164
     -4720.0944
  -4311424.75646  -3230999.93945  25934714.0844   25934717.7874
      2609.6414
   1211396.58545   2212461.05145  26057149.8734   26057152.3574
     -1962.0474
  18651111.97345   8158424.35145  26535939.5374   26535941.2014
     -4626.5004
  -1726763.84846   2711065.86346  24698095.9204   24698099.9164
     -2683.8754
  -6144929.59247  -4666475.46246  24863170.9124   24863174.3694
       -93.5004
  -4158497.92246  -3149667.87646  25562446.6704   25562451.1354
       779.9224
  -5862233.72346  -4404386.21146  25395814.1004   25395817.7564
      2128.9534
  -6773547.12046  -5143122.00246  24612856.9674   24612859.9674
      2434.4534
  -4047588.57645  -2947605.92645  25592256.0454   25592261.0254
      3307.6724
 06  4 20 17  0 30.0060000  0 11G10G 2G21G16G13G 6G27G 7G 8G29G26
 -13424077.27148 -10282110.71847  22311467.7644   22311471.0334
     -1202.6724
  20807909.33246  16260346.59446  25493646.4364   25493648.3344
     -4726.7974
  -4389611.59546  -3291924.68745  25919832.1934   25919835.2284
      2602.9694
   1270540.47946   2258547.11345  26068405.5214   26068408.3114
     -1980.7664
  18789989.04645   8266640.04645  26562365.2564   26562368.9004
     -4631.8124
  -1646000.28946   2773998.47946  24713464.7714   24713468.8034
     -2700.2194
  -6141864.12347  -4664086.75446  24863754.2874   24863757.2874
      -110.7344
  -4181649.07946  -3167707.51346  25558041.0764   25558044.9434
       763.6094
  -5925914.64946  -4454007.64246  25383695.2794   25383699.7444
      2116.5784
  -6846427.14846  -5199911.57446  24598988.3184   24598991.4824
      2424.3594
  -4146717.35445  -3024849.06645  25573392.6934   25573397.2994
      3301.0634
 06  4 20 17  1  0.0060000  0 11G10G 2G21G16G13G 6G27G 7G 8G29G26
 -13387724.37448 -10253783.79547  22318385.3654   22318388.5414
     -1220.7504
  20949812.65746  16370920.57646  25520649.5684   25520651.3264
     -4733.2974
  -4467598.23746  -3352693.59745  25904994.5534   25904999.0414
      2596.2664
   1330242.76546   2305068.19045  26079766.5144   26079769.8424
     -1999.2814
  18929022.11545   8374977.30245  26588823.6784   26588828.7174
     -4636.8914
  -1564750.27646   2837310.16946  24728926.2564   24728930.4164
     -2716.3284
  -6138283.45347  -4661296.57546  24864435.5144   24864438.9474
      -127.8594
  -4204312.85546  -3185367.73446  25553727.9284   25553731.9824
       747.3754
  -5989226.12146  -4503341.16946  25371647.3734   25371652.0964
      2104.2814
  -6919005.72346  -5256466.26646  24585176.8034   24585179.5684
      2414.3284
  -4245648.27345  -3101938.00745  25554566.5924   25554571.5494
      3294.4384
 06  4 20 17  1 30.0060000  0 11G10G 2G21G16G13G 6G27G 7G 8G29G26
 -13350830.05848 -10225034.95947  22325406.3034   22325409.2564
     -1238.8124
  21091909.10145  16481645.02846  25547689.9364   25547691.8934
     -4739.7194
  -4545383.97346  -3413305.88846  25890193.9044   25890195.5924
      2589.5004
   1390499.55345   2352021.38845  26091232.5764   26091235.5414
     -2017.7814
  19068206.36844   8483432.47845  26615307.8034   26615309.5844
     -4641.9844
  -1483018.14746   2900997.51446  24744478.9824   24744483.5294
     -2732.3914
  -6134189.05346  -4658106.09546  24865214.3344   24865217.8264
      -145.0314
  -4226489.43346  -3202648.16246  25549506.9514   25549511.1354
       731.0784
  -6052167.70346  -4552386.50046  25359669.9984   25359674.4634
      2091.8754
  -6991283.15346  -5312786.30746  24571422.7714   24571426.4984
      2404.2194
  -4344380.75345  -3178872.35545  25535778.6004   25535783.9434
      3287.7814
 06  4 20 17  2  0.0060000  0 11G10G 2G21G16G13G 6G27G 7G 8G29G26
 -13313390.25048 -10195861.09247  22332530.5764   22332533.8344
     -1257.0784
  21234200.98945  16592521.79246  25574766.5614   25574768.6234
     -4746.2814
  -4622961.66146  -3473755.84645  25875426.2954   25875430.1034
      2582.4534
   1451314.44345   2399409.61945  26102805.2254   26102808.8224
     -2036.4534
  19207544.09344   8592007.35545  26641823.6934   26641825.7564
     -4647.0944
  -1400801.18546   2965062.66446  24760124.8034   24760128.9634
     -2748.6254
  -6129576.13147  -4654511.57446  24866092.5374   24866096.1464
      -162.4064
  -4248172.43746  -3219543.93446  25545381.8184   25545386.1664
       714.5314
  -6114731.83246  -4601137.66946  25347765.3114   25347769.5294
      2079.1564
  -7063252.47946  -5368866.25746  24557727.3814   24557730.8384
      2393.8444
  -4442907.57645  -3255646.41945  25517030.2484   25517034.3504
      3280.7664
 06  4 20 17  2 30.0060000  0 11G10G 2G21G16G13G 6G27G 7G 8G29G26
 -13275411.17348 -10166267.02547  22339758.0064   22339761.1114
     -1274.9694
  21376680.06245  16703544.40446  25601880.3654   25601881.8304
     -4752.4064
  -4700335.56946  -3534047.16646  25860706.1074   25860708.8964
      2575.6724
   1512680.10946   2447227.02245  26114483.4824   26114486.5064
     -2054.7194
  19347026.55044   8700694.88645  26668365.9514   26668370.0764
     -4651.8124
  -1318106.98146   3029499.68746  24775860.7014   24775864.9324
     -2764.4224
  -6124449.54147  -4650516.81146  24867067.8034   24867071.1194
      -179.4844
  -4269366.25946  -3236058.51646  25541348.4044   25541352.6354
       698.2814
  -6176921.41946  -4649597.02046  25335930.6784   25335934.2874
      2066.6884
  -7134917.61646  -5424709.16946  24544090.4044   24544093.2754
      2383.7034
  -4541231.69545  -3332262.55345  25498319.6394   25498324.9474
      3274.0314
 06  4 20 17  3  0.0060000  0 11G10G 2G21G16G13G 6G27G 7G 8G29G26
 -13236888.45648 -10136249.32547  22347088.2954   22347091.6934
     -1293.2344
  21519348.69745  16814714.71646  25629029.1154   25629031.4364
     -4758.8444
  -4777497.64346  -3594173.18946  25846020.9364   25846023.8534
      2568.4384
   1574600.00846   2495476.41945  26126267.0214   26126269.7284
     -2073.2814
  19486657.27245   8809498.41445  26694937.2484   26694941.1624
     -4656.8914
  -1234933.10346   3094310.48046  24791688.2404   24791692.4824
     -2780.5314
  -6118803.41647  -4646117.19946  24868142.4434   24868145.3264
      -196.9694
  -4290064.67846  -3252187.16446  25537409.3034   25537413.7564
       681.5634
  -6238728.54046  -4697758.31246  25324168.9434   25324173.3854
      2053.7344
  -7206271.36146  -5480309.44146  24530512.2174   24530515.3344
      2373.1564
  -4639345.64845  -3408714.92145  25479649.5614   25479653.5924
      3266.8284
 06  4 20 17  3 30.0060000  0 11G10G 2G21G16G13G 6G27G 7G 8G29G26
 -13197826.19648 -10105811.18147  22354521.7174   22354525.1504
     -1311.1254
  21662200.94745  16926028.12146  25656213.5764   25656215.4044
     -4764.8444
  -4854450.02746  -3654135.84245  25831378.8114   25831383.1824
      2561.4844
   1637068.56746   2544153.18645  26138154.4514   26138157.1004
     -2091.4844
  19626429.02745   8918411.74545  26721534.6544   26721540.3734
     -4661.4534
  -1151285.10046   3159490.72146  24807606.0374   24807609.7284
     -2796.2034
  -6112641.21547  -4641315.45846  24869315.1314   24869318.2364
      -214.0784
  -4310269.67446  -3267931.19846  25533564.4594   25533569.2524
       665.2034
  -6300154.34446  -4745622.51146  25312480.2014   25312484.7364
      2041.0784
  -7277315.44546  -5535668.40246  24516993.2714   24516996.1894
      2362.8754
  -4737250.58445  -3485004.42545  25461018.2714   25461022.4324
      3259.8914
 06  4 20 17  4  0.0060000  0 11G10G 2G21G16G13G 6G27G 7G 8G29G26
 -13158223.49548 -10074951.91847  22362057.7874   22362061.0574
     -1329.1094
  21805235.82745  17037483.81546  25683431.7254   25683434.2684
     -4770.8594
  -4931189.30846  -3713932.62546  25816775.3184   25816778.0494
      2554.3594
   1700086.29546   2593257.83545  26150145.9044   26150149.1744
     -2109.7344
  19766341.19245   9027434.51645  26748159.7094   26748162.4864
     -4666.0164
  -1067163.25546   3225040.20046  24823614.2094   24823617.5494
     -2811.9374
  -6105960.56647  -4636109.75346  24870586.2874   24870589.4284
      -231.3444
  -4329978.57746  -3283288.86846  25529815.0064   25529819.5294
       648.6564
  -6361194.37946  -4793186.09046  25300864.5534   25300868.7254
      2028.1884
  -7348046.32846  -5590783.30846  24503533.5534   24503536.0964
      2352.4384
  -4834941.95145  -3561127.53345  25442428.1464   25442431.1234
      3252.7974
 06  4 20 17  4 30.0060000  0 11G10G 2G21G16G13G 6G27G 7G 8G29G26
 -13118083.34148 -10043673.88747  22369696.1394   22369699.5494
     -1346.9694
  21948448.27245  17149077.87346  25710683.9514   25710685.8384
     -4776.7034
  -5007714.86046  -3773562.86546  25802211.6394   25802215.3894
      2547.2504
   1763649.07845   2642787.26945  26162240.8814   26162243.9984
     -2127.8444
  19906388.58945   9136562.55645  26774810.1464   26774813.6624
     -4670.4694
   -982572.29846   3290955.22746  24839711.2564   24839714.7954
     -2827.5164
  -6098763.13047  -4630501.35046  24871955.8894   24871959.2054
      -248.5474
  -4349191.85546  -3298260.21146  25526156.7254   25526161.4714
       632.1254
  -6421848.13346  -4840448.69946  25289322.8264   25289326.9754
      2015.2974
  -7418464.21446  -5645654.32446  24490133.0764   24490136.2404
      2342.0004
  -4932419.70345  -3637084.15045  25423879.6544   25423882.0684
      3245.6414
 06  4 20 17  5  0.0060000  0 11G10G 2G21G16G13G 6G27G 7G 8G29G26
 -13077401.97948 -10011974.14447  22377437.8424   22377441.2284
     -1365.0314
  22091840.29445  17260811.84546  25737971.0214   25737973.1894
     -4782.6724
  -5084020.33646  -3833021.58246  25787691.2014   25787695.2684
      2539.8754
   1827759.93345   2692743.79845  26174441.2714   26174445.7254
     -2146.1414
  20046573.08544   9245797.37145  26801484.3574   26801486.7484
     -4675.0314
   -897510.03346   3357237.49846  24855897.7874   24855901.3614
     -2843.2034
  -6091044.09847  -4624486.49846  24873424.9284   24873428.0454
      -265.9694
  -4367903.58246  -3312840.68846  25522597.9434   25522602.6314
       615.4064
  -6482108.58446  -4887404.85746  25277855.0614   25277859.6074
      2002.1254
  -7488562.90046  -5700276.62546  24476793.4434   24476796.6314
      2331.3284
  -5029676.67645  -3712868.73345  25405371.7174   25405374.3304
      3238.2194
 06  4 20 17  5 30.0060000  0 11G10G 2G21G16G13G 6G27G 7G 8G29G26
 -13036179.54448  -9979852.77247  22385282.0684   22385285.3614
     -1383.1564
  22235409.72645  17372684.08246  25765291.4044   25765293.3854
     -4788.6414
  -5160102.56146  -3892306.27446  25773214.2874   25773217.3574
      2532.2664
   1892417.36545   2743126.34045  26186744.9124   26186747.2444
     -2164.3754
  20186893.24743   9355138.11845  26828184.9124   26828189.6234
     -4679.6094
   -811978.14946   3423885.70046  24872174.1154   24872177.9364
     -2858.9374
  -6082802.53446  -4618064.47446  24874993.2644   24874995.9824
      -283.5004
  -4386112.47046  -3327029.45246  25519132.1544   25519136.2684
       598.4844
  -6541972.44846  -4934051.95246  25266462.9674   25266467.2564
      1988.7664
  -7558339.87946  -5754648.24046  24463515.0684   24463518.5144
      2320.4694
  -5126709.79345  -3788478.89546  25386906.0294   25386909.0764
      3230.6094
